<?xml version="1.0" encoding="UTF-8" standalone="no" ?>
<gpx xmlns="http://www.topografix.com/GPX/1/1" xmlns:xsi="http://www.w3.org/2001/XMLSchema-instance" xsi:schemaLocation="http://www.topografix.com/GPX/1/1 http://www.topografix.com/GPX/1/1/gpx.xsd" version="1.1" creator="VisuGPX - https://www.visugpx.com">
  <metadata>
    <name>LANGOGNE-LE PUY Route</name>
    <desc><![CDATA[Road trip de Langogne (48)à Ganges (34)en 4 jours]]></desc>
  </metadata>
  <trk>
    <name><![CDATA[LANGOGNE-LE PUY Route]]></name>
    <extensions>
      <line xmlns="http://www.topografix.com/GPX/gpx_style/0/2">
        <color>00FFFF</color>
        <width>4</width>
      </line>
    </extensions>
    <trkseg>
      <trkpt lat="44.73255" lon="3.85715">
        <ele>914.15</ele>
        <time>2025-04-15T14:17:49.000Z</time>
      </trkpt>
      <trkpt lat="44.73227" lon="3.85698">
        <ele>914.84</ele>
        <time>2025-04-15T14:17:49.005Z</time>
      </trkpt>
      <trkpt lat="44.73199" lon="3.85682">
        <ele>915.67</ele>
        <time>2025-04-15T14:17:49.015Z</time>
      </trkpt>
      <trkpt lat="44.73196" lon="3.8568">
        <ele>916.26</ele>
        <time>2025-04-15T14:17:49.025Z</time>
      </trkpt>
      <trkpt lat="44.73193" lon="3.85678">
        <ele>916.73</ele>
        <time>2025-04-15T14:17:49.036Z</time>
      </trkpt>
      <trkpt lat="44.73167" lon="3.85665">
        <ele>917.28</ele>
        <time>2025-04-15T14:17:49.051Z</time>
      </trkpt>
      <trkpt lat="44.73141" lon="3.85652">
        <ele>917.76</ele>
        <time>2025-04-15T14:17:49.071Z</time>
      </trkpt>
      <trkpt lat="44.73125" lon="3.85645">
        <ele>918.08</ele>
        <time>2025-04-15T14:17:49.093Z</time>
      </trkpt>
      <trkpt lat="44.73109" lon="3.85637">
        <ele>918.36</ele>
        <time>2025-04-15T14:17:49.118Z</time>
      </trkpt>
      <trkpt lat="44.73105" lon="3.85635">
        <ele>918.64</ele>
        <time>2025-04-15T14:17:49.144Z</time>
      </trkpt>
      <trkpt lat="44.73088" lon="3.85629">
        <ele>918.93</ele>
        <time>2025-04-15T14:17:49.173Z</time>
      </trkpt>
      <trkpt lat="44.73067" lon="3.85626">
        <ele>919.23</ele>
        <time>2025-04-15T14:17:49.205Z</time>
      </trkpt>
      <trkpt lat="44.73047" lon="3.85622">
        <ele>919.52</ele>
        <time>2025-04-15T14:17:49.240Z</time>
      </trkpt>
      <trkpt lat="44.73027" lon="3.85613">
        <ele>919.94</ele>
        <time>2025-04-15T14:17:49.279Z</time>
      </trkpt>
      <trkpt lat="44.73006" lon="3.85603">
        <ele>920.52</ele>
        <time>2025-04-15T14:17:49.321Z</time>
      </trkpt>
      <trkpt lat="44.72998" lon="3.85594">
        <ele>921.27</ele>
        <time>2025-04-15T14:17:49.365Z</time>
      </trkpt>
      <trkpt lat="44.73" lon="3.85579">
        <ele>922.38</ele>
        <time>2025-04-15T14:17:49.410Z</time>
      </trkpt>
      <trkpt lat="44.73011" lon="3.85558">
        <ele>923.75</ele>
        <time>2025-04-15T14:17:49.458Z</time>
      </trkpt>
      <trkpt lat="44.73023" lon="3.85541">
        <ele>925.2</ele>
        <time>2025-04-15T14:17:49.509Z</time>
      </trkpt>
      <trkpt lat="44.73036" lon="3.85524">
        <ele>926.87</ele>
        <time>2025-04-15T14:17:49.563Z</time>
      </trkpt>
      <trkpt lat="44.73054" lon="3.85498">
        <ele>928.84</ele>
        <time>2025-04-15T14:17:49.621Z</time>
      </trkpt>
      <trkpt lat="44.73071" lon="3.85472">
        <ele>930.86</ele>
        <time>2025-04-15T14:17:49.683Z</time>
      </trkpt>
      <trkpt lat="44.73077" lon="3.85459">
        <ele>932.99</ele>
        <time>2025-04-15T14:17:49.747Z</time>
      </trkpt>
      <trkpt lat="44.73066" lon="3.85442">
        <ele>935.32</ele>
        <time>2025-04-15T14:17:49.814Z</time>
      </trkpt>
      <trkpt lat="44.73056" lon="3.85425">
        <ele>937.81</ele>
        <time>2025-04-15T14:17:49.883Z</time>
      </trkpt>
      <trkpt lat="44.73046" lon="3.85397">
        <ele>940.39</ele>
        <time>2025-04-15T14:17:49.956Z</time>
      </trkpt>
      <trkpt lat="44.73036" lon="3.85369">
        <ele>942.87</ele>
        <time>2025-04-15T14:17:50.032Z</time>
      </trkpt>
      <trkpt lat="44.73031" lon="3.85335">
        <ele>945.25</ele>
        <time>2025-04-15T14:17:50.112Z</time>
      </trkpt>
      <trkpt lat="44.73025" lon="3.853">
        <ele>947.63</ele>
        <time>2025-04-15T14:17:50.196Z</time>
      </trkpt>
      <trkpt lat="44.73019" lon="3.85266">
        <ele>950.19</ele>
        <time>2025-04-15T14:17:50.284Z</time>
      </trkpt>
      <trkpt lat="44.73021" lon="3.85233">
        <ele>952.94</ele>
        <time>2025-04-15T14:17:50.376Z</time>
      </trkpt>
      <trkpt lat="44.73023" lon="3.852">
        <ele>955.8</ele>
        <time>2025-04-15T14:17:50.472Z</time>
      </trkpt>
      <trkpt lat="44.73019" lon="3.85163">
        <ele>958.65</ele>
        <time>2025-04-15T14:17:50.572Z</time>
      </trkpt>
      <trkpt lat="44.73006" lon="3.85137">
        <ele>961.23</ele>
        <time>2025-04-15T14:17:50.676Z</time>
      </trkpt>
      <trkpt lat="44.72993" lon="3.8511">
        <ele>963.71</ele>
        <time>2025-04-15T14:17:50.783Z</time>
      </trkpt>
      <trkpt lat="44.72981" lon="3.85084">
        <ele>966.02</ele>
        <time>2025-04-15T14:17:50.894Z</time>
      </trkpt>
      <trkpt lat="44.72971" lon="3.85056">
        <ele>968.12</ele>
        <time>2025-04-15T14:17:51.009Z</time>
      </trkpt>
      <trkpt lat="44.7296" lon="3.85028">
        <ele>970.09</ele>
        <time>2025-04-15T14:17:51.127Z</time>
      </trkpt>
      <trkpt lat="44.72951" lon="3.85">
        <ele>971.94</ele>
        <time>2025-04-15T14:17:51.249Z</time>
      </trkpt>
      <trkpt lat="44.72955" lon="3.84973">
        <ele>973.71</ele>
        <time>2025-04-15T14:17:51.374Z</time>
      </trkpt>
      <trkpt lat="44.72959" lon="3.84946">
        <ele>975.39</ele>
        <time>2025-04-15T14:17:51.502Z</time>
      </trkpt>
      <trkpt lat="44.72966" lon="3.84912">
        <ele>977.11</ele>
        <time>2025-04-15T14:17:51.634Z</time>
      </trkpt>
      <trkpt lat="44.72972" lon="3.84878">
        <ele>978.83</ele>
        <time>2025-04-15T14:17:51.770Z</time>
      </trkpt>
      <trkpt lat="44.72978" lon="3.84843">
        <ele>980.56</ele>
        <time>2025-04-15T14:17:51.910Z</time>
      </trkpt>
      <trkpt lat="44.72985" lon="3.84816">
        <ele>982.24</ele>
        <time>2025-04-15T14:17:52.054Z</time>
      </trkpt>
      <trkpt lat="44.72985" lon="3.84816">
        <ele>983.68</ele>
        <time>2025-04-15T14:17:52.198Z</time>
      </trkpt>
      <trkpt lat="44.72992" lon="3.8478">
        <ele>985.29</ele>
        <time>2025-04-15T14:17:52.346Z</time>
      </trkpt>
      <trkpt lat="44.73" lon="3.84745">
        <ele>986.86</ele>
        <time>2025-04-15T14:17:52.498Z</time>
      </trkpt>
      <trkpt lat="44.73003" lon="3.84721">
        <ele>988.32</ele>
        <time>2025-04-15T14:17:52.653Z</time>
      </trkpt>
      <trkpt lat="44.73006" lon="3.84697">
        <ele>989.65</ele>
        <time>2025-04-15T14:17:52.810Z</time>
      </trkpt>
      <trkpt lat="44.73003" lon="3.8466">
        <ele>990.88</ele>
        <time>2025-04-15T14:17:52.972Z</time>
      </trkpt>
      <trkpt lat="44.73" lon="3.84622">
        <ele>992.01</ele>
        <time>2025-04-15T14:17:53.138Z</time>
      </trkpt>
      <trkpt lat="44.73006" lon="3.84592">
        <ele>993.02</ele>
        <time>2025-04-15T14:17:53.308Z</time>
      </trkpt>
      <trkpt lat="44.73011" lon="3.84561">
        <ele>993.93</ele>
        <time>2025-04-15T14:17:53.481Z</time>
      </trkpt>
      <trkpt lat="44.73017" lon="3.8453">
        <ele>994.73</ele>
        <time>2025-04-15T14:17:53.658Z</time>
      </trkpt>
      <trkpt lat="44.73025" lon="3.84505">
        <ele>995.47</ele>
        <time>2025-04-15T14:17:53.838Z</time>
      </trkpt>
      <trkpt lat="44.73032" lon="3.84481">
        <ele>996.08</ele>
        <time>2025-04-15T14:17:54.021Z</time>
      </trkpt>
      <trkpt lat="44.73036" lon="3.84468">
        <ele>996.62</ele>
        <time>2025-04-15T14:17:54.206Z</time>
      </trkpt>
      <trkpt lat="44.73049" lon="3.84432">
        <ele>997.06</ele>
        <time>2025-04-15T14:17:54.395Z</time>
      </trkpt>
      <trkpt lat="44.73062" lon="3.84396">
        <ele>997.51</ele>
        <time>2025-04-15T14:17:54.589Z</time>
      </trkpt>
      <trkpt lat="44.73075" lon="3.8436">
        <ele>997.92</ele>
        <time>2025-04-15T14:17:54.788Z</time>
      </trkpt>
      <trkpt lat="44.73088" lon="3.84323">
        <ele>998.27</ele>
        <time>2025-04-15T14:17:54.991Z</time>
      </trkpt>
      <trkpt lat="44.73101" lon="3.84288">
        <ele>998.43</ele>
        <time>2025-04-15T14:17:55.199Z</time>
      </trkpt>
      <trkpt lat="44.73111" lon="3.84263">
        <ele>998.54</ele>
        <time>2025-04-15T14:17:55.410Z</time>
      </trkpt>
      <trkpt lat="44.73122" lon="3.84238">
        <ele>998.64</ele>
        <time>2025-04-15T14:17:55.624Z</time>
      </trkpt>
      <trkpt lat="44.73126" lon="3.84232">
        <ele>998.72</ele>
        <time>2025-04-15T14:17:55.839Z</time>
      </trkpt>
      <trkpt lat="44.73133" lon="3.84213">
        <ele>998.72</ele>
        <time>2025-04-15T14:17:56.057Z</time>
      </trkpt>
      <trkpt lat="44.73133" lon="3.84213">
        <ele>998.68</ele>
        <time>2025-04-15T14:17:56.275Z</time>
      </trkpt>
      <trkpt lat="44.7315" lon="3.84176">
        <ele>998.68</ele>
        <time>2025-04-15T14:17:56.498Z</time>
      </trkpt>
      <trkpt lat="44.73167" lon="3.8414">
        <ele>998.49</ele>
        <time>2025-04-15T14:17:56.726Z</time>
      </trkpt>
      <trkpt lat="44.73187" lon="3.84105">
        <ele>998.27</ele>
        <time>2025-04-15T14:17:56.959Z</time>
      </trkpt>
      <trkpt lat="44.732" lon="3.84084">
        <ele>998.08</ele>
        <time>2025-04-15T14:17:57.195Z</time>
      </trkpt>
      <trkpt lat="44.73214" lon="3.84062">
        <ele>997.8</ele>
        <time>2025-04-15T14:17:57.434Z</time>
      </trkpt>
      <trkpt lat="44.73229" lon="3.84045">
        <ele>997.33</ele>
        <time>2025-04-15T14:17:57.676Z</time>
      </trkpt>
      <trkpt lat="44.73244" lon="3.84028">
        <ele>996.77</ele>
        <time>2025-04-15T14:17:57.922Z</time>
      </trkpt>
      <trkpt lat="44.73244" lon="3.84004">
        <ele>995.94</ele>
        <time>2025-04-15T14:17:58.170Z</time>
      </trkpt>
      <trkpt lat="44.7327" lon="3.83993">
        <ele>995.29</ele>
        <time>2025-04-15T14:17:58.422Z</time>
      </trkpt>
      <trkpt lat="44.73295" lon="3.83982">
        <ele>994.53</ele>
        <time>2025-04-15T14:17:58.679Z</time>
      </trkpt>
      <trkpt lat="44.73321" lon="3.83971">
        <ele>993.62</ele>
        <time>2025-04-15T14:17:58.940Z</time>
      </trkpt>
      <trkpt lat="44.73346" lon="3.8396">
        <ele>992.54</ele>
        <time>2025-04-15T14:17:59.205Z</time>
      </trkpt>
      <trkpt lat="44.73371" lon="3.83949">
        <ele>991.38</ele>
        <time>2025-04-15T14:17:59.474Z</time>
      </trkpt>
      <trkpt lat="44.73397" lon="3.83938">
        <ele>989.94</ele>
        <time>2025-04-15T14:17:59.748Z</time>
      </trkpt>
      <trkpt lat="44.73426" lon="3.83921">
        <ele>988.6</ele>
        <time>2025-04-15T14:18:00.027Z</time>
      </trkpt>
      <trkpt lat="44.73455" lon="3.83904">
        <ele>987.21</ele>
        <time>2025-04-15T14:18:00.311Z</time>
      </trkpt>
      <trkpt lat="44.73481" lon="3.83882">
        <ele>985.64</ele>
        <time>2025-04-15T14:18:00.600Z</time>
      </trkpt>
      <trkpt lat="44.73504" lon="3.83857">
        <ele>983.97</ele>
        <time>2025-04-15T14:18:00.893Z</time>
      </trkpt>
      <trkpt lat="44.73528" lon="3.83832">
        <ele>982.27</ele>
        <time>2025-04-15T14:18:01.191Z</time>
      </trkpt>
      <trkpt lat="44.73551" lon="3.83807">
        <ele>980.58</ele>
        <time>2025-04-15T14:18:01.494Z</time>
      </trkpt>
      <trkpt lat="44.73575" lon="3.83782">
        <ele>978.74</ele>
        <time>2025-04-15T14:18:01.802Z</time>
      </trkpt>
      <trkpt lat="44.73599" lon="3.83757">
        <ele>976.84</ele>
        <time>2025-04-15T14:18:02.114Z</time>
      </trkpt>
      <trkpt lat="44.73622" lon="3.83732">
        <ele>975.19</ele>
        <time>2025-04-15T14:18:02.431Z</time>
      </trkpt>
      <trkpt lat="44.73622" lon="3.83732">
        <ele>973.46</ele>
        <time>2025-04-15T14:18:02.748Z</time>
      </trkpt>
      <trkpt lat="44.73645" lon="3.83708">
        <ele>971.82</ele>
        <time>2025-04-15T14:18:03.070Z</time>
      </trkpt>
      <trkpt lat="44.73668" lon="3.83684">
        <ele>969.98</ele>
        <time>2025-04-15T14:18:03.396Z</time>
      </trkpt>
      <trkpt lat="44.7369" lon="3.8366">
        <ele>968.14</ele>
        <time>2025-04-15T14:18:03.727Z</time>
      </trkpt>
      <trkpt lat="44.73713" lon="3.83636">
        <ele>966.28</ele>
        <time>2025-04-15T14:18:04.062Z</time>
      </trkpt>
      <trkpt lat="44.73736" lon="3.83612">
        <ele>964.47</ele>
        <time>2025-04-15T14:18:04.402Z</time>
      </trkpt>
      <trkpt lat="44.73755" lon="3.83582">
        <ele>962.62</ele>
        <time>2025-04-15T14:18:04.746Z</time>
      </trkpt>
      <trkpt lat="44.73775" lon="3.83552">
        <ele>960.76</ele>
        <time>2025-04-15T14:18:05.095Z</time>
      </trkpt>
      <trkpt lat="44.73794" lon="3.83522">
        <ele>958.89</ele>
        <time>2025-04-15T14:18:05.449Z</time>
      </trkpt>
      <trkpt lat="44.73813" lon="3.83492">
        <ele>957.07</ele>
        <time>2025-04-15T14:18:05.807Z</time>
      </trkpt>
      <trkpt lat="44.73813" lon="3.83492">
        <ele>955.46</ele>
        <time>2025-04-15T14:18:06.165Z</time>
      </trkpt>
      <trkpt lat="44.73833" lon="3.8346">
        <ele>953.61</ele>
        <time>2025-04-15T14:18:06.528Z</time>
      </trkpt>
      <trkpt lat="44.73853" lon="3.83429">
        <ele>951.95</ele>
        <time>2025-04-15T14:18:06.896Z</time>
      </trkpt>
      <trkpt lat="44.73873" lon="3.83398">
        <ele>950.47</ele>
        <time>2025-04-15T14:18:07.269Z</time>
      </trkpt>
      <trkpt lat="44.73893" lon="3.83367">
        <ele>949.12</ele>
        <time>2025-04-15T14:18:07.646Z</time>
      </trkpt>
      <trkpt lat="44.73906" lon="3.83349">
        <ele>947.86</ele>
        <time>2025-04-15T14:18:08.026Z</time>
      </trkpt>
      <trkpt lat="44.7392" lon="3.83331">
        <ele>946.79</ele>
        <time>2025-04-15T14:18:08.409Z</time>
      </trkpt>
      <trkpt lat="44.73942" lon="3.83313">
        <ele>945.82</ele>
        <time>2025-04-15T14:18:08.796Z</time>
      </trkpt>
      <trkpt lat="44.7395" lon="3.83309">
        <ele>945.01</ele>
        <time>2025-04-15T14:18:09.185Z</time>
      </trkpt>
      <trkpt lat="44.73977" lon="3.83297">
        <ele>944.28</ele>
        <time>2025-04-15T14:18:09.578Z</time>
      </trkpt>
      <trkpt lat="44.74004" lon="3.83285">
        <ele>943.67</ele>
        <time>2025-04-15T14:18:09.976Z</time>
      </trkpt>
      <trkpt lat="44.74031" lon="3.83273">
        <ele>943.17</ele>
        <time>2025-04-15T14:18:10.378Z</time>
      </trkpt>
      <trkpt lat="44.74059" lon="3.8326">
        <ele>942.86</ele>
        <time>2025-04-15T14:18:10.785Z</time>
      </trkpt>
      <trkpt lat="44.74086" lon="3.83248">
        <ele>942.64</ele>
        <time>2025-04-15T14:18:11.197Z</time>
      </trkpt>
      <trkpt lat="44.74113" lon="3.83236">
        <ele>942.46</ele>
        <time>2025-04-15T14:18:11.613Z</time>
      </trkpt>
      <trkpt lat="44.7414" lon="3.83224">
        <ele>942.55</ele>
        <time>2025-04-15T14:18:12.034Z</time>
      </trkpt>
      <trkpt lat="44.74167" lon="3.83211">
        <ele>942.69</ele>
        <time>2025-04-15T14:18:12.459Z</time>
      </trkpt>
      <trkpt lat="44.74194" lon="3.83199">
        <ele>942.94</ele>
        <time>2025-04-15T14:18:12.889Z</time>
      </trkpt>
      <trkpt lat="44.74221" lon="3.83187">
        <ele>943.26</ele>
        <time>2025-04-15T14:18:13.323Z</time>
      </trkpt>
      <trkpt lat="44.7424" lon="3.83168">
        <ele>943.62</ele>
        <time>2025-04-15T14:18:13.761Z</time>
      </trkpt>
      <trkpt lat="44.74254" lon="3.83145">
        <ele>944.01</ele>
        <time>2025-04-15T14:18:14.202Z</time>
      </trkpt>
      <trkpt lat="44.74269" lon="3.83123">
        <ele>944.54</ele>
        <time>2025-04-15T14:18:14.647Z</time>
      </trkpt>
      <trkpt lat="44.74283" lon="3.83101">
        <ele>945.02</ele>
        <time>2025-04-15T14:18:15.095Z</time>
      </trkpt>
      <trkpt lat="44.74303" lon="3.83076">
        <ele>945.48</ele>
        <time>2025-04-15T14:18:15.548Z</time>
      </trkpt>
      <trkpt lat="44.74324" lon="3.83052">
        <ele>945.98</ele>
        <time>2025-04-15T14:18:16.005Z</time>
      </trkpt>
      <trkpt lat="44.74341" lon="3.83035">
        <ele>946.51</ele>
        <time>2025-04-15T14:18:16.465Z</time>
      </trkpt>
      <trkpt lat="44.74358" lon="3.83017">
        <ele>947.01</ele>
        <time>2025-04-15T14:18:16.929Z</time>
      </trkpt>
      <trkpt lat="44.74381" lon="3.82999">
        <ele>947.55</ele>
        <time>2025-04-15T14:18:17.397Z</time>
      </trkpt>
      <trkpt lat="44.74404" lon="3.82981">
        <ele>948.02</ele>
        <time>2025-04-15T14:18:17.869Z</time>
      </trkpt>
      <trkpt lat="44.74427" lon="3.82963">
        <ele>948.41</ele>
        <time>2025-04-15T14:18:18.345Z</time>
      </trkpt>
      <trkpt lat="44.7445" lon="3.82944">
        <ele>948.8</ele>
        <time>2025-04-15T14:18:18.826Z</time>
      </trkpt>
      <trkpt lat="44.74466" lon="3.82936">
        <ele>949.18</ele>
        <time>2025-04-15T14:18:19.309Z</time>
      </trkpt>
      <trkpt lat="44.74483" lon="3.82927">
        <ele>949.52</ele>
        <time>2025-04-15T14:18:19.795Z</time>
      </trkpt>
      <trkpt lat="44.745" lon="3.82923">
        <ele>949.87</ele>
        <time>2025-04-15T14:18:20.284Z</time>
      </trkpt>
      <trkpt lat="44.74517" lon="3.82919">
        <ele>950.19</ele>
        <time>2025-04-15T14:18:20.776Z</time>
      </trkpt>
      <trkpt lat="44.74544" lon="3.82922">
        <ele>950.54</ele>
        <time>2025-04-15T14:18:21.272Z</time>
      </trkpt>
      <trkpt lat="44.74571" lon="3.82926">
        <ele>950.8</ele>
        <time>2025-04-15T14:18:21.772Z</time>
      </trkpt>
      <trkpt lat="44.74598" lon="3.82929">
        <ele>951.04</ele>
        <time>2025-04-15T14:18:22.277Z</time>
      </trkpt>
      <trkpt lat="44.74624" lon="3.82921">
        <ele>951.22</ele>
        <time>2025-04-15T14:18:22.786Z</time>
      </trkpt>
      <trkpt lat="44.74637" lon="3.8291">
        <ele>951.25</ele>
        <time>2025-04-15T14:18:23.297Z</time>
      </trkpt>
      <trkpt lat="44.7465" lon="3.82891">
        <ele>951.26</ele>
        <time>2025-04-15T14:18:23.811Z</time>
      </trkpt>
      <trkpt lat="44.74656" lon="3.82859">
        <ele>951.1</ele>
        <time>2025-04-15T14:18:24.329Z</time>
      </trkpt>
      <trkpt lat="44.74661" lon="3.82819">
        <ele>950.82</ele>
        <time>2025-04-15T14:18:24.852Z</time>
      </trkpt>
      <trkpt lat="44.74666" lon="3.8278">
        <ele>950.51</ele>
        <time>2025-04-15T14:18:25.379Z</time>
      </trkpt>
      <trkpt lat="44.74671" lon="3.82741">
        <ele>950.22</ele>
        <time>2025-04-15T14:18:25.911Z</time>
      </trkpt>
      <trkpt lat="44.74677" lon="3.82718">
        <ele>949.89</ele>
        <time>2025-04-15T14:18:26.446Z</time>
      </trkpt>
      <trkpt lat="44.74682" lon="3.82695">
        <ele>949.45</ele>
        <time>2025-04-15T14:18:26.983Z</time>
      </trkpt>
      <trkpt lat="44.74691" lon="3.8268">
        <ele>949.05</ele>
        <time>2025-04-15T14:18:27.523Z</time>
      </trkpt>
      <trkpt lat="44.74706" lon="3.8267">
        <ele>948.68</ele>
        <time>2025-04-15T14:18:28.065Z</time>
      </trkpt>
      <trkpt lat="44.74721" lon="3.82663">
        <ele>948.28</ele>
        <time>2025-04-15T14:18:28.610Z</time>
      </trkpt>
      <trkpt lat="44.7474" lon="3.8267">
        <ele>948</ele>
        <time>2025-04-15T14:18:29.158Z</time>
      </trkpt>
      <trkpt lat="44.74753" lon="3.82674">
        <ele>947.68</ele>
        <time>2025-04-15T14:18:29.708Z</time>
      </trkpt>
      <trkpt lat="44.7476" lon="3.82673">
        <ele>947.38</ele>
        <time>2025-04-15T14:18:30.259Z</time>
      </trkpt>
      <trkpt lat="44.74764" lon="3.82672">
        <ele>947.13</ele>
        <time>2025-04-15T14:18:30.811Z</time>
      </trkpt>
      <trkpt lat="44.74772" lon="3.82657">
        <ele>946.82</ele>
        <time>2025-04-15T14:18:31.365Z</time>
      </trkpt>
      <trkpt lat="44.74777" lon="3.82618">
        <ele>946.49</ele>
        <time>2025-04-15T14:18:31.923Z</time>
      </trkpt>
      <trkpt lat="44.74783" lon="3.82579">
        <ele>946.36</ele>
        <time>2025-04-15T14:18:32.486Z</time>
      </trkpt>
      <trkpt lat="44.74788" lon="3.82541">
        <ele>946.51</ele>
        <time>2025-04-15T14:18:33.053Z</time>
      </trkpt>
      <trkpt lat="44.74793" lon="3.82502">
        <ele>946.54</ele>
        <time>2025-04-15T14:18:33.625Z</time>
      </trkpt>
      <trkpt lat="44.74798" lon="3.82463">
        <ele>946.55</ele>
        <time>2025-04-15T14:18:34.201Z</time>
      </trkpt>
      <trkpt lat="44.74804" lon="3.82425">
        <ele>946.93</ele>
        <time>2025-04-15T14:18:34.782Z</time>
      </trkpt>
      <trkpt lat="44.74809" lon="3.82386">
        <ele>947.43</ele>
        <time>2025-04-15T14:18:35.367Z</time>
      </trkpt>
      <trkpt lat="44.74804" lon="3.82356">
        <ele>947.82</ele>
        <time>2025-04-15T14:18:35.956Z</time>
      </trkpt>
      <trkpt lat="44.748" lon="3.82326">
        <ele>948.21</ele>
        <time>2025-04-15T14:18:36.548Z</time>
      </trkpt>
      <trkpt lat="44.748" lon="3.82326">
        <ele>948.51</ele>
        <time>2025-04-15T14:18:37.140Z</time>
      </trkpt>
      <trkpt lat="44.748" lon="3.823">
        <ele>948.9</ele>
        <time>2025-04-15T14:18:37.735Z</time>
      </trkpt>
      <trkpt lat="44.748" lon="3.82273">
        <ele>949.3</ele>
        <time>2025-04-15T14:18:38.333Z</time>
      </trkpt>
      <trkpt lat="44.74806" lon="3.82237">
        <ele>949.61</ele>
        <time>2025-04-15T14:18:38.936Z</time>
      </trkpt>
      <trkpt lat="44.74811" lon="3.82202">
        <ele>949.89</ele>
        <time>2025-04-15T14:18:39.543Z</time>
      </trkpt>
      <trkpt lat="44.74816" lon="3.82166">
        <ele>950.15</ele>
        <time>2025-04-15T14:18:40.154Z</time>
      </trkpt>
      <trkpt lat="44.74822" lon="3.82131">
        <ele>950.44</ele>
        <time>2025-04-15T14:18:40.769Z</time>
      </trkpt>
      <trkpt lat="44.74838" lon="3.82096">
        <ele>950.57</ele>
        <time>2025-04-15T14:18:41.389Z</time>
      </trkpt>
      <trkpt lat="44.74854" lon="3.82061">
        <ele>950.71</ele>
        <time>2025-04-15T14:18:42.014Z</time>
      </trkpt>
      <trkpt lat="44.74871" lon="3.82025">
        <ele>950.85</ele>
        <time>2025-04-15T14:18:42.643Z</time>
      </trkpt>
      <trkpt lat="44.74887" lon="3.8199">
        <ele>951.04</ele>
        <time>2025-04-15T14:18:43.277Z</time>
      </trkpt>
      <trkpt lat="44.74903" lon="3.81955">
        <ele>951.26</ele>
        <time>2025-04-15T14:18:43.916Z</time>
      </trkpt>
      <trkpt lat="44.74918" lon="3.81922">
        <ele>951.57</ele>
        <time>2025-04-15T14:18:44.559Z</time>
      </trkpt>
      <trkpt lat="44.74933" lon="3.81889">
        <ele>951.87</ele>
        <time>2025-04-15T14:18:45.207Z</time>
      </trkpt>
      <trkpt lat="44.74947" lon="3.81856">
        <ele>952.21</ele>
        <time>2025-04-15T14:18:45.859Z</time>
      </trkpt>
      <trkpt lat="44.74962" lon="3.81823">
        <ele>952.61</ele>
        <time>2025-04-15T14:18:46.516Z</time>
      </trkpt>
      <trkpt lat="44.74977" lon="3.8179">
        <ele>952.98</ele>
        <time>2025-04-15T14:18:47.177Z</time>
      </trkpt>
      <trkpt lat="44.74991" lon="3.81758">
        <ele>953.27</ele>
        <time>2025-04-15T14:18:47.842Z</time>
      </trkpt>
      <trkpt lat="44.75001" lon="3.81716">
        <ele>953.56</ele>
        <time>2025-04-15T14:18:48.512Z</time>
      </trkpt>
      <trkpt lat="44.75011" lon="3.81674">
        <ele>953.95</ele>
        <time>2025-04-15T14:18:49.187Z</time>
      </trkpt>
      <trkpt lat="44.75021" lon="3.81632">
        <ele>954.32</ele>
        <time>2025-04-15T14:18:49.868Z</time>
      </trkpt>
      <trkpt lat="44.7503" lon="3.81591">
        <ele>954.79</ele>
        <time>2025-04-15T14:18:50.554Z</time>
      </trkpt>
      <trkpt lat="44.7504" lon="3.81549">
        <ele>955.45</ele>
        <time>2025-04-15T14:18:51.245Z</time>
      </trkpt>
      <trkpt lat="44.7505" lon="3.81507">
        <ele>956.08</ele>
        <time>2025-04-15T14:18:51.941Z</time>
      </trkpt>
      <trkpt lat="44.7506" lon="3.81466">
        <ele>956.84</ele>
        <time>2025-04-15T14:18:52.642Z</time>
      </trkpt>
      <trkpt lat="44.7507" lon="3.81438">
        <ele>957.64</ele>
        <time>2025-04-15T14:18:53.346Z</time>
      </trkpt>
      <trkpt lat="44.7508" lon="3.8141">
        <ele>958.43</ele>
        <time>2025-04-15T14:18:54.054Z</time>
      </trkpt>
      <trkpt lat="44.7509" lon="3.81382">
        <ele>959.19</ele>
        <time>2025-04-15T14:18:54.765Z</time>
      </trkpt>
      <trkpt lat="44.75108" lon="3.81349">
        <ele>960.01</ele>
        <time>2025-04-15T14:18:55.481Z</time>
      </trkpt>
      <trkpt lat="44.75126" lon="3.81316">
        <ele>960.97</ele>
        <time>2025-04-15T14:18:56.202Z</time>
      </trkpt>
      <trkpt lat="44.75145" lon="3.81284">
        <ele>961.87</ele>
        <time>2025-04-15T14:18:56.927Z</time>
      </trkpt>
      <trkpt lat="44.75163" lon="3.81252">
        <ele>962.68</ele>
        <time>2025-04-15T14:18:57.657Z</time>
      </trkpt>
      <trkpt lat="44.75181" lon="3.81221">
        <ele>963.53</ele>
        <time>2025-04-15T14:18:58.392Z</time>
      </trkpt>
      <trkpt lat="44.752" lon="3.81189">
        <ele>964.4</ele>
        <time>2025-04-15T14:18:59.131Z</time>
      </trkpt>
      <trkpt lat="44.75218" lon="3.81157">
        <ele>965.23</ele>
        <time>2025-04-15T14:18:59.875Z</time>
      </trkpt>
      <trkpt lat="44.75237" lon="3.81125">
        <ele>966.03</ele>
        <time>2025-04-15T14:19:00.624Z</time>
      </trkpt>
      <trkpt lat="44.75255" lon="3.81094">
        <ele>966.69</ele>
        <time>2025-04-15T14:19:01.377Z</time>
      </trkpt>
      <trkpt lat="44.75273" lon="3.81062">
        <ele>967.37</ele>
        <time>2025-04-15T14:19:02.135Z</time>
      </trkpt>
      <trkpt lat="44.75292" lon="3.8103">
        <ele>968.07</ele>
        <time>2025-04-15T14:19:02.898Z</time>
      </trkpt>
      <trkpt lat="44.75309" lon="3.80998">
        <ele>968.65</ele>
        <time>2025-04-15T14:19:03.665Z</time>
      </trkpt>
      <trkpt lat="44.75327" lon="3.80965">
        <ele>969.27</ele>
        <time>2025-04-15T14:19:04.437Z</time>
      </trkpt>
      <trkpt lat="44.75345" lon="3.80933">
        <ele>969.74</ele>
        <time>2025-04-15T14:19:05.214Z</time>
      </trkpt>
      <trkpt lat="44.75363" lon="3.809">
        <ele>970.2</ele>
        <time>2025-04-15T14:19:05.995Z</time>
      </trkpt>
      <trkpt lat="44.7538" lon="3.80867">
        <ele>970.9</ele>
        <time>2025-04-15T14:19:06.781Z</time>
      </trkpt>
      <trkpt lat="44.75398" lon="3.80835">
        <ele>971.66</ele>
        <time>2025-04-15T14:19:07.572Z</time>
      </trkpt>
      <trkpt lat="44.75416" lon="3.80802">
        <ele>972.39</ele>
        <time>2025-04-15T14:19:08.367Z</time>
      </trkpt>
      <trkpt lat="44.75434" lon="3.80769">
        <ele>972.96</ele>
        <time>2025-04-15T14:19:09.167Z</time>
      </trkpt>
      <trkpt lat="44.75452" lon="3.80737">
        <ele>973.55</ele>
        <time>2025-04-15T14:19:09.972Z</time>
      </trkpt>
      <trkpt lat="44.75469" lon="3.80704">
        <ele>974.17</ele>
        <time>2025-04-15T14:19:10.782Z</time>
      </trkpt>
      <trkpt lat="44.75487" lon="3.80672">
        <ele>974.66</ele>
        <time>2025-04-15T14:19:11.596Z</time>
      </trkpt>
      <trkpt lat="44.75504" lon="3.80646">
        <ele>975.14</ele>
        <time>2025-04-15T14:19:12.414Z</time>
      </trkpt>
      <trkpt lat="44.75517" lon="3.80633">
        <ele>975.74</ele>
        <time>2025-04-15T14:19:13.235Z</time>
      </trkpt>
      <trkpt lat="44.75539" lon="3.80619">
        <ele>976.32</ele>
        <time>2025-04-15T14:19:14.060Z</time>
      </trkpt>
      <trkpt lat="44.75561" lon="3.80605">
        <ele>976.93</ele>
        <time>2025-04-15T14:19:14.888Z</time>
      </trkpt>
      <trkpt lat="44.75583" lon="3.8059">
        <ele>977.46</ele>
        <time>2025-04-15T14:19:15.720Z</time>
      </trkpt>
      <trkpt lat="44.75605" lon="3.8056">
        <ele>978.02</ele>
        <time>2025-04-15T14:19:16.557Z</time>
      </trkpt>
      <trkpt lat="44.75614" lon="3.80538">
        <ele>978.44</ele>
        <time>2025-04-15T14:19:17.397Z</time>
      </trkpt>
      <trkpt lat="44.75624" lon="3.80515">
        <ele>978.91</ele>
        <time>2025-04-15T14:19:18.240Z</time>
      </trkpt>
      <trkpt lat="44.75628" lon="3.80507">
        <ele>979.25</ele>
        <time>2025-04-15T14:19:19.084Z</time>
      </trkpt>
      <trkpt lat="44.75641" lon="3.80467">
        <ele>979.59</ele>
        <time>2025-04-15T14:19:19.933Z</time>
      </trkpt>
      <trkpt lat="44.75654" lon="3.80427">
        <ele>979.75</ele>
        <time>2025-04-15T14:19:20.787Z</time>
      </trkpt>
      <trkpt lat="44.75656" lon="3.80423">
        <ele>979.83</ele>
        <time>2025-04-15T14:19:21.642Z</time>
      </trkpt>
      <trkpt lat="44.7567" lon="3.80387">
        <ele>979.71</ele>
        <time>2025-04-15T14:19:22.502Z</time>
      </trkpt>
      <trkpt lat="44.75684" lon="3.8035">
        <ele>979.49</ele>
        <time>2025-04-15T14:19:23.366Z</time>
      </trkpt>
      <trkpt lat="44.75698" lon="3.80313">
        <ele>979.3</ele>
        <time>2025-04-15T14:19:24.235Z</time>
      </trkpt>
      <trkpt lat="44.75711" lon="3.80277">
        <ele>979.2</ele>
        <time>2025-04-15T14:19:25.109Z</time>
      </trkpt>
      <trkpt lat="44.75725" lon="3.80241">
        <ele>978.86</ele>
        <time>2025-04-15T14:19:25.988Z</time>
      </trkpt>
      <trkpt lat="44.75749" lon="3.80212">
        <ele>978.6</ele>
        <time>2025-04-15T14:19:26.872Z</time>
      </trkpt>
      <trkpt lat="44.75772" lon="3.80183">
        <ele>978.18</ele>
        <time>2025-04-15T14:19:27.761Z</time>
      </trkpt>
      <trkpt lat="44.75785" lon="3.80157">
        <ele>977.74</ele>
        <time>2025-04-15T14:19:28.653Z</time>
      </trkpt>
      <trkpt lat="44.75792" lon="3.80136">
        <ele>977.35</ele>
        <time>2025-04-15T14:19:29.548Z</time>
      </trkpt>
      <trkpt lat="44.75798" lon="3.80114">
        <ele>976.95</ele>
        <time>2025-04-15T14:19:30.445Z</time>
      </trkpt>
      <trkpt lat="44.75801" lon="3.80085">
        <ele>976.4</ele>
        <time>2025-04-15T14:19:31.346Z</time>
      </trkpt>
      <trkpt lat="44.75804" lon="3.80055">
        <ele>975.93</ele>
        <time>2025-04-15T14:19:32.250Z</time>
      </trkpt>
      <trkpt lat="44.75807" lon="3.80026">
        <ele>975.45</ele>
        <time>2025-04-15T14:19:33.158Z</time>
      </trkpt>
      <trkpt lat="44.75811" lon="3.80009">
        <ele>975</ele>
        <time>2025-04-15T14:19:34.068Z</time>
      </trkpt>
      <trkpt lat="44.75828" lon="3.79981">
        <ele>974.56</ele>
        <time>2025-04-15T14:19:34.982Z</time>
      </trkpt>
      <trkpt lat="44.75845" lon="3.79953">
        <ele>974.1</ele>
        <time>2025-04-15T14:19:35.900Z</time>
      </trkpt>
      <trkpt lat="44.75862" lon="3.79925">
        <ele>973.53</ele>
        <time>2025-04-15T14:19:36.822Z</time>
      </trkpt>
      <trkpt lat="44.75869" lon="3.79905">
        <ele>972.91</ele>
        <time>2025-04-15T14:19:37.747Z</time>
      </trkpt>
      <trkpt lat="44.75875" lon="3.79885">
        <ele>972.33</ele>
        <time>2025-04-15T14:19:38.674Z</time>
      </trkpt>
      <trkpt lat="44.75882" lon="3.79846">
        <ele>971.82</ele>
        <time>2025-04-15T14:19:39.606Z</time>
      </trkpt>
      <trkpt lat="44.75882" lon="3.79824">
        <ele>971.28</ele>
        <time>2025-04-15T14:19:40.540Z</time>
      </trkpt>
      <trkpt lat="44.75878" lon="3.79794">
        <ele>970.61</ele>
        <time>2025-04-15T14:19:41.478Z</time>
      </trkpt>
      <trkpt lat="44.75874" lon="3.79764">
        <ele>969.93</ele>
        <time>2025-04-15T14:19:42.419Z</time>
      </trkpt>
      <trkpt lat="44.75871" lon="3.79734">
        <ele>969.28</ele>
        <time>2025-04-15T14:19:43.364Z</time>
      </trkpt>
      <trkpt lat="44.75869" lon="3.79696">
        <ele>968.77</ele>
        <time>2025-04-15T14:19:44.313Z</time>
      </trkpt>
      <trkpt lat="44.75869" lon="3.79657">
        <ele>968.34</ele>
        <time>2025-04-15T14:19:45.267Z</time>
      </trkpt>
      <trkpt lat="44.75875" lon="3.79625">
        <ele>967.98</ele>
        <time>2025-04-15T14:19:46.224Z</time>
      </trkpt>
      <trkpt lat="44.75884" lon="3.79594">
        <ele>967.73</ele>
        <time>2025-04-15T14:19:47.185Z</time>
      </trkpt>
      <trkpt lat="44.75892" lon="3.79563">
        <ele>967.53</ele>
        <time>2025-04-15T14:19:48.150Z</time>
      </trkpt>
      <trkpt lat="44.75905" lon="3.79537">
        <ele>967.52</ele>
        <time>2025-04-15T14:19:49.119Z</time>
      </trkpt>
      <trkpt lat="44.75918" lon="3.79511">
        <ele>967.54</ele>
        <time>2025-04-15T14:19:50.091Z</time>
      </trkpt>
      <trkpt lat="44.75931" lon="3.79494">
        <ele>967.71</ele>
        <time>2025-04-15T14:19:51.066Z</time>
      </trkpt>
      <trkpt lat="44.75944" lon="3.79477">
        <ele>967.98</ele>
        <time>2025-04-15T14:19:52.044Z</time>
      </trkpt>
      <trkpt lat="44.75962" lon="3.79461">
        <ele>968.35</ele>
        <time>2025-04-15T14:19:53.025Z</time>
      </trkpt>
      <trkpt lat="44.75981" lon="3.79445">
        <ele>968.81</ele>
        <time>2025-04-15T14:19:54.010Z</time>
      </trkpt>
      <trkpt lat="44.76" lon="3.7943">
        <ele>969.45</ele>
        <time>2025-04-15T14:19:54.998Z</time>
      </trkpt>
      <trkpt lat="44.76015" lon="3.7941">
        <ele>970.15</ele>
        <time>2025-04-15T14:19:55.989Z</time>
      </trkpt>
      <trkpt lat="44.7603" lon="3.79391">
        <ele>970.98</ele>
        <time>2025-04-15T14:19:56.984Z</time>
      </trkpt>
      <trkpt lat="44.76038" lon="3.7937">
        <ele>971.78</ele>
        <time>2025-04-15T14:19:57.982Z</time>
      </trkpt>
      <trkpt lat="44.76047" lon="3.79348">
        <ele>972.77</ele>
        <time>2025-04-15T14:19:58.982Z</time>
      </trkpt>
      <trkpt lat="44.76056" lon="3.79307">
        <ele>973.75</ele>
        <time>2025-04-15T14:19:59.987Z</time>
      </trkpt>
      <trkpt lat="44.76065" lon="3.79266">
        <ele>974.96</ele>
        <time>2025-04-15T14:20:00.997Z</time>
      </trkpt>
      <trkpt lat="44.76075" lon="3.79226">
        <ele>976.19</ele>
        <time>2025-04-15T14:20:02.012Z</time>
      </trkpt>
      <trkpt lat="44.76081" lon="3.79228">
        <ele>977.6</ele>
        <time>2025-04-15T14:20:03.028Z</time>
      </trkpt>
      <trkpt lat="44.76088" lon="3.79219">
        <ele>979</ele>
        <time>2025-04-15T14:20:04.045Z</time>
      </trkpt>
      <trkpt lat="44.76098" lon="3.79202">
        <ele>980.48</ele>
        <time>2025-04-15T14:20:05.065Z</time>
      </trkpt>
      <trkpt lat="44.76111" lon="3.79163">
        <ele>981.9</ele>
        <time>2025-04-15T14:20:06.090Z</time>
      </trkpt>
      <trkpt lat="44.76124" lon="3.79125">
        <ele>983.34</ele>
        <time>2025-04-15T14:20:07.120Z</time>
      </trkpt>
      <trkpt lat="44.76137" lon="3.79109">
        <ele>984.94</ele>
        <time>2025-04-15T14:20:08.153Z</time>
      </trkpt>
      <trkpt lat="44.7615" lon="3.79093">
        <ele>986.64</ele>
        <time>2025-04-15T14:20:09.188Z</time>
      </trkpt>
      <trkpt lat="44.76175" lon="3.79072">
        <ele>988.51</ele>
        <time>2025-04-15T14:20:10.228Z</time>
      </trkpt>
      <trkpt lat="44.762" lon="3.79052">
        <ele>990.42</ele>
        <time>2025-04-15T14:20:11.273Z</time>
      </trkpt>
      <trkpt lat="44.76225" lon="3.79031">
        <ele>992.24</ele>
        <time>2025-04-15T14:20:12.322Z</time>
      </trkpt>
      <trkpt lat="44.76249" lon="3.7901">
        <ele>994.22</ele>
        <time>2025-04-15T14:20:13.376Z</time>
      </trkpt>
      <trkpt lat="44.76274" lon="3.7899">
        <ele>996.31</ele>
        <time>2025-04-15T14:20:14.434Z</time>
      </trkpt>
      <trkpt lat="44.76281" lon="3.78977">
        <ele>998.17</ele>
        <time>2025-04-15T14:20:15.494Z</time>
      </trkpt>
      <trkpt lat="44.76293" lon="3.7894">
        <ele>1000.19</ele>
        <time>2025-04-15T14:20:16.559Z</time>
      </trkpt>
      <trkpt lat="44.76306" lon="3.78904">
        <ele>1002.17</ele>
        <time>2025-04-15T14:20:17.628Z</time>
      </trkpt>
      <trkpt lat="44.76318" lon="3.78867">
        <ele>1004.09</ele>
        <time>2025-04-15T14:20:18.702Z</time>
      </trkpt>
      <trkpt lat="44.76331" lon="3.78831">
        <ele>1005.94</ele>
        <time>2025-04-15T14:20:19.781Z</time>
      </trkpt>
      <trkpt lat="44.76343" lon="3.78794">
        <ele>1007.92</ele>
        <time>2025-04-15T14:20:20.864Z</time>
      </trkpt>
      <trkpt lat="44.76359" lon="3.78764">
        <ele>1010</ele>
        <time>2025-04-15T14:20:21.952Z</time>
      </trkpt>
      <trkpt lat="44.76375" lon="3.78734">
        <ele>1012.03</ele>
        <time>2025-04-15T14:20:23.044Z</time>
      </trkpt>
      <trkpt lat="44.76397" lon="3.78708">
        <ele>1014.07</ele>
        <time>2025-04-15T14:20:24.141Z</time>
      </trkpt>
      <trkpt lat="44.76419" lon="3.78681">
        <ele>1016.13</ele>
        <time>2025-04-15T14:20:25.242Z</time>
      </trkpt>
      <trkpt lat="44.76441" lon="3.78655">
        <ele>1018.32</ele>
        <time>2025-04-15T14:20:26.348Z</time>
      </trkpt>
      <trkpt lat="44.76463" lon="3.78628">
        <ele>1020.36</ele>
        <time>2025-04-15T14:20:27.458Z</time>
      </trkpt>
      <trkpt lat="44.76485" lon="3.78601">
        <ele>1022.24</ele>
        <time>2025-04-15T14:20:28.573Z</time>
      </trkpt>
      <trkpt lat="44.76502" lon="3.78574">
        <ele>1024.13</ele>
        <time>2025-04-15T14:20:29.692Z</time>
      </trkpt>
      <trkpt lat="44.7652" lon="3.78547">
        <ele>1025.95</ele>
        <time>2025-04-15T14:20:30.815Z</time>
      </trkpt>
      <trkpt lat="44.76538" lon="3.7852">
        <ele>1027.74</ele>
        <time>2025-04-15T14:20:31.943Z</time>
      </trkpt>
      <trkpt lat="44.76561" lon="3.78496">
        <ele>1029.62</ele>
        <time>2025-04-15T14:20:33.075Z</time>
      </trkpt>
      <trkpt lat="44.76584" lon="3.78473">
        <ele>1031.33</ele>
        <time>2025-04-15T14:20:34.212Z</time>
      </trkpt>
      <trkpt lat="44.76607" lon="3.78449">
        <ele>1032.94</ele>
        <time>2025-04-15T14:20:35.353Z</time>
      </trkpt>
      <trkpt lat="44.76632" lon="3.7843">
        <ele>1034.56</ele>
        <time>2025-04-15T14:20:36.499Z</time>
      </trkpt>
      <trkpt lat="44.76656" lon="3.7841">
        <ele>1036.07</ele>
        <time>2025-04-15T14:20:37.649Z</time>
      </trkpt>
      <trkpt lat="44.76674" lon="3.78385">
        <ele>1037.38</ele>
        <time>2025-04-15T14:20:38.803Z</time>
      </trkpt>
      <trkpt lat="44.76692" lon="3.78359">
        <ele>1038.57</ele>
        <time>2025-04-15T14:20:39.962Z</time>
      </trkpt>
      <trkpt lat="44.7671" lon="3.78333">
        <ele>1039.68</ele>
        <time>2025-04-15T14:20:41.125Z</time>
      </trkpt>
      <trkpt lat="44.76721" lon="3.78302">
        <ele>1040.59</ele>
        <time>2025-04-15T14:20:42.292Z</time>
      </trkpt>
      <trkpt lat="44.76733" lon="3.78272">
        <ele>1041.34</ele>
        <time>2025-04-15T14:20:43.463Z</time>
      </trkpt>
      <trkpt lat="44.76744" lon="3.78241">
        <ele>1041.88</ele>
        <time>2025-04-15T14:20:44.638Z</time>
      </trkpt>
      <trkpt lat="44.76752" lon="3.78213">
        <ele>1042.33</ele>
        <time>2025-04-15T14:20:45.816Z</time>
      </trkpt>
      <trkpt lat="44.76759" lon="3.78185">
        <ele>1042.76</ele>
        <time>2025-04-15T14:20:46.997Z</time>
      </trkpt>
      <trkpt lat="44.76772" lon="3.78161">
        <ele>1043.1</ele>
        <time>2025-04-15T14:20:48.182Z</time>
      </trkpt>
      <trkpt lat="44.76787" lon="3.78142">
        <ele>1043.26</ele>
        <time>2025-04-15T14:20:49.370Z</time>
      </trkpt>
      <trkpt lat="44.76813" lon="3.78127">
        <ele>1043.22</ele>
        <time>2025-04-15T14:20:50.562Z</time>
      </trkpt>
      <trkpt lat="44.76837" lon="3.78121">
        <ele>1043.09</ele>
        <time>2025-04-15T14:20:51.758Z</time>
      </trkpt>
      <trkpt lat="44.76861" lon="3.78114">
        <ele>1042.89</ele>
        <time>2025-04-15T14:20:52.958Z</time>
      </trkpt>
      <trkpt lat="44.76886" lon="3.78108">
        <ele>1042.4</ele>
        <time>2025-04-15T14:20:54.162Z</time>
      </trkpt>
      <trkpt lat="44.76903" lon="3.78095">
        <ele>1041.8</ele>
        <time>2025-04-15T14:20:55.369Z</time>
      </trkpt>
      <trkpt lat="44.7692" lon="3.78082">
        <ele>1041.09</ele>
        <time>2025-04-15T14:20:56.580Z</time>
      </trkpt>
      <trkpt lat="44.76933" lon="3.78067">
        <ele>1040.29</ele>
        <time>2025-04-15T14:20:57.793Z</time>
      </trkpt>
      <trkpt lat="44.76946" lon="3.78052">
        <ele>1039.4</ele>
        <time>2025-04-15T14:20:59.009Z</time>
      </trkpt>
      <trkpt lat="44.76965" lon="3.78024">
        <ele>1038.4</ele>
        <time>2025-04-15T14:21:00.229Z</time>
      </trkpt>
      <trkpt lat="44.76985" lon="3.77996">
        <ele>1037.28</ele>
        <time>2025-04-15T14:21:01.454Z</time>
      </trkpt>
      <trkpt lat="44.77001" lon="3.77977">
        <ele>1036.19</ele>
        <time>2025-04-15T14:21:02.682Z</time>
      </trkpt>
      <trkpt lat="44.77017" lon="3.77958">
        <ele>1034.97</ele>
        <time>2025-04-15T14:21:03.914Z</time>
      </trkpt>
      <trkpt lat="44.77045" lon="3.77938">
        <ele>1033.6</ele>
        <time>2025-04-15T14:21:05.151Z</time>
      </trkpt>
      <trkpt lat="44.77073" lon="3.77927">
        <ele>1032.08</ele>
        <time>2025-04-15T14:21:06.392Z</time>
      </trkpt>
      <trkpt lat="44.771" lon="3.77915">
        <ele>1030.46</ele>
        <time>2025-04-15T14:21:07.638Z</time>
      </trkpt>
      <trkpt lat="44.77128" lon="3.77904">
        <ele>1028.72</ele>
        <time>2025-04-15T14:21:08.888Z</time>
      </trkpt>
      <trkpt lat="44.77158" lon="3.77896">
        <ele>1027</ele>
        <time>2025-04-15T14:21:10.143Z</time>
      </trkpt>
      <trkpt lat="44.77187" lon="3.77888">
        <ele>1025.3</ele>
        <time>2025-04-15T14:21:11.403Z</time>
      </trkpt>
      <trkpt lat="44.77217" lon="3.7788">
        <ele>1023.55</ele>
        <time>2025-04-15T14:21:12.668Z</time>
      </trkpt>
      <trkpt lat="44.77246" lon="3.77872">
        <ele>1021.84</ele>
        <time>2025-04-15T14:21:13.938Z</time>
      </trkpt>
      <trkpt lat="44.77273" lon="3.77856">
        <ele>1020.04</ele>
        <time>2025-04-15T14:21:15.212Z</time>
      </trkpt>
      <trkpt lat="44.77299" lon="3.7784">
        <ele>1018.24</ele>
        <time>2025-04-15T14:21:16.491Z</time>
      </trkpt>
      <trkpt lat="44.77326" lon="3.77825">
        <ele>1016.41</ele>
        <time>2025-04-15T14:21:17.775Z</time>
      </trkpt>
      <trkpt lat="44.77343" lon="3.77822">
        <ele>1014.64</ele>
        <time>2025-04-15T14:21:19.061Z</time>
      </trkpt>
      <trkpt lat="44.77343" lon="3.77822">
        <ele>1012.89</ele>
        <time>2025-04-15T14:21:20.347Z</time>
      </trkpt>
      <trkpt lat="44.77366" lon="3.77833">
        <ele>1011.1</ele>
        <time>2025-04-15T14:21:21.637Z</time>
      </trkpt>
      <trkpt lat="44.7739" lon="3.7785">
        <ele>1009.27</ele>
        <time>2025-04-15T14:21:22.931Z</time>
      </trkpt>
      <trkpt lat="44.77413" lon="3.77866">
        <ele>1007.43</ele>
        <time>2025-04-15T14:21:24.230Z</time>
      </trkpt>
      <trkpt lat="44.77436" lon="3.77883">
        <ele>1005.6</ele>
        <time>2025-04-15T14:21:25.533Z</time>
      </trkpt>
      <trkpt lat="44.77459" lon="3.779">
        <ele>1003.79</ele>
        <time>2025-04-15T14:21:26.840Z</time>
      </trkpt>
      <trkpt lat="44.7748" lon="3.7793">
        <ele>1001.97</ele>
        <time>2025-04-15T14:21:28.152Z</time>
      </trkpt>
      <trkpt lat="44.7749" lon="3.77957">
        <ele>1000.21</ele>
        <time>2025-04-15T14:21:29.467Z</time>
      </trkpt>
      <trkpt lat="44.775" lon="3.77983">
        <ele>998.51</ele>
        <time>2025-04-15T14:21:30.786Z</time>
      </trkpt>
      <trkpt lat="44.7751" lon="3.78003">
        <ele>996.93</ele>
        <time>2025-04-15T14:21:32.107Z</time>
      </trkpt>
      <trkpt lat="44.77521" lon="3.78022">
        <ele>995.43</ele>
        <time>2025-04-15T14:21:33.431Z</time>
      </trkpt>
      <trkpt lat="44.7754" lon="3.78051">
        <ele>993.94</ele>
        <time>2025-04-15T14:21:34.760Z</time>
      </trkpt>
      <trkpt lat="44.7756" lon="3.7808">
        <ele>992.46</ele>
        <time>2025-04-15T14:21:36.093Z</time>
      </trkpt>
      <trkpt lat="44.77575" lon="3.78099">
        <ele>991.07</ele>
        <time>2025-04-15T14:21:37.429Z</time>
      </trkpt>
      <trkpt lat="44.7759" lon="3.78119">
        <ele>989.77</ele>
        <time>2025-04-15T14:21:38.769Z</time>
      </trkpt>
      <trkpt lat="44.77609" lon="3.78129">
        <ele>988.52</ele>
        <time>2025-04-15T14:21:40.112Z</time>
      </trkpt>
      <trkpt lat="44.77624" lon="3.78129">
        <ele>987.39</ele>
        <time>2025-04-15T14:21:41.457Z</time>
      </trkpt>
      <trkpt lat="44.77643" lon="3.78121">
        <ele>986.31</ele>
        <time>2025-04-15T14:21:42.806Z</time>
      </trkpt>
      <trkpt lat="44.77667" lon="3.78096">
        <ele>985.27</ele>
        <time>2025-04-15T14:21:44.159Z</time>
      </trkpt>
      <trkpt lat="44.77691" lon="3.78071">
        <ele>984.33</ele>
        <time>2025-04-15T14:21:45.517Z</time>
      </trkpt>
      <trkpt lat="44.7771" lon="3.78039">
        <ele>983.49</ele>
        <time>2025-04-15T14:21:46.880Z</time>
      </trkpt>
      <trkpt lat="44.77718" lon="3.78031">
        <ele>982.74</ele>
        <time>2025-04-15T14:21:48.245Z</time>
      </trkpt>
      <trkpt lat="44.77733" lon="3.78028">
        <ele>982.01</ele>
        <time>2025-04-15T14:21:49.612Z</time>
      </trkpt>
      <trkpt lat="44.77748" lon="3.78039">
        <ele>981.31</ele>
        <time>2025-04-15T14:21:50.982Z</time>
      </trkpt>
      <trkpt lat="44.77771" lon="3.78061">
        <ele>980.59</ele>
        <time>2025-04-15T14:21:52.356Z</time>
      </trkpt>
      <trkpt lat="44.77794" lon="3.78084">
        <ele>980.01</ele>
        <time>2025-04-15T14:21:53.735Z</time>
      </trkpt>
      <trkpt lat="44.77817" lon="3.78106">
        <ele>979.57</ele>
        <time>2025-04-15T14:21:55.118Z</time>
      </trkpt>
      <trkpt lat="44.7783" lon="3.78124">
        <ele>979.17</ele>
        <time>2025-04-15T14:21:56.504Z</time>
      </trkpt>
      <trkpt lat="44.77843" lon="3.78142">
        <ele>978.82</ele>
        <time>2025-04-15T14:21:57.893Z</time>
      </trkpt>
      <trkpt lat="44.77856" lon="3.78155">
        <ele>978.51</ele>
        <time>2025-04-15T14:21:59.284Z</time>
      </trkpt>
      <trkpt lat="44.77875" lon="3.78164">
        <ele>978.25</ele>
        <time>2025-04-15T14:22:00.679Z</time>
      </trkpt>
      <trkpt lat="44.77892" lon="3.78164">
        <ele>978.02</ele>
        <time>2025-04-15T14:22:02.076Z</time>
      </trkpt>
      <trkpt lat="44.77922" lon="3.78157">
        <ele>977.81</ele>
        <time>2025-04-15T14:22:03.478Z</time>
      </trkpt>
      <trkpt lat="44.77937" lon="3.78153">
        <ele>977.6</ele>
        <time>2025-04-15T14:22:04.883Z</time>
      </trkpt>
      <trkpt lat="44.77948" lon="3.78151">
        <ele>977.38</ele>
        <time>2025-04-15T14:22:06.289Z</time>
      </trkpt>
      <trkpt lat="44.77969" lon="3.78159">
        <ele>977.16</ele>
        <time>2025-04-15T14:22:07.699Z</time>
      </trkpt>
      <trkpt lat="44.77993" lon="3.78164">
        <ele>976.93</ele>
        <time>2025-04-15T14:22:09.113Z</time>
      </trkpt>
      <trkpt lat="44.78011" lon="3.78159">
        <ele>976.68</ele>
        <time>2025-04-15T14:22:10.530Z</time>
      </trkpt>
      <trkpt lat="44.7803" lon="3.78155">
        <ele>976.38</ele>
        <time>2025-04-15T14:22:11.950Z</time>
      </trkpt>
      <trkpt lat="44.78047" lon="3.78157">
        <ele>975.98</ele>
        <time>2025-04-15T14:22:13.372Z</time>
      </trkpt>
      <trkpt lat="44.78069" lon="3.78181">
        <ele>975.4</ele>
        <time>2025-04-15T14:22:14.799Z</time>
      </trkpt>
      <trkpt lat="44.78092" lon="3.78204">
        <ele>974.93</ele>
        <time>2025-04-15T14:22:16.230Z</time>
      </trkpt>
      <trkpt lat="44.78112" lon="3.78215">
        <ele>974.48</ele>
        <time>2025-04-15T14:22:17.665Z</time>
      </trkpt>
      <trkpt lat="44.78133" lon="3.78226">
        <ele>973.97</ele>
        <time>2025-04-15T14:22:19.103Z</time>
      </trkpt>
      <trkpt lat="44.78148" lon="3.78243">
        <ele>973.35</ele>
        <time>2025-04-15T14:22:20.545Z</time>
      </trkpt>
      <trkpt lat="44.78163" lon="3.7826">
        <ele>972.66</ele>
        <time>2025-04-15T14:22:21.990Z</time>
      </trkpt>
      <trkpt lat="44.78179" lon="3.78275">
        <ele>971.93</ele>
        <time>2025-04-15T14:22:23.438Z</time>
      </trkpt>
      <trkpt lat="44.78195" lon="3.7829">
        <ele>971.15</ele>
        <time>2025-04-15T14:22:24.889Z</time>
      </trkpt>
      <trkpt lat="44.78223" lon="3.78306">
        <ele>970.34</ele>
        <time>2025-04-15T14:22:26.345Z</time>
      </trkpt>
      <trkpt lat="44.78251" lon="3.78322">
        <ele>969.57</ele>
        <time>2025-04-15T14:22:27.805Z</time>
      </trkpt>
      <trkpt lat="44.78278" lon="3.78338">
        <ele>968.7</ele>
        <time>2025-04-15T14:22:29.270Z</time>
      </trkpt>
      <trkpt lat="44.78306" lon="3.78355">
        <ele>967.86</ele>
        <time>2025-04-15T14:22:30.740Z</time>
      </trkpt>
      <trkpt lat="44.7833" lon="3.78361">
        <ele>967.09</ele>
        <time>2025-04-15T14:22:32.214Z</time>
      </trkpt>
      <trkpt lat="44.78354" lon="3.78367">
        <ele>966.34</ele>
        <time>2025-04-15T14:22:33.692Z</time>
      </trkpt>
      <trkpt lat="44.78375" lon="3.78378">
        <ele>965.52</ele>
        <time>2025-04-15T14:22:35.173Z</time>
      </trkpt>
      <trkpt lat="44.78392" lon="3.78392">
        <ele>964.59</ele>
        <time>2025-04-15T14:22:36.658Z</time>
      </trkpt>
      <trkpt lat="44.78409" lon="3.78406">
        <ele>963.55</ele>
        <time>2025-04-15T14:22:38.146Z</time>
      </trkpt>
      <trkpt lat="44.78432" lon="3.78418">
        <ele>962.41</ele>
        <time>2025-04-15T14:22:39.638Z</time>
      </trkpt>
      <trkpt lat="44.78454" lon="3.7843">
        <ele>961.28</ele>
        <time>2025-04-15T14:22:41.134Z</time>
      </trkpt>
      <trkpt lat="44.78478" lon="3.78433">
        <ele>960.26</ele>
        <time>2025-04-15T14:22:42.633Z</time>
      </trkpt>
      <trkpt lat="44.78502" lon="3.78436">
        <ele>959.17</ele>
        <time>2025-04-15T14:22:44.136Z</time>
      </trkpt>
      <trkpt lat="44.78514" lon="3.78451">
        <ele>958.07</ele>
        <time>2025-04-15T14:22:45.642Z</time>
      </trkpt>
      <trkpt lat="44.78527" lon="3.78466">
        <ele>956.88</ele>
        <time>2025-04-15T14:22:47.150Z</time>
      </trkpt>
      <trkpt lat="44.78547" lon="3.7847">
        <ele>955.66</ele>
        <time>2025-04-15T14:22:48.662Z</time>
      </trkpt>
      <trkpt lat="44.78566" lon="3.78468">
        <ele>954.45</ele>
        <time>2025-04-15T14:22:50.177Z</time>
      </trkpt>
      <trkpt lat="44.78583" lon="3.78458">
        <ele>953.2</ele>
        <time>2025-04-15T14:22:51.695Z</time>
      </trkpt>
      <trkpt lat="44.786" lon="3.78447">
        <ele>951.87</ele>
        <time>2025-04-15T14:22:53.216Z</time>
      </trkpt>
      <trkpt lat="44.78615" lon="3.78443">
        <ele>950.48</ele>
        <time>2025-04-15T14:22:54.739Z</time>
      </trkpt>
      <trkpt lat="44.78639" lon="3.78447">
        <ele>948.97</ele>
        <time>2025-04-15T14:22:56.266Z</time>
      </trkpt>
      <trkpt lat="44.7866" lon="3.7846">
        <ele>947.5</ele>
        <time>2025-04-15T14:22:57.797Z</time>
      </trkpt>
      <trkpt lat="44.78682" lon="3.78473">
        <ele>946.05</ele>
        <time>2025-04-15T14:22:59.331Z</time>
      </trkpt>
      <trkpt lat="44.78711" lon="3.7848">
        <ele>944.57</ele>
        <time>2025-04-15T14:23:00.870Z</time>
      </trkpt>
      <trkpt lat="44.7874" lon="3.78488">
        <ele>943.1</ele>
        <time>2025-04-15T14:23:02.414Z</time>
      </trkpt>
      <trkpt lat="44.78766" lon="3.78491">
        <ele>941.62</ele>
        <time>2025-04-15T14:23:03.962Z</time>
      </trkpt>
      <trkpt lat="44.78793" lon="3.78494">
        <ele>940.2</ele>
        <time>2025-04-15T14:23:05.514Z</time>
      </trkpt>
      <trkpt lat="44.7882" lon="3.78497">
        <ele>938.76</ele>
        <time>2025-04-15T14:23:07.071Z</time>
      </trkpt>
      <trkpt lat="44.78846" lon="3.785">
        <ele>937.43</ele>
        <time>2025-04-15T14:23:08.632Z</time>
      </trkpt>
      <trkpt lat="44.78873" lon="3.78503">
        <ele>936.2</ele>
        <time>2025-04-15T14:23:10.197Z</time>
      </trkpt>
      <trkpt lat="44.78899" lon="3.78496">
        <ele>935.12</ele>
        <time>2025-04-15T14:23:11.766Z</time>
      </trkpt>
      <trkpt lat="44.7892" lon="3.7847">
        <ele>934.03</ele>
        <time>2025-04-15T14:23:13.340Z</time>
      </trkpt>
      <trkpt lat="44.78941" lon="3.78445">
        <ele>933.05</ele>
        <time>2025-04-15T14:23:14.918Z</time>
      </trkpt>
      <trkpt lat="44.78965" lon="3.78432">
        <ele>932.25</ele>
        <time>2025-04-15T14:23:16.501Z</time>
      </trkpt>
      <trkpt lat="44.78981" lon="3.78432">
        <ele>931.38</ele>
        <time>2025-04-15T14:23:18.086Z</time>
      </trkpt>
      <trkpt lat="44.78997" lon="3.78432">
        <ele>930.51</ele>
        <time>2025-04-15T14:23:19.674Z</time>
      </trkpt>
      <trkpt lat="44.79019" lon="3.78438">
        <ele>929.6</ele>
        <time>2025-04-15T14:23:21.265Z</time>
      </trkpt>
      <trkpt lat="44.7904" lon="3.78445">
        <ele>928.65</ele>
        <time>2025-04-15T14:23:22.860Z</time>
      </trkpt>
      <trkpt lat="44.79057" lon="3.78446">
        <ele>927.68</ele>
        <time>2025-04-15T14:23:24.457Z</time>
      </trkpt>
      <trkpt lat="44.79075" lon="3.78447">
        <ele>926.56</ele>
        <time>2025-04-15T14:23:26.057Z</time>
      </trkpt>
      <trkpt lat="44.79093" lon="3.78443">
        <ele>925.39</ele>
        <time>2025-04-15T14:23:27.660Z</time>
      </trkpt>
      <trkpt lat="44.79111" lon="3.78438">
        <ele>924.14</ele>
        <time>2025-04-15T14:23:29.266Z</time>
      </trkpt>
      <trkpt lat="44.79132" lon="3.78428">
        <ele>922.8</ele>
        <time>2025-04-15T14:23:30.876Z</time>
      </trkpt>
      <trkpt lat="44.79151" lon="3.78415">
        <ele>921.43</ele>
        <time>2025-04-15T14:23:32.489Z</time>
      </trkpt>
      <trkpt lat="44.79169" lon="3.78402">
        <ele>919.91</ele>
        <time>2025-04-15T14:23:34.105Z</time>
      </trkpt>
      <trkpt lat="44.79191" lon="3.78395">
        <ele>918.29</ele>
        <time>2025-04-15T14:23:35.725Z</time>
      </trkpt>
      <trkpt lat="44.79214" lon="3.78389">
        <ele>916.7</ele>
        <time>2025-04-15T14:23:37.349Z</time>
      </trkpt>
      <trkpt lat="44.79233" lon="3.78378">
        <ele>915.11</ele>
        <time>2025-04-15T14:23:38.976Z</time>
      </trkpt>
      <trkpt lat="44.79246" lon="3.78353">
        <ele>913.52</ele>
        <time>2025-04-15T14:23:40.606Z</time>
      </trkpt>
      <trkpt lat="44.79259" lon="3.78329">
        <ele>911.83</ele>
        <time>2025-04-15T14:23:42.240Z</time>
      </trkpt>
      <trkpt lat="44.79281" lon="3.78312">
        <ele>909.94</ele>
        <time>2025-04-15T14:23:43.878Z</time>
      </trkpt>
      <trkpt lat="44.79296" lon="3.78303">
        <ele>907.97</ele>
        <time>2025-04-15T14:23:45.518Z</time>
      </trkpt>
      <trkpt lat="44.79311" lon="3.78295">
        <ele>905.97</ele>
        <time>2025-04-15T14:23:47.161Z</time>
      </trkpt>
      <trkpt lat="44.79334" lon="3.78279">
        <ele>903.86</ele>
        <time>2025-04-15T14:23:48.808Z</time>
      </trkpt>
      <trkpt lat="44.79352" lon="3.78261">
        <ele>901.99</ele>
        <time>2025-04-15T14:23:50.459Z</time>
      </trkpt>
      <trkpt lat="44.79371" lon="3.78243">
        <ele>900.1</ele>
        <time>2025-04-15T14:23:52.113Z</time>
      </trkpt>
      <trkpt lat="44.7938" lon="3.78223">
        <ele>898.21</ele>
        <time>2025-04-15T14:23:53.770Z</time>
      </trkpt>
      <trkpt lat="44.7939" lon="3.78202">
        <ele>896.28</ele>
        <time>2025-04-15T14:23:55.430Z</time>
      </trkpt>
      <trkpt lat="44.79396" lon="3.78164">
        <ele>894.3</ele>
        <time>2025-04-15T14:23:57.094Z</time>
      </trkpt>
      <trkpt lat="44.79392" lon="3.78134">
        <ele>892.46</ele>
        <time>2025-04-15T14:23:58.762Z</time>
      </trkpt>
      <trkpt lat="44.79368" lon="3.7811">
        <ele>890.86</ele>
        <time>2025-04-15T14:24:00.435Z</time>
      </trkpt>
      <trkpt lat="44.79341" lon="3.78095">
        <ele>889.19</ele>
        <time>2025-04-15T14:24:02.112Z</time>
      </trkpt>
      <trkpt lat="44.79332" lon="3.78078">
        <ele>887.53</ele>
        <time>2025-04-15T14:24:03.792Z</time>
      </trkpt>
      <trkpt lat="44.79336" lon="3.78067">
        <ele>885.93</ele>
        <time>2025-04-15T14:24:05.473Z</time>
      </trkpt>
      <trkpt lat="44.79345" lon="3.78067">
        <ele>884.34</ele>
        <time>2025-04-15T14:24:07.156Z</time>
      </trkpt>
      <trkpt lat="44.79366" lon="3.78093">
        <ele>882.71</ele>
        <time>2025-04-15T14:24:08.843Z</time>
      </trkpt>
      <trkpt lat="44.79392" lon="3.78097">
        <ele>880.95</ele>
        <time>2025-04-15T14:24:10.534Z</time>
      </trkpt>
      <trkpt lat="44.79417" lon="3.78091">
        <ele>879.23</ele>
        <time>2025-04-15T14:24:12.229Z</time>
      </trkpt>
      <trkpt lat="44.79441" lon="3.78084">
        <ele>877.42</ele>
        <time>2025-04-15T14:24:13.928Z</time>
      </trkpt>
      <trkpt lat="44.79454" lon="3.78086">
        <ele>875.75</ele>
        <time>2025-04-15T14:24:15.629Z</time>
      </trkpt>
      <trkpt lat="44.79461" lon="3.78093">
        <ele>874.14</ele>
        <time>2025-04-15T14:24:17.332Z</time>
      </trkpt>
      <trkpt lat="44.79461" lon="3.78115">
        <ele>872.79</ele>
        <time>2025-04-15T14:24:19.037Z</time>
      </trkpt>
      <trkpt lat="44.79461" lon="3.78138">
        <ele>871.5</ele>
        <time>2025-04-15T14:24:20.745Z</time>
      </trkpt>
      <trkpt lat="44.79467" lon="3.78167">
        <ele>870.05</ele>
        <time>2025-04-15T14:24:22.456Z</time>
      </trkpt>
      <trkpt lat="44.79474" lon="3.78196">
        <ele>868.59</ele>
        <time>2025-04-15T14:24:24.171Z</time>
      </trkpt>
      <trkpt lat="44.79477" lon="3.78225">
        <ele>867.19</ele>
        <time>2025-04-15T14:24:25.889Z</time>
      </trkpt>
      <trkpt lat="44.7948" lon="3.78254">
        <ele>865.63</ele>
        <time>2025-04-15T14:24:27.610Z</time>
      </trkpt>
      <trkpt lat="44.7948" lon="3.78279">
        <ele>864.04</ele>
        <time>2025-04-15T14:24:29.334Z</time>
      </trkpt>
      <trkpt lat="44.79466" lon="3.78314">
        <ele>862.62</ele>
        <time>2025-04-15T14:24:31.063Z</time>
      </trkpt>
      <trkpt lat="44.79452" lon="3.78348">
        <ele>860.94</ele>
        <time>2025-04-15T14:24:32.796Z</time>
      </trkpt>
      <trkpt lat="44.79438" lon="3.78382">
        <ele>859.01</ele>
        <time>2025-04-15T14:24:34.534Z</time>
      </trkpt>
      <trkpt lat="44.79424" lon="3.78416">
        <ele>857.16</ele>
        <time>2025-04-15T14:24:36.276Z</time>
      </trkpt>
      <trkpt lat="44.7941" lon="3.7845">
        <ele>855.1</ele>
        <time>2025-04-15T14:24:38.023Z</time>
      </trkpt>
      <trkpt lat="44.79396" lon="3.78483">
        <ele>853.15</ele>
        <time>2025-04-15T14:24:39.774Z</time>
      </trkpt>
      <trkpt lat="44.79384" lon="3.78509">
        <ele>851.18</ele>
        <time>2025-04-15T14:24:41.529Z</time>
      </trkpt>
      <trkpt lat="44.79372" lon="3.78535">
        <ele>849.2</ele>
        <time>2025-04-15T14:24:43.287Z</time>
      </trkpt>
      <trkpt lat="44.7936" lon="3.78561">
        <ele>847.21</ele>
        <time>2025-04-15T14:24:45.049Z</time>
      </trkpt>
      <trkpt lat="44.79356" lon="3.78582">
        <ele>845.09</ele>
        <time>2025-04-15T14:24:46.813Z</time>
      </trkpt>
      <trkpt lat="44.79351" lon="3.78604">
        <ele>843.14</ele>
        <time>2025-04-15T14:24:48.580Z</time>
      </trkpt>
      <trkpt lat="44.79346" lon="3.78635">
        <ele>841.48</ele>
        <time>2025-04-15T14:24:50.350Z</time>
      </trkpt>
      <trkpt lat="44.79341" lon="3.78666">
        <ele>839.67</ele>
        <time>2025-04-15T14:24:52.124Z</time>
      </trkpt>
      <trkpt lat="44.79332" lon="3.78683">
        <ele>837.88</ele>
        <time>2025-04-15T14:24:53.900Z</time>
      </trkpt>
      <trkpt lat="44.79319" lon="3.78699">
        <ele>836.19</ele>
        <time>2025-04-15T14:24:55.679Z</time>
      </trkpt>
      <trkpt lat="44.79306" lon="3.78715">
        <ele>834.81</ele>
        <time>2025-04-15T14:24:57.461Z</time>
      </trkpt>
      <trkpt lat="44.79302" lon="3.7873">
        <ele>833.46</ele>
        <time>2025-04-15T14:24:59.245Z</time>
      </trkpt>
      <trkpt lat="44.79299" lon="3.78755">
        <ele>832.28</ele>
        <time>2025-04-15T14:25:01.032Z</time>
      </trkpt>
      <trkpt lat="44.79296" lon="3.78779">
        <ele>831.53</ele>
        <time>2025-04-15T14:25:02.821Z</time>
      </trkpt>
      <trkpt lat="44.79298" lon="3.7879">
        <ele>830.97</ele>
        <time>2025-04-15T14:25:04.612Z</time>
      </trkpt>
      <trkpt lat="44.79311" lon="3.7881">
        <ele>830.77</ele>
        <time>2025-04-15T14:25:06.406Z</time>
      </trkpt>
      <trkpt lat="44.79321" lon="3.78829">
        <ele>830.78</ele>
        <time>2025-04-15T14:25:08.203Z</time>
      </trkpt>
      <trkpt lat="44.79328" lon="3.78842">
        <ele>830.88</ele>
        <time>2025-04-15T14:25:10.001Z</time>
      </trkpt>
      <trkpt lat="44.79336" lon="3.78844">
        <ele>831.07</ele>
        <time>2025-04-15T14:25:11.801Z</time>
      </trkpt>
      <trkpt lat="44.79353" lon="3.78831">
        <ele>831.28</ele>
        <time>2025-04-15T14:25:13.604Z</time>
      </trkpt>
      <trkpt lat="44.79371" lon="3.78818">
        <ele>831.6</ele>
        <time>2025-04-15T14:25:15.410Z</time>
      </trkpt>
      <trkpt lat="44.79391" lon="3.78797">
        <ele>832.17</ele>
        <time>2025-04-15T14:25:17.220Z</time>
      </trkpt>
      <trkpt lat="44.79411" lon="3.78775">
        <ele>832.91</ele>
        <time>2025-04-15T14:25:19.034Z</time>
      </trkpt>
      <trkpt lat="44.7942" lon="3.78762">
        <ele>833.61</ele>
        <time>2025-04-15T14:25:20.850Z</time>
      </trkpt>
      <trkpt lat="44.79433" lon="3.78724">
        <ele>834.18</ele>
        <time>2025-04-15T14:25:22.671Z</time>
      </trkpt>
      <trkpt lat="44.79446" lon="3.78685">
        <ele>835.07</ele>
        <time>2025-04-15T14:25:24.497Z</time>
      </trkpt>
      <trkpt lat="44.79452" lon="3.78683">
        <ele>836.12</ele>
        <time>2025-04-15T14:25:26.324Z</time>
      </trkpt>
      <trkpt lat="44.79456" lon="3.78685">
        <ele>837.26</ele>
        <time>2025-04-15T14:25:28.152Z</time>
      </trkpt>
      <trkpt lat="44.79459" lon="3.78696">
        <ele>838.46</ele>
        <time>2025-04-15T14:25:29.981Z</time>
      </trkpt>
      <trkpt lat="44.79456" lon="3.78707">
        <ele>839.49</ele>
        <time>2025-04-15T14:25:31.811Z</time>
      </trkpt>
      <trkpt lat="44.79441" lon="3.78726">
        <ele>840.2</ele>
        <time>2025-04-15T14:25:33.644Z</time>
      </trkpt>
      <trkpt lat="44.79431" lon="3.78764">
        <ele>841.48</ele>
        <time>2025-04-15T14:25:35.482Z</time>
      </trkpt>
      <trkpt lat="44.79417" lon="3.7879">
        <ele>842.49</ele>
        <time>2025-04-15T14:25:37.324Z</time>
      </trkpt>
      <trkpt lat="44.79404" lon="3.78815">
        <ele>843.6</ele>
        <time>2025-04-15T14:25:39.169Z</time>
      </trkpt>
      <trkpt lat="44.7939" lon="3.7884">
        <ele>844.77</ele>
        <time>2025-04-15T14:25:41.018Z</time>
      </trkpt>
      <trkpt lat="44.79366" lon="3.78857">
        <ele>845.66</ele>
        <time>2025-04-15T14:25:42.871Z</time>
      </trkpt>
      <trkpt lat="44.79351" lon="3.78882">
        <ele>846.92</ele>
        <time>2025-04-15T14:25:44.728Z</time>
      </trkpt>
      <trkpt lat="44.79338" lon="3.789">
        <ele>847.94</ele>
        <time>2025-04-15T14:25:46.588Z</time>
      </trkpt>
      <trkpt lat="44.79323" lon="3.78923">
        <ele>849</ele>
        <time>2025-04-15T14:25:48.451Z</time>
      </trkpt>
      <trkpt lat="44.79319" lon="3.78943">
        <ele>850.03</ele>
        <time>2025-04-15T14:25:50.317Z</time>
      </trkpt>
      <trkpt lat="44.7932" lon="3.78977">
        <ele>851.11</ele>
        <time>2025-04-15T14:25:52.187Z</time>
      </trkpt>
      <trkpt lat="44.79321" lon="3.79011">
        <ele>852.08</ele>
        <time>2025-04-15T14:25:54.061Z</time>
      </trkpt>
      <trkpt lat="44.79321" lon="3.79046">
        <ele>853.09</ele>
        <time>2025-04-15T14:25:55.938Z</time>
      </trkpt>
      <trkpt lat="44.79319" lon="3.79065">
        <ele>854.05</ele>
        <time>2025-04-15T14:25:57.818Z</time>
      </trkpt>
      <trkpt lat="44.79311" lon="3.79084">
        <ele>854.93</ele>
        <time>2025-04-15T14:25:59.700Z</time>
      </trkpt>
      <trkpt lat="44.79298" lon="3.79101">
        <ele>855.86</ele>
        <time>2025-04-15T14:26:01.585Z</time>
      </trkpt>
      <trkpt lat="44.79285" lon="3.7911">
        <ele>856.83</ele>
        <time>2025-04-15T14:26:03.472Z</time>
      </trkpt>
      <trkpt lat="44.7927" lon="3.79116">
        <ele>857.87</ele>
        <time>2025-04-15T14:26:05.362Z</time>
      </trkpt>
      <trkpt lat="44.79244" lon="3.79111">
        <ele>858.78</ele>
        <time>2025-04-15T14:26:07.256Z</time>
      </trkpt>
      <trkpt lat="44.79218" lon="3.79106">
        <ele>859.55</ele>
        <time>2025-04-15T14:26:09.154Z</time>
      </trkpt>
      <trkpt lat="44.79188" lon="3.79108">
        <ele>860.46</ele>
        <time>2025-04-15T14:26:11.057Z</time>
      </trkpt>
      <trkpt lat="44.79171" lon="3.79116">
        <ele>861.57</ele>
        <time>2025-04-15T14:26:12.963Z</time>
      </trkpt>
      <trkpt lat="44.79154" lon="3.79134">
        <ele>862.72</ele>
        <time>2025-04-15T14:26:14.872Z</time>
      </trkpt>
      <trkpt lat="44.79145" lon="3.79154">
        <ele>864.18</ele>
        <time>2025-04-15T14:26:16.784Z</time>
      </trkpt>
      <trkpt lat="44.79137" lon="3.79174">
        <ele>865.68</ele>
        <time>2025-04-15T14:26:18.699Z</time>
      </trkpt>
      <trkpt lat="44.79119" lon="3.79188">
        <ele>866.99</ele>
        <time>2025-04-15T14:26:20.617Z</time>
      </trkpt>
      <trkpt lat="44.791" lon="3.79202">
        <ele>868.32</ele>
        <time>2025-04-15T14:26:22.538Z</time>
      </trkpt>
      <trkpt lat="44.79087" lon="3.79226">
        <ele>869.91</ele>
        <time>2025-04-15T14:26:24.463Z</time>
      </trkpt>
      <trkpt lat="44.79076" lon="3.79264">
        <ele>871.63</ele>
        <time>2025-04-15T14:26:26.392Z</time>
      </trkpt>
      <trkpt lat="44.79064" lon="3.79302">
        <ele>873.39</ele>
        <time>2025-04-15T14:26:28.326Z</time>
      </trkpt>
      <trkpt lat="44.79053" lon="3.7934">
        <ele>875.05</ele>
        <time>2025-04-15T14:26:30.265Z</time>
      </trkpt>
      <trkpt lat="44.79036" lon="3.79374">
        <ele>876.83</ele>
        <time>2025-04-15T14:26:32.209Z</time>
      </trkpt>
      <trkpt lat="44.7902" lon="3.79408">
        <ele>878.58</ele>
        <time>2025-04-15T14:26:34.157Z</time>
      </trkpt>
      <trkpt lat="44.79003" lon="3.79443">
        <ele>880.28</ele>
        <time>2025-04-15T14:26:36.110Z</time>
      </trkpt>
      <trkpt lat="44.78987" lon="3.79477">
        <ele>881.95</ele>
        <time>2025-04-15T14:26:38.068Z</time>
      </trkpt>
      <trkpt lat="44.7898" lon="3.79498">
        <ele>883.64</ele>
        <time>2025-04-15T14:26:40.028Z</time>
      </trkpt>
      <trkpt lat="44.78978" lon="3.79533">
        <ele>885.32</ele>
        <time>2025-04-15T14:26:41.992Z</time>
      </trkpt>
      <trkpt lat="44.78978" lon="3.79567">
        <ele>886.91</ele>
        <time>2025-04-15T14:26:43.960Z</time>
      </trkpt>
      <trkpt lat="44.78984" lon="3.79591">
        <ele>888.52</ele>
        <time>2025-04-15T14:26:45.931Z</time>
      </trkpt>
      <trkpt lat="44.78995" lon="3.79606">
        <ele>890.17</ele>
        <time>2025-04-15T14:26:47.905Z</time>
      </trkpt>
      <trkpt lat="44.79008" lon="3.79614">
        <ele>891.84</ele>
        <time>2025-04-15T14:26:49.881Z</time>
      </trkpt>
      <trkpt lat="44.79031" lon="3.79621">
        <ele>893.51</ele>
        <time>2025-04-15T14:26:51.861Z</time>
      </trkpt>
      <trkpt lat="44.79054" lon="3.79628">
        <ele>895.12</ele>
        <time>2025-04-15T14:26:53.844Z</time>
      </trkpt>
      <trkpt lat="44.79077" lon="3.79636">
        <ele>896.66</ele>
        <time>2025-04-15T14:26:55.831Z</time>
      </trkpt>
      <trkpt lat="44.79087" lon="3.7964">
        <ele>898.09</ele>
        <time>2025-04-15T14:26:57.820Z</time>
      </trkpt>
      <trkpt lat="44.79102" lon="3.79651">
        <ele>899.51</ele>
        <time>2025-04-15T14:26:59.812Z</time>
      </trkpt>
      <trkpt lat="44.79113" lon="3.7967">
        <ele>900.88</ele>
        <time>2025-04-15T14:27:01.806Z</time>
      </trkpt>
      <trkpt lat="44.79124" lon="3.79703">
        <ele>902.19</ele>
        <time>2025-04-15T14:27:03.805Z</time>
      </trkpt>
      <trkpt lat="44.79135" lon="3.79737">
        <ele>903.52</ele>
        <time>2025-04-15T14:27:05.808Z</time>
      </trkpt>
      <trkpt lat="44.79145" lon="3.7977">
        <ele>904.8</ele>
        <time>2025-04-15T14:27:07.815Z</time>
      </trkpt>
      <trkpt lat="44.79156" lon="3.79803">
        <ele>906.09</ele>
        <time>2025-04-15T14:27:09.826Z</time>
      </trkpt>
      <trkpt lat="44.79163" lon="3.79827">
        <ele>907.37</ele>
        <time>2025-04-15T14:27:11.840Z</time>
      </trkpt>
      <trkpt lat="44.79173" lon="3.79861">
        <ele>908.74</ele>
        <time>2025-04-15T14:27:13.858Z</time>
      </trkpt>
      <trkpt lat="44.79175" lon="3.7988">
        <ele>910</ele>
        <time>2025-04-15T14:27:15.878Z</time>
      </trkpt>
      <trkpt lat="44.79173" lon="3.7991">
        <ele>911.21</ele>
        <time>2025-04-15T14:27:17.902Z</time>
      </trkpt>
      <trkpt lat="44.79169" lon="3.79942">
        <ele>912.44</ele>
        <time>2025-04-15T14:27:19.930Z</time>
      </trkpt>
      <trkpt lat="44.79162" lon="3.79983">
        <ele>913.64</ele>
        <time>2025-04-15T14:27:21.962Z</time>
      </trkpt>
      <trkpt lat="44.79156" lon="3.80024">
        <ele>914.81</ele>
        <time>2025-04-15T14:27:23.999Z</time>
      </trkpt>
      <trkpt lat="44.79173" lon="3.7999">
        <ele>916.01</ele>
        <time>2025-04-15T14:27:26.041Z</time>
      </trkpt>
      <trkpt lat="44.79193" lon="3.7999">
        <ele>917.32</ele>
        <time>2025-04-15T14:27:28.086Z</time>
      </trkpt>
      <trkpt lat="44.79212" lon="3.7999">
        <ele>918.58</ele>
        <time>2025-04-15T14:27:30.134Z</time>
      </trkpt>
      <trkpt lat="44.7924" lon="3.79979">
        <ele>919.77</ele>
        <time>2025-04-15T14:27:32.187Z</time>
      </trkpt>
      <trkpt lat="44.79257" lon="3.79998">
        <ele>920.89</ele>
        <time>2025-04-15T14:27:34.243Z</time>
      </trkpt>
      <trkpt lat="44.79271" lon="3.80009">
        <ele>922.01</ele>
        <time>2025-04-15T14:27:36.302Z</time>
      </trkpt>
      <trkpt lat="44.79285" lon="3.8002">
        <ele>923.14</ele>
        <time>2025-04-15T14:27:38.363Z</time>
      </trkpt>
      <trkpt lat="44.79294" lon="3.80054">
        <ele>924.36</ele>
        <time>2025-04-15T14:27:40.428Z</time>
      </trkpt>
      <trkpt lat="44.79304" lon="3.80087">
        <ele>925.56</ele>
        <time>2025-04-15T14:27:42.498Z</time>
      </trkpt>
      <trkpt lat="44.79314" lon="3.80121">
        <ele>926.65</ele>
        <time>2025-04-15T14:27:44.572Z</time>
      </trkpt>
      <trkpt lat="44.79323" lon="3.80155">
        <ele>927.81</ele>
        <time>2025-04-15T14:27:46.650Z</time>
      </trkpt>
      <trkpt lat="44.79336" lon="3.80194">
        <ele>929.08</ele>
        <time>2025-04-15T14:27:48.733Z</time>
      </trkpt>
      <trkpt lat="44.79349" lon="3.80234">
        <ele>930.35</ele>
        <time>2025-04-15T14:27:50.821Z</time>
      </trkpt>
      <trkpt lat="44.79362" lon="3.80273">
        <ele>931.6</ele>
        <time>2025-04-15T14:27:52.914Z</time>
      </trkpt>
      <trkpt lat="44.79373" lon="3.80302">
        <ele>932.78</ele>
        <time>2025-04-15T14:27:55.010Z</time>
      </trkpt>
      <trkpt lat="44.79384" lon="3.80331">
        <ele>933.98</ele>
        <time>2025-04-15T14:27:57.110Z</time>
      </trkpt>
      <trkpt lat="44.79394" lon="3.80356">
        <ele>935.18</ele>
        <time>2025-04-15T14:27:59.213Z</time>
      </trkpt>
      <trkpt lat="44.79405" lon="3.8038">
        <ele>936.38</ele>
        <time>2025-04-15T14:28:01.320Z</time>
      </trkpt>
      <trkpt lat="44.7942" lon="3.80395">
        <ele>937.54</ele>
        <time>2025-04-15T14:28:03.430Z</time>
      </trkpt>
      <trkpt lat="44.79446" lon="3.80415">
        <ele>938.75</ele>
        <time>2025-04-15T14:28:05.544Z</time>
      </trkpt>
      <trkpt lat="44.79471" lon="3.80434">
        <ele>939.95</ele>
        <time>2025-04-15T14:28:07.663Z</time>
      </trkpt>
      <trkpt lat="44.79497" lon="3.80453">
        <ele>941.1</ele>
        <time>2025-04-15T14:28:09.787Z</time>
      </trkpt>
      <trkpt lat="44.79517" lon="3.80471">
        <ele>942.16</ele>
        <time>2025-04-15T14:28:11.914Z</time>
      </trkpt>
      <trkpt lat="44.79536" lon="3.80489">
        <ele>943.17</ele>
        <time>2025-04-15T14:28:14.045Z</time>
      </trkpt>
      <trkpt lat="44.79555" lon="3.80507">
        <ele>944.21</ele>
        <time>2025-04-15T14:28:16.180Z</time>
      </trkpt>
      <trkpt lat="44.79581" lon="3.8052">
        <ele>945.23</ele>
        <time>2025-04-15T14:28:18.319Z</time>
      </trkpt>
      <trkpt lat="44.79607" lon="3.80533">
        <ele>946.27</ele>
        <time>2025-04-15T14:28:20.463Z</time>
      </trkpt>
      <trkpt lat="44.79631" lon="3.80539">
        <ele>947.29</ele>
        <time>2025-04-15T14:28:22.610Z</time>
      </trkpt>
      <trkpt lat="44.79655" lon="3.80545">
        <ele>948.29</ele>
        <time>2025-04-15T14:28:24.761Z</time>
      </trkpt>
      <trkpt lat="44.79679" lon="3.80552">
        <ele>949.3</ele>
        <time>2025-04-15T14:28:26.916Z</time>
      </trkpt>
      <trkpt lat="44.79703" lon="3.80558">
        <ele>950.36</ele>
        <time>2025-04-15T14:28:29.075Z</time>
      </trkpt>
      <trkpt lat="44.79726" lon="3.80565">
        <ele>951.45</ele>
        <time>2025-04-15T14:28:31.238Z</time>
      </trkpt>
      <trkpt lat="44.79749" lon="3.80573">
        <ele>952.43</ele>
        <time>2025-04-15T14:28:33.405Z</time>
      </trkpt>
      <trkpt lat="44.79772" lon="3.8058">
        <ele>953.44</ele>
        <time>2025-04-15T14:28:35.576Z</time>
      </trkpt>
      <trkpt lat="44.79789" lon="3.80588">
        <ele>954.5</ele>
        <time>2025-04-15T14:28:37.749Z</time>
      </trkpt>
      <trkpt lat="44.79804" lon="3.8061">
        <ele>955.66</ele>
        <time>2025-04-15T14:28:39.926Z</time>
      </trkpt>
      <trkpt lat="44.79819" lon="3.80636">
        <ele>956.82</ele>
        <time>2025-04-15T14:28:42.107Z</time>
      </trkpt>
      <trkpt lat="44.79829" lon="3.80666">
        <ele>957.88</ele>
        <time>2025-04-15T14:28:44.291Z</time>
      </trkpt>
      <trkpt lat="44.7984" lon="3.80696">
        <ele>958.91</ele>
        <time>2025-04-15T14:28:46.479Z</time>
      </trkpt>
      <trkpt lat="44.7985" lon="3.80726">
        <ele>960</ele>
        <time>2025-04-15T14:28:48.671Z</time>
      </trkpt>
      <trkpt lat="44.7986" lon="3.80756">
        <ele>961.15</ele>
        <time>2025-04-15T14:28:50.867Z</time>
      </trkpt>
      <trkpt lat="44.79868" lon="3.80791">
        <ele>962.29</ele>
        <time>2025-04-15T14:28:53.067Z</time>
      </trkpt>
      <trkpt lat="44.79877" lon="3.80826">
        <ele>963.44</ele>
        <time>2025-04-15T14:28:55.271Z</time>
      </trkpt>
      <trkpt lat="44.79886" lon="3.80861">
        <ele>964.67</ele>
        <time>2025-04-15T14:28:57.479Z</time>
      </trkpt>
      <trkpt lat="44.79894" lon="3.80895">
        <ele>965.95</ele>
        <time>2025-04-15T14:28:59.692Z</time>
      </trkpt>
      <trkpt lat="44.79905" lon="3.80917">
        <ele>967.14</ele>
        <time>2025-04-15T14:29:01.908Z</time>
      </trkpt>
      <trkpt lat="44.79927" lon="3.80947">
        <ele>968.3</ele>
        <time>2025-04-15T14:29:04.129Z</time>
      </trkpt>
      <trkpt lat="44.79949" lon="3.80978">
        <ele>969.47</ele>
        <time>2025-04-15T14:29:06.355Z</time>
      </trkpt>
      <trkpt lat="44.79971" lon="3.81009">
        <ele>970.64</ele>
        <time>2025-04-15T14:29:08.586Z</time>
      </trkpt>
      <trkpt lat="44.79988" lon="3.81036">
        <ele>971.77</ele>
        <time>2025-04-15T14:29:10.821Z</time>
      </trkpt>
      <trkpt lat="44.80004" lon="3.81063">
        <ele>972.98</ele>
        <time>2025-04-15T14:29:13.060Z</time>
      </trkpt>
      <trkpt lat="44.8002" lon="3.81088">
        <ele>974.22</ele>
        <time>2025-04-15T14:29:15.303Z</time>
      </trkpt>
      <trkpt lat="44.80037" lon="3.81113">
        <ele>975.46</ele>
        <time>2025-04-15T14:29:17.549Z</time>
      </trkpt>
      <trkpt lat="44.80054" lon="3.81138">
        <ele>976.72</ele>
        <time>2025-04-15T14:29:19.799Z</time>
      </trkpt>
      <trkpt lat="44.8007" lon="3.81163">
        <ele>977.91</ele>
        <time>2025-04-15T14:29:22.053Z</time>
      </trkpt>
      <trkpt lat="44.80082" lon="3.81198">
        <ele>979</ele>
        <time>2025-04-15T14:29:24.312Z</time>
      </trkpt>
      <trkpt lat="44.80094" lon="3.81232">
        <ele>980.03</ele>
        <time>2025-04-15T14:29:26.575Z</time>
      </trkpt>
      <trkpt lat="44.80094" lon="3.81232">
        <ele>981.04</ele>
        <time>2025-04-15T14:29:28.838Z</time>
      </trkpt>
      <trkpt lat="44.80114" lon="3.81206">
        <ele>982.02</ele>
        <time>2025-04-15T14:29:31.105Z</time>
      </trkpt>
      <trkpt lat="44.80133" lon="3.81179">
        <ele>983</ele>
        <time>2025-04-15T14:29:33.377Z</time>
      </trkpt>
      <trkpt lat="44.80153" lon="3.81153">
        <ele>983.98</ele>
        <time>2025-04-15T14:29:35.653Z</time>
      </trkpt>
      <trkpt lat="44.80173" lon="3.81127">
        <ele>984.94</ele>
        <time>2025-04-15T14:29:37.933Z</time>
      </trkpt>
      <trkpt lat="44.80192" lon="3.81105">
        <ele>985.84</ele>
        <time>2025-04-15T14:29:40.217Z</time>
      </trkpt>
      <trkpt lat="44.8021" lon="3.81083">
        <ele>986.69</ele>
        <time>2025-04-15T14:29:42.505Z</time>
      </trkpt>
      <trkpt lat="44.80229" lon="3.8106">
        <ele>987.55</ele>
        <time>2025-04-15T14:29:44.797Z</time>
      </trkpt>
      <trkpt lat="44.80248" lon="3.81043">
        <ele>988.24</ele>
        <time>2025-04-15T14:29:47.093Z</time>
      </trkpt>
      <trkpt lat="44.80268" lon="3.81026">
        <ele>988.91</ele>
        <time>2025-04-15T14:29:49.392Z</time>
      </trkpt>
      <trkpt lat="44.80292" lon="3.81014">
        <ele>989.63</ele>
        <time>2025-04-15T14:29:51.696Z</time>
      </trkpt>
      <trkpt lat="44.80317" lon="3.81002">
        <ele>990.31</ele>
        <time>2025-04-15T14:29:54.004Z</time>
      </trkpt>
      <trkpt lat="44.80342" lon="3.8099">
        <ele>990.97</ele>
        <time>2025-04-15T14:29:56.316Z</time>
      </trkpt>
      <trkpt lat="44.80367" lon="3.80978">
        <ele>991.57</ele>
        <time>2025-04-15T14:29:58.632Z</time>
      </trkpt>
      <trkpt lat="44.80392" lon="3.80966">
        <ele>992.07</ele>
        <time>2025-04-15T14:30:00.952Z</time>
      </trkpt>
      <trkpt lat="44.80409" lon="3.80948">
        <ele>992.51</ele>
        <time>2025-04-15T14:30:03.276Z</time>
      </trkpt>
      <trkpt lat="44.80426" lon="3.8093">
        <ele>992.87</ele>
        <time>2025-04-15T14:30:05.603Z</time>
      </trkpt>
      <trkpt lat="44.80448" lon="3.80907">
        <ele>993.15</ele>
        <time>2025-04-15T14:30:07.935Z</time>
      </trkpt>
      <trkpt lat="44.80469" lon="3.80884">
        <ele>993.29</ele>
        <time>2025-04-15T14:30:10.271Z</time>
      </trkpt>
      <trkpt lat="44.80491" lon="3.80861">
        <ele>993.4</ele>
        <time>2025-04-15T14:30:12.611Z</time>
      </trkpt>
      <trkpt lat="44.80504" lon="3.80854">
        <ele>993.48</ele>
        <time>2025-04-15T14:30:14.954Z</time>
      </trkpt>
      <trkpt lat="44.80528" lon="3.80852">
        <ele>993.58</ele>
        <time>2025-04-15T14:30:17.300Z</time>
      </trkpt>
      <trkpt lat="44.80552" lon="3.80849">
        <ele>993.55</ele>
        <time>2025-04-15T14:30:19.650Z</time>
      </trkpt>
      <trkpt lat="44.80576" lon="3.80846">
        <ele>993.36</ele>
        <time>2025-04-15T14:30:22.004Z</time>
      </trkpt>
      <trkpt lat="44.806" lon="3.80844">
        <ele>993.1</ele>
        <time>2025-04-15T14:30:24.362Z</time>
      </trkpt>
      <trkpt lat="44.80624" lon="3.80831">
        <ele>992.75</ele>
        <time>2025-04-15T14:30:26.724Z</time>
      </trkpt>
      <trkpt lat="44.80648" lon="3.80807">
        <ele>992.31</ele>
        <time>2025-04-15T14:30:29.091Z</time>
      </trkpt>
      <trkpt lat="44.80672" lon="3.80784">
        <ele>991.74</ele>
        <time>2025-04-15T14:30:31.462Z</time>
      </trkpt>
      <trkpt lat="44.80696" lon="3.8076">
        <ele>991</ele>
        <time>2025-04-15T14:30:33.838Z</time>
      </trkpt>
      <trkpt lat="44.8072" lon="3.80736">
        <ele>990.16</ele>
        <time>2025-04-15T14:30:36.219Z</time>
      </trkpt>
      <trkpt lat="44.80744" lon="3.80713">
        <ele>989.22</ele>
        <time>2025-04-15T14:30:38.604Z</time>
      </trkpt>
      <trkpt lat="44.80768" lon="3.80689">
        <ele>988.29</ele>
        <time>2025-04-15T14:30:40.994Z</time>
      </trkpt>
      <trkpt lat="44.80789" lon="3.80677">
        <ele>987.39</ele>
        <time>2025-04-15T14:30:43.388Z</time>
      </trkpt>
      <trkpt lat="44.8081" lon="3.80666">
        <ele>986.4</ele>
        <time>2025-04-15T14:30:45.786Z</time>
      </trkpt>
      <trkpt lat="44.8083" lon="3.80666">
        <ele>985.52</ele>
        <time>2025-04-15T14:30:48.187Z</time>
      </trkpt>
      <trkpt lat="44.80849" lon="3.80666">
        <ele>984.57</ele>
        <time>2025-04-15T14:30:50.591Z</time>
      </trkpt>
      <trkpt lat="44.80876" lon="3.80683">
        <ele>983.7</ele>
        <time>2025-04-15T14:30:52.999Z</time>
      </trkpt>
      <trkpt lat="44.80902" lon="3.80701">
        <ele>982.92</ele>
        <time>2025-04-15T14:30:55.412Z</time>
      </trkpt>
      <trkpt lat="44.80928" lon="3.80719">
        <ele>982.4</ele>
        <time>2025-04-15T14:30:57.830Z</time>
      </trkpt>
      <trkpt lat="44.80956" lon="3.80727">
        <ele>981.75</ele>
        <time>2025-04-15T14:31:00.252Z</time>
      </trkpt>
      <trkpt lat="44.80984" lon="3.80734">
        <ele>981.2</ele>
        <time>2025-04-15T14:31:02.679Z</time>
      </trkpt>
      <trkpt lat="44.81005" lon="3.80748">
        <ele>980.59</ele>
        <time>2025-04-15T14:31:05.110Z</time>
      </trkpt>
      <trkpt lat="44.81025" lon="3.80762">
        <ele>980.02</ele>
        <time>2025-04-15T14:31:07.544Z</time>
      </trkpt>
      <trkpt lat="44.81045" lon="3.80789">
        <ele>979.69</ele>
        <time>2025-04-15T14:31:09.983Z</time>
      </trkpt>
      <trkpt lat="44.81066" lon="3.80816">
        <ele>979.53</ele>
        <time>2025-04-15T14:31:12.426Z</time>
      </trkpt>
      <trkpt lat="44.81074" lon="3.8082">
        <ele>979.25</ele>
        <time>2025-04-15T14:31:14.871Z</time>
      </trkpt>
      <trkpt lat="44.81085" lon="3.8082">
        <ele>978.97</ele>
        <time>2025-04-15T14:31:17.317Z</time>
      </trkpt>
      <trkpt lat="44.81096" lon="3.80809">
        <ele>978.75</ele>
        <time>2025-04-15T14:31:19.765Z</time>
      </trkpt>
      <trkpt lat="44.81102" lon="3.80796">
        <ele>978.76</ele>
        <time>2025-04-15T14:31:22.215Z</time>
      </trkpt>
      <trkpt lat="44.81102" lon="3.80777">
        <ele>978.96</ele>
        <time>2025-04-15T14:31:24.667Z</time>
      </trkpt>
      <trkpt lat="44.81089" lon="3.80745">
        <ele>979.21</ele>
        <time>2025-04-15T14:31:27.124Z</time>
      </trkpt>
      <trkpt lat="44.81084" lon="3.80723">
        <ele>979.59</ele>
        <time>2025-04-15T14:31:29.583Z</time>
      </trkpt>
      <trkpt lat="44.81079" lon="3.80702">
        <ele>980.1</ele>
        <time>2025-04-15T14:31:32.045Z</time>
      </trkpt>
      <trkpt lat="44.81072" lon="3.80664">
        <ele>980.81</ele>
        <time>2025-04-15T14:31:34.511Z</time>
      </trkpt>
      <trkpt lat="44.81066" lon="3.80626">
        <ele>981.65</ele>
        <time>2025-04-15T14:31:36.982Z</time>
      </trkpt>
      <trkpt lat="44.81059" lon="3.80588">
        <ele>982.5</ele>
        <time>2025-04-15T14:31:39.457Z</time>
      </trkpt>
      <trkpt lat="44.81044" lon="3.80551">
        <ele>983.41</ele>
        <time>2025-04-15T14:31:41.937Z</time>
      </trkpt>
      <trkpt lat="44.81029" lon="3.80513">
        <ele>984.36</ele>
        <time>2025-04-15T14:31:44.422Z</time>
      </trkpt>
      <trkpt lat="44.8101" lon="3.80487">
        <ele>985.29</ele>
        <time>2025-04-15T14:31:46.911Z</time>
      </trkpt>
      <trkpt lat="44.80991" lon="3.80462">
        <ele>986.4</ele>
        <time>2025-04-15T14:31:49.404Z</time>
      </trkpt>
      <trkpt lat="44.8098" lon="3.80447">
        <ele>987.5</ele>
        <time>2025-04-15T14:31:51.900Z</time>
      </trkpt>
      <trkpt lat="44.80974" lon="3.80432">
        <ele>988.65</ele>
        <time>2025-04-15T14:31:54.398Z</time>
      </trkpt>
      <trkpt lat="44.80974" lon="3.80417">
        <ele>989.82</ele>
        <time>2025-04-15T14:31:56.898Z</time>
      </trkpt>
      <trkpt lat="44.8098" lon="3.80404">
        <ele>991.01</ele>
        <time>2025-04-15T14:31:59.399Z</time>
      </trkpt>
      <trkpt lat="44.80991" lon="3.80393">
        <ele>992.24</ele>
        <time>2025-04-15T14:32:01.902Z</time>
      </trkpt>
      <trkpt lat="44.8101" lon="3.80393">
        <ele>993.48</ele>
        <time>2025-04-15T14:32:04.409Z</time>
      </trkpt>
      <trkpt lat="44.81036" lon="3.80397">
        <ele>994.7</ele>
        <time>2025-04-15T14:32:06.920Z</time>
      </trkpt>
      <trkpt lat="44.81062" lon="3.80402">
        <ele>995.93</ele>
        <time>2025-04-15T14:32:09.435Z</time>
      </trkpt>
      <trkpt lat="44.81088" lon="3.80404">
        <ele>997.12</ele>
        <time>2025-04-15T14:32:11.954Z</time>
      </trkpt>
      <trkpt lat="44.81115" lon="3.80406">
        <ele>998.28</ele>
        <time>2025-04-15T14:32:14.477Z</time>
      </trkpt>
      <trkpt lat="44.8113" lon="3.80397">
        <ele>999.34</ele>
        <time>2025-04-15T14:32:17.003Z</time>
      </trkpt>
      <trkpt lat="44.81141" lon="3.8038">
        <ele>1000.33</ele>
        <time>2025-04-15T14:32:19.532Z</time>
      </trkpt>
      <trkpt lat="44.8116" lon="3.8035">
        <ele>1001.39</ele>
        <time>2025-04-15T14:32:22.065Z</time>
      </trkpt>
      <trkpt lat="44.8118" lon="3.8032">
        <ele>1002.43</ele>
        <time>2025-04-15T14:32:24.603Z</time>
      </trkpt>
      <trkpt lat="44.81197" lon="3.80305">
        <ele>1003.19</ele>
        <time>2025-04-15T14:32:27.144Z</time>
      </trkpt>
      <trkpt lat="44.81203" lon="3.80305">
        <ele>1003.77</ele>
        <time>2025-04-15T14:32:29.686Z</time>
      </trkpt>
      <trkpt lat="44.81229" lon="3.80311">
        <ele>1004.13</ele>
        <time>2025-04-15T14:32:32.232Z</time>
      </trkpt>
      <trkpt lat="44.81255" lon="3.80317">
        <ele>1004.53</ele>
        <time>2025-04-15T14:32:34.782Z</time>
      </trkpt>
      <trkpt lat="44.8128" lon="3.80322">
        <ele>1004.92</ele>
        <time>2025-04-15T14:32:37.337Z</time>
      </trkpt>
      <trkpt lat="44.81298" lon="3.8032">
        <ele>1005.15</ele>
        <time>2025-04-15T14:32:39.894Z</time>
      </trkpt>
      <trkpt lat="44.81321" lon="3.80305">
        <ele>1005.22</ele>
        <time>2025-04-15T14:32:42.456Z</time>
      </trkpt>
      <trkpt lat="44.81341" lon="3.80286">
        <ele>1005.05</ele>
        <time>2025-04-15T14:32:45.021Z</time>
      </trkpt>
      <trkpt lat="44.81361" lon="3.80266">
        <ele>1004.88</ele>
        <time>2025-04-15T14:32:47.590Z</time>
      </trkpt>
      <trkpt lat="44.81381" lon="3.80247">
        <ele>1004.69</ele>
        <time>2025-04-15T14:32:50.163Z</time>
      </trkpt>
      <trkpt lat="44.81401" lon="3.80228">
        <ele>1004.52</ele>
        <time>2025-04-15T14:32:52.740Z</time>
      </trkpt>
      <trkpt lat="44.81428" lon="3.80207">
        <ele>1004.32</ele>
        <time>2025-04-15T14:32:55.322Z</time>
      </trkpt>
      <trkpt lat="44.81455" lon="3.80186">
        <ele>1003.91</ele>
        <time>2025-04-15T14:32:57.909Z</time>
      </trkpt>
      <trkpt lat="44.81482" lon="3.80166">
        <ele>1003.49</ele>
        <time>2025-04-15T14:33:00.501Z</time>
      </trkpt>
      <trkpt lat="44.81497" lon="3.80146">
        <ele>1003.07</ele>
        <time>2025-04-15T14:33:03.096Z</time>
      </trkpt>
      <trkpt lat="44.81508" lon="3.80118">
        <ele>1002.54</ele>
        <time>2025-04-15T14:33:05.695Z</time>
      </trkpt>
      <trkpt lat="44.81514" lon="3.80083">
        <ele>1001.94</ele>
        <time>2025-04-15T14:33:08.298Z</time>
      </trkpt>
      <trkpt lat="44.81519" lon="3.80047">
        <ele>1001.42</ele>
        <time>2025-04-15T14:33:10.905Z</time>
      </trkpt>
      <trkpt lat="44.81525" lon="3.80011">
        <ele>1000.88</ele>
        <time>2025-04-15T14:33:13.516Z</time>
      </trkpt>
      <trkpt lat="44.81538" lon="3.79992">
        <ele>1000.4</ele>
        <time>2025-04-15T14:33:16.130Z</time>
      </trkpt>
      <trkpt lat="44.81564" lon="3.79974">
        <ele>999.89</ele>
        <time>2025-04-15T14:33:18.749Z</time>
      </trkpt>
      <trkpt lat="44.81591" lon="3.79956">
        <ele>999.32</ele>
        <time>2025-04-15T14:33:21.373Z</time>
      </trkpt>
      <trkpt lat="44.81618" lon="3.79938">
        <ele>998.83</ele>
        <time>2025-04-15T14:33:24.001Z</time>
      </trkpt>
      <trkpt lat="44.81644" lon="3.7992">
        <ele>998.43</ele>
        <time>2025-04-15T14:33:26.634Z</time>
      </trkpt>
      <trkpt lat="44.81671" lon="3.79902">
        <ele>998.11</ele>
        <time>2025-04-15T14:33:29.272Z</time>
      </trkpt>
      <trkpt lat="44.817" lon="3.79887">
        <ele>997.72</ele>
        <time>2025-04-15T14:33:31.915Z</time>
      </trkpt>
      <trkpt lat="44.81729" lon="3.79872">
        <ele>997.32</ele>
        <time>2025-04-15T14:33:34.563Z</time>
      </trkpt>
      <trkpt lat="44.81757" lon="3.79867">
        <ele>997.05</ele>
        <time>2025-04-15T14:33:37.215Z</time>
      </trkpt>
      <trkpt lat="44.81782" lon="3.79866">
        <ele>996.88</ele>
        <time>2025-04-15T14:33:39.871Z</time>
      </trkpt>
      <trkpt lat="44.81808" lon="3.79865">
        <ele>996.73</ele>
        <time>2025-04-15T14:33:42.531Z</time>
      </trkpt>
      <trkpt lat="44.81836" lon="3.79873">
        <ele>996.65</ele>
        <time>2025-04-15T14:33:45.196Z</time>
      </trkpt>
      <trkpt lat="44.81864" lon="3.7988">
        <ele>996.63</ele>
        <time>2025-04-15T14:33:47.866Z</time>
      </trkpt>
      <trkpt lat="44.81864" lon="3.7988">
        <ele>996.78</ele>
        <time>2025-04-15T14:33:50.536Z</time>
      </trkpt>
      <trkpt lat="44.81894" lon="3.79887">
        <ele>997.03</ele>
        <time>2025-04-15T14:33:53.210Z</time>
      </trkpt>
      <trkpt lat="44.81919" lon="3.7988">
        <ele>997.44</ele>
        <time>2025-04-15T14:33:55.888Z</time>
      </trkpt>
      <trkpt lat="44.81943" lon="3.79874">
        <ele>997.99</ele>
        <time>2025-04-15T14:33:58.570Z</time>
      </trkpt>
      <trkpt lat="44.81972" lon="3.79873">
        <ele>998.61</ele>
        <time>2025-04-15T14:34:01.257Z</time>
      </trkpt>
      <trkpt lat="44.82001" lon="3.79872">
        <ele>999.25</ele>
        <time>2025-04-15T14:34:03.949Z</time>
      </trkpt>
      <trkpt lat="44.82029" lon="3.79872">
        <ele>999.86</ele>
        <time>2025-04-15T14:34:06.645Z</time>
      </trkpt>
      <trkpt lat="44.82053" lon="3.79867">
        <ele>1000.45</ele>
        <time>2025-04-15T14:34:09.345Z</time>
      </trkpt>
      <trkpt lat="44.82076" lon="3.79863">
        <ele>1001.17</ele>
        <time>2025-04-15T14:34:12.049Z</time>
      </trkpt>
      <trkpt lat="44.821" lon="3.79851">
        <ele>1002.02</ele>
        <time>2025-04-15T14:34:14.757Z</time>
      </trkpt>
      <trkpt lat="44.82124" lon="3.79839">
        <ele>1003</ele>
        <time>2025-04-15T14:34:17.469Z</time>
      </trkpt>
      <trkpt lat="44.82152" lon="3.79831">
        <ele>1003.99</ele>
        <time>2025-04-15T14:34:20.185Z</time>
      </trkpt>
      <trkpt lat="44.82182" lon="3.79826">
        <ele>1004.88</ele>
        <time>2025-04-15T14:34:22.906Z</time>
      </trkpt>
      <trkpt lat="44.82212" lon="3.7982">
        <ele>1005.77</ele>
        <time>2025-04-15T14:34:25.632Z</time>
      </trkpt>
      <trkpt lat="44.82229" lon="3.79829">
        <ele>1006.6</ele>
        <time>2025-04-15T14:34:28.361Z</time>
      </trkpt>
      <trkpt lat="44.8225" lon="3.79854">
        <ele>1007.49</ele>
        <time>2025-04-15T14:34:31.094Z</time>
      </trkpt>
      <trkpt lat="44.82271" lon="3.7988">
        <ele>1008.39</ele>
        <time>2025-04-15T14:34:33.832Z</time>
      </trkpt>
      <trkpt lat="44.82292" lon="3.79906">
        <ele>1009.28</ele>
        <time>2025-04-15T14:34:36.574Z</time>
      </trkpt>
      <trkpt lat="44.82312" lon="3.79932">
        <ele>1010.09</ele>
        <time>2025-04-15T14:34:39.321Z</time>
      </trkpt>
      <trkpt lat="44.82335" lon="3.79962">
        <ele>1010.77</ele>
        <time>2025-04-15T14:34:42.073Z</time>
      </trkpt>
      <trkpt lat="44.82357" lon="3.79993">
        <ele>1011.4</ele>
        <time>2025-04-15T14:34:44.830Z</time>
      </trkpt>
      <trkpt lat="44.82379" lon="3.80024">
        <ele>1012</ele>
        <time>2025-04-15T14:34:47.592Z</time>
      </trkpt>
      <trkpt lat="44.82401" lon="3.80054">
        <ele>1012.64</ele>
        <time>2025-04-15T14:34:50.359Z</time>
      </trkpt>
      <trkpt lat="44.82423" lon="3.80085">
        <ele>1013.26</ele>
        <time>2025-04-15T14:34:53.131Z</time>
      </trkpt>
      <trkpt lat="44.82445" lon="3.80116">
        <ele>1013.86</ele>
        <time>2025-04-15T14:34:55.908Z</time>
      </trkpt>
      <trkpt lat="44.82467" lon="3.80146">
        <ele>1014.31</ele>
        <time>2025-04-15T14:34:58.690Z</time>
      </trkpt>
      <trkpt lat="44.8248" lon="3.80157">
        <ele>1014.59</ele>
        <time>2025-04-15T14:35:01.474Z</time>
      </trkpt>
      <trkpt lat="44.82503" lon="3.80168">
        <ele>1014.77</ele>
        <time>2025-04-15T14:35:04.262Z</time>
      </trkpt>
      <trkpt lat="44.82527" lon="3.80168">
        <ele>1014.77</ele>
        <time>2025-04-15T14:35:07.054Z</time>
      </trkpt>
      <trkpt lat="44.82546" lon="3.80157">
        <ele>1014.58</ele>
        <time>2025-04-15T14:35:09.849Z</time>
      </trkpt>
      <trkpt lat="44.82564" lon="3.80123">
        <ele>1014.15</ele>
        <time>2025-04-15T14:35:12.649Z</time>
      </trkpt>
      <trkpt lat="44.82568" lon="3.80099">
        <ele>1013.8</ele>
        <time>2025-04-15T14:35:15.452Z</time>
      </trkpt>
      <trkpt lat="44.82572" lon="3.80076">
        <ele>1013.37</ele>
        <time>2025-04-15T14:35:18.257Z</time>
      </trkpt>
      <trkpt lat="44.82575" lon="3.80043">
        <ele>1012.9</ele>
        <time>2025-04-15T14:35:21.066Z</time>
      </trkpt>
      <trkpt lat="44.82579" lon="3.80011">
        <ele>1012.36</ele>
        <time>2025-04-15T14:35:23.879Z</time>
      </trkpt>
      <trkpt lat="44.82585" lon="3.79992">
        <ele>1011.83</ele>
        <time>2025-04-15T14:35:26.694Z</time>
      </trkpt>
      <trkpt lat="44.82598" lon="3.79981">
        <ele>1011.3</ele>
        <time>2025-04-15T14:35:29.512Z</time>
      </trkpt>
      <trkpt lat="44.82629" lon="3.79986">
        <ele>1011.08</ele>
        <time>2025-04-15T14:35:32.335Z</time>
      </trkpt>
      <trkpt lat="44.8266" lon="3.79992">
        <ele>1010.76</ele>
        <time>2025-04-15T14:35:35.163Z</time>
      </trkpt>
      <trkpt lat="44.82676" lon="3.79992">
        <ele>1010.32</ele>
        <time>2025-04-15T14:35:37.993Z</time>
      </trkpt>
      <trkpt lat="44.82692" lon="3.79992">
        <ele>1009.9</ele>
        <time>2025-04-15T14:35:40.826Z</time>
      </trkpt>
      <trkpt lat="44.82711" lon="3.79999">
        <ele>1009.58</ele>
        <time>2025-04-15T14:35:43.662Z</time>
      </trkpt>
      <trkpt lat="44.82729" lon="3.80007">
        <ele>1009.21</ele>
        <time>2025-04-15T14:35:46.501Z</time>
      </trkpt>
      <trkpt lat="44.82742" lon="3.80003">
        <ele>1008.75</ele>
        <time>2025-04-15T14:35:49.342Z</time>
      </trkpt>
      <trkpt lat="44.82748" lon="3.7999">
        <ele>1008.33</ele>
        <time>2025-04-15T14:35:52.185Z</time>
      </trkpt>
      <trkpt lat="44.82752" lon="3.79968">
        <ele>1008.05</ele>
        <time>2025-04-15T14:35:55.030Z</time>
      </trkpt>
      <trkpt lat="44.82748" lon="3.7994">
        <ele>1007.85</ele>
        <time>2025-04-15T14:35:57.879Z</time>
      </trkpt>
      <trkpt lat="44.82739" lon="3.79919">
        <ele>1007.7</ele>
        <time>2025-04-15T14:36:00.730Z</time>
      </trkpt>
      <trkpt lat="44.82721" lon="3.79886">
        <ele>1007.65</ele>
        <time>2025-04-15T14:36:03.586Z</time>
      </trkpt>
      <trkpt lat="44.82703" lon="3.79852">
        <ele>1007.65</ele>
        <time>2025-04-15T14:36:06.447Z</time>
      </trkpt>
      <trkpt lat="44.82697" lon="3.79835">
        <ele>1007.73</ele>
        <time>2025-04-15T14:36:09.310Z</time>
      </trkpt>
      <trkpt lat="44.82697" lon="3.79822">
        <ele>1007.94</ele>
        <time>2025-04-15T14:36:12.175Z</time>
      </trkpt>
      <trkpt lat="44.82703" lon="3.79805">
        <ele>1008.29</ele>
        <time>2025-04-15T14:36:15.042Z</time>
      </trkpt>
      <trkpt lat="44.82712" lon="3.79803">
        <ele>1008.71</ele>
        <time>2025-04-15T14:36:17.910Z</time>
      </trkpt>
      <trkpt lat="44.82727" lon="3.79812">
        <ele>1009.28</ele>
        <time>2025-04-15T14:36:20.781Z</time>
      </trkpt>
      <trkpt lat="44.8272" lon="3.7982">
        <ele>1009.73</ele>
        <time>2025-04-15T14:36:23.653Z</time>
      </trkpt>
      <trkpt lat="44.82718" lon="3.79837">
        <ele>1010.29</ele>
        <time>2025-04-15T14:36:26.527Z</time>
      </trkpt>
      <trkpt lat="44.82724" lon="3.79859">
        <ele>1010.95</ele>
        <time>2025-04-15T14:36:29.404Z</time>
      </trkpt>
      <trkpt lat="44.82744" lon="3.79887">
        <ele>1011.77</ele>
        <time>2025-04-15T14:36:32.285Z</time>
      </trkpt>
      <trkpt lat="44.82763" lon="3.79916">
        <ele>1012.7</ele>
        <time>2025-04-15T14:36:35.171Z</time>
      </trkpt>
      <trkpt lat="44.82782" lon="3.79945">
        <ele>1013.75</ele>
        <time>2025-04-15T14:36:38.061Z</time>
      </trkpt>
      <trkpt lat="44.82797" lon="3.79955">
        <ele>1014.86</ele>
        <time>2025-04-15T14:36:40.954Z</time>
      </trkpt>
      <trkpt lat="44.82812" lon="3.79957">
        <ele>1016.07</ele>
        <time>2025-04-15T14:36:43.849Z</time>
      </trkpt>
      <trkpt lat="44.82832" lon="3.79955">
        <ele>1017.31</ele>
        <time>2025-04-15T14:36:46.748Z</time>
      </trkpt>
      <trkpt lat="44.82851" lon="3.79953">
        <ele>1018.61</ele>
        <time>2025-04-15T14:36:49.650Z</time>
      </trkpt>
      <trkpt lat="44.82851" lon="3.79953">
        <ele>1019.83</ele>
        <time>2025-04-15T14:36:52.552Z</time>
      </trkpt>
      <trkpt lat="44.82875" lon="3.79947">
        <ele>1021.23</ele>
        <time>2025-04-15T14:36:55.458Z</time>
      </trkpt>
      <trkpt lat="44.82891" lon="3.79949">
        <ele>1022.55</ele>
        <time>2025-04-15T14:36:58.366Z</time>
      </trkpt>
      <trkpt lat="44.82907" lon="3.79951">
        <ele>1023.93</ele>
        <time>2025-04-15T14:37:01.277Z</time>
      </trkpt>
      <trkpt lat="44.82928" lon="3.79974">
        <ele>1025.35</ele>
        <time>2025-04-15T14:37:04.192Z</time>
      </trkpt>
      <trkpt lat="44.82949" lon="3.79997">
        <ele>1026.71</ele>
        <time>2025-04-15T14:37:07.111Z</time>
      </trkpt>
      <trkpt lat="44.8297" lon="3.8002">
        <ele>1028.08</ele>
        <time>2025-04-15T14:37:10.034Z</time>
      </trkpt>
      <trkpt lat="44.82991" lon="3.80043">
        <ele>1029.52</ele>
        <time>2025-04-15T14:37:12.962Z</time>
      </trkpt>
      <trkpt lat="44.83012" lon="3.80071">
        <ele>1031.08</ele>
        <time>2025-04-15T14:37:15.894Z</time>
      </trkpt>
      <trkpt lat="44.83033" lon="3.80099">
        <ele>1032.63</ele>
        <time>2025-04-15T14:37:18.831Z</time>
      </trkpt>
      <trkpt lat="44.83045" lon="3.80122">
        <ele>1034.04</ele>
        <time>2025-04-15T14:37:21.771Z</time>
      </trkpt>
      <trkpt lat="44.83057" lon="3.80144">
        <ele>1035.41</ele>
        <time>2025-04-15T14:37:24.714Z</time>
      </trkpt>
      <trkpt lat="44.83082" lon="3.80157">
        <ele>1036.92</ele>
        <time>2025-04-15T14:37:27.662Z</time>
      </trkpt>
      <trkpt lat="44.83106" lon="3.8017">
        <ele>1038.45</ele>
        <time>2025-04-15T14:37:30.614Z</time>
      </trkpt>
      <trkpt lat="44.83128" lon="3.80187">
        <ele>1039.95</ele>
        <time>2025-04-15T14:37:33.570Z</time>
      </trkpt>
      <trkpt lat="44.83149" lon="3.80211">
        <ele>1041.38</ele>
        <time>2025-04-15T14:37:36.530Z</time>
      </trkpt>
      <trkpt lat="44.83171" lon="3.80236">
        <ele>1042.76</ele>
        <time>2025-04-15T14:37:39.495Z</time>
      </trkpt>
      <trkpt lat="44.83192" lon="3.8026">
        <ele>1044.19</ele>
        <time>2025-04-15T14:37:42.464Z</time>
      </trkpt>
      <trkpt lat="44.832" lon="3.80266">
        <ele>1045.56</ele>
        <time>2025-04-15T14:37:45.435Z</time>
      </trkpt>
      <trkpt lat="44.83218" lon="3.80279">
        <ele>1046.91</ele>
        <time>2025-04-15T14:37:48.409Z</time>
      </trkpt>
      <trkpt lat="44.83247" lon="3.80292">
        <ele>1048.33</ele>
        <time>2025-04-15T14:37:51.388Z</time>
      </trkpt>
      <trkpt lat="44.83276" lon="3.80305">
        <ele>1049.7</ele>
        <time>2025-04-15T14:37:54.371Z</time>
      </trkpt>
      <trkpt lat="44.83295" lon="3.80323">
        <ele>1050.91</ele>
        <time>2025-04-15T14:37:57.358Z</time>
      </trkpt>
      <trkpt lat="44.83315" lon="3.80342">
        <ele>1052.15</ele>
        <time>2025-04-15T14:38:00.349Z</time>
      </trkpt>
      <trkpt lat="44.83334" lon="3.80375">
        <ele>1053.26</ele>
        <time>2025-04-15T14:38:03.345Z</time>
      </trkpt>
      <trkpt lat="44.83353" lon="3.80408">
        <ele>1054.47</ele>
        <time>2025-04-15T14:38:06.346Z</time>
      </trkpt>
      <trkpt lat="44.83373" lon="3.80441">
        <ele>1055.73</ele>
        <time>2025-04-15T14:38:09.352Z</time>
      </trkpt>
      <trkpt lat="44.83392" lon="3.80474">
        <ele>1056.8</ele>
        <time>2025-04-15T14:38:12.362Z</time>
      </trkpt>
      <trkpt lat="44.83411" lon="3.80507">
        <ele>1057.91</ele>
        <time>2025-04-15T14:38:15.377Z</time>
      </trkpt>
      <trkpt lat="44.83431" lon="3.80541">
        <ele>1059.1</ele>
        <time>2025-04-15T14:38:18.397Z</time>
      </trkpt>
      <trkpt lat="44.8345" lon="3.80574">
        <ele>1060.33</ele>
        <time>2025-04-15T14:38:21.422Z</time>
      </trkpt>
      <trkpt lat="44.83469" lon="3.80607">
        <ele>1061.49</ele>
        <time>2025-04-15T14:38:24.452Z</time>
      </trkpt>
      <trkpt lat="44.83488" lon="3.8064">
        <ele>1062.61</ele>
        <time>2025-04-15T14:38:27.487Z</time>
      </trkpt>
      <trkpt lat="44.83503" lon="3.80669">
        <ele>1063.8</ele>
        <time>2025-04-15T14:38:30.526Z</time>
      </trkpt>
      <trkpt lat="44.83518" lon="3.80698">
        <ele>1065.01</ele>
        <time>2025-04-15T14:38:33.569Z</time>
      </trkpt>
      <trkpt lat="44.8353" lon="3.80717">
        <ele>1066.14</ele>
        <time>2025-04-15T14:38:36.615Z</time>
      </trkpt>
      <trkpt lat="44.83542" lon="3.80736">
        <ele>1067.19</ele>
        <time>2025-04-15T14:38:39.664Z</time>
      </trkpt>
      <trkpt lat="44.83561" lon="3.8076">
        <ele>1068.19</ele>
        <time>2025-04-15T14:38:42.717Z</time>
      </trkpt>
      <trkpt lat="44.83581" lon="3.80784">
        <ele>1069.13</ele>
        <time>2025-04-15T14:38:45.774Z</time>
      </trkpt>
      <trkpt lat="44.83589" lon="3.80808">
        <ele>1070.04</ele>
        <time>2025-04-15T14:38:48.834Z</time>
      </trkpt>
      <trkpt lat="44.83598" lon="3.80833">
        <ele>1071.03</ele>
        <time>2025-04-15T14:38:51.897Z</time>
      </trkpt>
      <trkpt lat="44.83602" lon="3.80867">
        <ele>1072.01</ele>
        <time>2025-04-15T14:38:54.964Z</time>
      </trkpt>
      <trkpt lat="44.83602" lon="3.80908">
        <ele>1073.03</ele>
        <time>2025-04-15T14:38:58.036Z</time>
      </trkpt>
      <trkpt lat="44.83601" lon="3.80949">
        <ele>1074.02</ele>
        <time>2025-04-15T14:39:01.112Z</time>
      </trkpt>
      <trkpt lat="44.836" lon="3.8099">
        <ele>1074.88</ele>
        <time>2025-04-15T14:39:04.193Z</time>
      </trkpt>
      <trkpt lat="44.836" lon="3.8103">
        <ele>1075.67</ele>
        <time>2025-04-15T14:39:07.279Z</time>
      </trkpt>
      <trkpt lat="44.83597" lon="3.81061">
        <ele>1076.4</ele>
        <time>2025-04-15T14:39:10.368Z</time>
      </trkpt>
      <trkpt lat="44.83594" lon="3.81092">
        <ele>1077.16</ele>
        <time>2025-04-15T14:39:13.461Z</time>
      </trkpt>
      <trkpt lat="44.83591" lon="3.81123">
        <ele>1077.83</ele>
        <time>2025-04-15T14:39:16.557Z</time>
      </trkpt>
      <trkpt lat="44.83596" lon="3.81151">
        <ele>1078.46</ele>
        <time>2025-04-15T14:39:19.657Z</time>
      </trkpt>
      <trkpt lat="44.83606" lon="3.81183">
        <ele>1079.13</ele>
        <time>2025-04-15T14:39:22.761Z</time>
      </trkpt>
      <trkpt lat="44.83618" lon="3.81209">
        <ele>1079.69</ele>
        <time>2025-04-15T14:39:25.868Z</time>
      </trkpt>
      <trkpt lat="44.8363" lon="3.81234">
        <ele>1080.1</ele>
        <time>2025-04-15T14:39:28.979Z</time>
      </trkpt>
      <trkpt lat="44.83639" lon="3.81264">
        <ele>1080.41</ele>
        <time>2025-04-15T14:39:32.093Z</time>
      </trkpt>
      <trkpt lat="44.83643" lon="3.81302">
        <ele>1080.64</ele>
        <time>2025-04-15T14:39:35.212Z</time>
      </trkpt>
      <trkpt lat="44.83647" lon="3.81339">
        <ele>1080.94</ele>
        <time>2025-04-15T14:39:38.335Z</time>
      </trkpt>
      <trkpt lat="44.83654" lon="3.81361">
        <ele>1081.28</ele>
        <time>2025-04-15T14:39:41.461Z</time>
      </trkpt>
      <trkpt lat="44.83654" lon="3.81361">
        <ele>1081.49</ele>
        <time>2025-04-15T14:39:44.587Z</time>
      </trkpt>
      <trkpt lat="44.83673" lon="3.81393">
        <ele>1081.76</ele>
        <time>2025-04-15T14:39:47.717Z</time>
      </trkpt>
      <trkpt lat="44.83692" lon="3.81425">
        <ele>1081.9</ele>
        <time>2025-04-15T14:39:50.852Z</time>
      </trkpt>
      <trkpt lat="44.83712" lon="3.81457">
        <ele>1082.12</ele>
        <time>2025-04-15T14:39:53.992Z</time>
      </trkpt>
      <trkpt lat="44.83731" lon="3.8149">
        <ele>1082.16</ele>
        <time>2025-04-15T14:39:57.137Z</time>
      </trkpt>
      <trkpt lat="44.8375" lon="3.81522">
        <ele>1082.19</ele>
        <time>2025-04-15T14:40:00.287Z</time>
      </trkpt>
      <trkpt lat="44.8377" lon="3.81554">
        <ele>1082.25</ele>
        <time>2025-04-15T14:40:03.441Z</time>
      </trkpt>
      <trkpt lat="44.83789" lon="3.81586">
        <ele>1082.27</ele>
        <time>2025-04-15T14:40:06.600Z</time>
      </trkpt>
      <trkpt lat="44.83808" lon="3.81619">
        <ele>1082.16</ele>
        <time>2025-04-15T14:40:09.764Z</time>
      </trkpt>
      <trkpt lat="44.83828" lon="3.81651">
        <ele>1082.11</ele>
        <time>2025-04-15T14:40:12.933Z</time>
      </trkpt>
      <trkpt lat="44.83847" lon="3.81683">
        <ele>1082.06</ele>
        <time>2025-04-15T14:40:16.107Z</time>
      </trkpt>
      <trkpt lat="44.83866" lon="3.81715">
        <ele>1082.07</ele>
        <time>2025-04-15T14:40:19.285Z</time>
      </trkpt>
      <trkpt lat="44.83886" lon="3.81747">
        <ele>1082.08</ele>
        <time>2025-04-15T14:40:22.468Z</time>
      </trkpt>
      <trkpt lat="44.83905" lon="3.81779">
        <ele>1082.04</ele>
        <time>2025-04-15T14:40:25.656Z</time>
      </trkpt>
      <trkpt lat="44.8392" lon="3.81806">
        <ele>1081.99</ele>
        <time>2025-04-15T14:40:28.848Z</time>
      </trkpt>
      <trkpt lat="44.83936" lon="3.81832">
        <ele>1081.96</ele>
        <time>2025-04-15T14:40:32.044Z</time>
      </trkpt>
      <trkpt lat="44.83951" lon="3.81858">
        <ele>1081.92</ele>
        <time>2025-04-15T14:40:35.244Z</time>
      </trkpt>
      <trkpt lat="44.83967" lon="3.81884">
        <ele>1081.92</ele>
        <time>2025-04-15T14:40:38.447Z</time>
      </trkpt>
      <trkpt lat="44.83986" lon="3.81916">
        <ele>1081.98</ele>
        <time>2025-04-15T14:40:41.655Z</time>
      </trkpt>
      <trkpt lat="44.84004" lon="3.81947">
        <ele>1082.09</ele>
        <time>2025-04-15T14:40:44.868Z</time>
      </trkpt>
      <trkpt lat="44.84023" lon="3.81979">
        <ele>1082.15</ele>
        <time>2025-04-15T14:40:48.086Z</time>
      </trkpt>
      <trkpt lat="44.84042" lon="3.8201">
        <ele>1082.25</ele>
        <time>2025-04-15T14:40:51.308Z</time>
      </trkpt>
      <trkpt lat="44.84061" lon="3.82042">
        <ele>1082.27</ele>
        <time>2025-04-15T14:40:54.535Z</time>
      </trkpt>
      <trkpt lat="44.8408" lon="3.82073">
        <ele>1082.36</ele>
        <time>2025-04-15T14:40:57.767Z</time>
      </trkpt>
      <trkpt lat="44.84098" lon="3.82105">
        <ele>1082.44</ele>
        <time>2025-04-15T14:41:01.003Z</time>
      </trkpt>
      <trkpt lat="44.84117" lon="3.82136">
        <ele>1082.56</ele>
        <time>2025-04-15T14:41:04.244Z</time>
      </trkpt>
      <trkpt lat="44.84136" lon="3.82168">
        <ele>1082.75</ele>
        <time>2025-04-15T14:41:07.490Z</time>
      </trkpt>
      <trkpt lat="44.84155" lon="3.82199">
        <ele>1082.92</ele>
        <time>2025-04-15T14:41:10.740Z</time>
      </trkpt>
      <trkpt lat="44.84174" lon="3.82231">
        <ele>1083.1</ele>
        <time>2025-04-15T14:41:13.995Z</time>
      </trkpt>
      <trkpt lat="44.84192" lon="3.82262">
        <ele>1083.33</ele>
        <time>2025-04-15T14:41:17.255Z</time>
      </trkpt>
      <trkpt lat="44.84201" lon="3.82282">
        <ele>1083.54</ele>
        <time>2025-04-15T14:41:20.517Z</time>
      </trkpt>
      <trkpt lat="44.84209" lon="3.82303">
        <ele>1083.78</ele>
        <time>2025-04-15T14:41:23.782Z</time>
      </trkpt>
      <trkpt lat="44.84215" lon="3.82331">
        <ele>1084.03</ele>
        <time>2025-04-15T14:41:27.050Z</time>
      </trkpt>
      <trkpt lat="44.8422" lon="3.82359">
        <ele>1084.29</ele>
        <time>2025-04-15T14:41:30.322Z</time>
      </trkpt>
      <trkpt lat="44.84222" lon="3.824">
        <ele>1084.58</ele>
        <time>2025-04-15T14:41:33.598Z</time>
      </trkpt>
      <trkpt lat="44.84224" lon="3.82441">
        <ele>1084.83</ele>
        <time>2025-04-15T14:41:36.879Z</time>
      </trkpt>
      <trkpt lat="44.84226" lon="3.82482">
        <ele>1085.15</ele>
        <time>2025-04-15T14:41:40.165Z</time>
      </trkpt>
      <trkpt lat="44.84228" lon="3.82523">
        <ele>1085.55</ele>
        <time>2025-04-15T14:41:43.455Z</time>
      </trkpt>
      <trkpt lat="44.84229" lon="3.82564">
        <ele>1086</ele>
        <time>2025-04-15T14:41:46.750Z</time>
      </trkpt>
      <trkpt lat="44.84231" lon="3.82605">
        <ele>1086.47</ele>
        <time>2025-04-15T14:41:50.050Z</time>
      </trkpt>
      <trkpt lat="44.84233" lon="3.82647">
        <ele>1086.98</ele>
        <time>2025-04-15T14:41:53.354Z</time>
      </trkpt>
      <trkpt lat="44.84235" lon="3.82687">
        <ele>1087.53</ele>
        <time>2025-04-15T14:41:56.663Z</time>
      </trkpt>
      <trkpt lat="44.84237" lon="3.82726">
        <ele>1088.16</ele>
        <time>2025-04-15T14:41:59.977Z</time>
      </trkpt>
      <trkpt lat="44.84238" lon="3.82766">
        <ele>1088.79</ele>
        <time>2025-04-15T14:42:03.295Z</time>
      </trkpt>
      <trkpt lat="44.84239" lon="3.82805">
        <ele>1089.52</ele>
        <time>2025-04-15T14:42:06.617Z</time>
      </trkpt>
      <trkpt lat="44.84246" lon="3.82848">
        <ele>1090.28</ele>
        <time>2025-04-15T14:42:09.944Z</time>
      </trkpt>
      <trkpt lat="44.84259" lon="3.82884">
        <ele>1090.96</ele>
        <time>2025-04-15T14:42:13.276Z</time>
      </trkpt>
      <trkpt lat="44.84259" lon="3.82884">
        <ele>1091.65</ele>
        <time>2025-04-15T14:42:16.608Z</time>
      </trkpt>
      <trkpt lat="44.84265" lon="3.82899">
        <ele>1092.35</ele>
        <time>2025-04-15T14:42:19.942Z</time>
      </trkpt>
      <trkpt lat="44.8428" lon="3.82932">
        <ele>1093.12</ele>
        <time>2025-04-15T14:42:23.280Z</time>
      </trkpt>
      <trkpt lat="44.8429" lon="3.82957">
        <ele>1093.94</ele>
        <time>2025-04-15T14:42:26.622Z</time>
      </trkpt>
      <trkpt lat="44.84299" lon="3.82983">
        <ele>1094.82</ele>
        <time>2025-04-15T14:42:29.967Z</time>
      </trkpt>
      <trkpt lat="44.84306" lon="3.82996">
        <ele>1095.59</ele>
        <time>2025-04-15T14:42:33.314Z</time>
      </trkpt>
      <trkpt lat="44.84314" lon="3.83019">
        <ele>1096.41</ele>
        <time>2025-04-15T14:42:36.664Z</time>
      </trkpt>
      <trkpt lat="44.84315" lon="3.83019">
        <ele>1097.17</ele>
        <time>2025-04-15T14:42:40.014Z</time>
      </trkpt>
      <trkpt lat="44.84319" lon="3.8303">
        <ele>1097.96</ele>
        <time>2025-04-15T14:42:43.365Z</time>
      </trkpt>
      <trkpt lat="44.84325" lon="3.83047">
        <ele>1098.74</ele>
        <time>2025-04-15T14:42:46.719Z</time>
      </trkpt>
      <trkpt lat="44.8433" lon="3.83069">
        <ele>1099.55</ele>
        <time>2025-04-15T14:42:50.075Z</time>
      </trkpt>
      <trkpt lat="44.8433" lon="3.83077">
        <ele>1100.33</ele>
        <time>2025-04-15T14:42:53.432Z</time>
      </trkpt>
      <trkpt lat="44.84335" lon="3.83119">
        <ele>1101.15</ele>
        <time>2025-04-15T14:42:56.794Z</time>
      </trkpt>
      <trkpt lat="44.8434" lon="3.83161">
        <ele>1102</ele>
        <time>2025-04-15T14:43:00.161Z</time>
      </trkpt>
      <trkpt lat="44.8434" lon="3.83165">
        <ele>1102.73</ele>
        <time>2025-04-15T14:43:03.528Z</time>
      </trkpt>
      <trkpt lat="44.84344" lon="3.83201">
        <ele>1103.51</ele>
        <time>2025-04-15T14:43:06.899Z</time>
      </trkpt>
      <trkpt lat="44.84348" lon="3.83237">
        <ele>1104.19</ele>
        <time>2025-04-15T14:43:10.274Z</time>
      </trkpt>
      <trkpt lat="44.84352" lon="3.83273">
        <ele>1104.94</ele>
        <time>2025-04-15T14:43:13.654Z</time>
      </trkpt>
      <trkpt lat="44.84356" lon="3.83308">
        <ele>1105.63</ele>
        <time>2025-04-15T14:43:17.038Z</time>
      </trkpt>
      <trkpt lat="44.8436" lon="3.83344">
        <ele>1106.28</ele>
        <time>2025-04-15T14:43:20.426Z</time>
      </trkpt>
      <trkpt lat="44.8436" lon="3.83344">
        <ele>1106.91</ele>
        <time>2025-04-15T14:43:23.814Z</time>
      </trkpt>
      <trkpt lat="44.84366" lon="3.8338">
        <ele>1107.56</ele>
        <time>2025-04-15T14:43:27.206Z</time>
      </trkpt>
      <trkpt lat="44.84375" lon="3.83401">
        <ele>1108.19</ele>
        <time>2025-04-15T14:43:30.601Z</time>
      </trkpt>
      <trkpt lat="44.84383" lon="3.83423">
        <ele>1108.91</ele>
        <time>2025-04-15T14:43:33.999Z</time>
      </trkpt>
      <trkpt lat="44.84398" lon="3.83437">
        <ele>1109.52</ele>
        <time>2025-04-15T14:43:37.400Z</time>
      </trkpt>
      <trkpt lat="44.84413" lon="3.83451">
        <ele>1110.2</ele>
        <time>2025-04-15T14:43:40.803Z</time>
      </trkpt>
      <trkpt lat="44.84436" lon="3.83467">
        <ele>1110.92</ele>
        <time>2025-04-15T14:43:44.210Z</time>
      </trkpt>
      <trkpt lat="44.84459" lon="3.83484">
        <ele>1111.66</ele>
        <time>2025-04-15T14:43:47.622Z</time>
      </trkpt>
      <trkpt lat="44.84482" lon="3.835">
        <ele>1112.42</ele>
        <time>2025-04-15T14:43:51.038Z</time>
      </trkpt>
      <trkpt lat="44.84486" lon="3.83502">
        <ele>1113.15</ele>
        <time>2025-04-15T14:43:54.454Z</time>
      </trkpt>
      <trkpt lat="44.84514" lon="3.83522">
        <ele>1114.01</ele>
        <time>2025-04-15T14:43:57.875Z</time>
      </trkpt>
      <trkpt lat="44.84542" lon="3.83541">
        <ele>1114.83</ele>
        <time>2025-04-15T14:44:01.301Z</time>
      </trkpt>
      <trkpt lat="44.84568" lon="3.83559">
        <ele>1115.65</ele>
        <time>2025-04-15T14:44:04.732Z</time>
      </trkpt>
      <trkpt lat="44.84594" lon="3.83577">
        <ele>1116.58</ele>
        <time>2025-04-15T14:44:08.168Z</time>
      </trkpt>
      <trkpt lat="44.84621" lon="3.83595">
        <ele>1117.45</ele>
        <time>2025-04-15T14:44:11.608Z</time>
      </trkpt>
      <trkpt lat="44.84647" lon="3.83613">
        <ele>1118.38</ele>
        <time>2025-04-15T14:44:15.053Z</time>
      </trkpt>
      <trkpt lat="44.84673" lon="3.83631">
        <ele>1119.38</ele>
        <time>2025-04-15T14:44:18.503Z</time>
      </trkpt>
      <trkpt lat="44.847" lon="3.83649">
        <ele>1120.22</ele>
        <time>2025-04-15T14:44:21.957Z</time>
      </trkpt>
      <trkpt lat="44.84726" lon="3.83667">
        <ele>1121.03</ele>
        <time>2025-04-15T14:44:25.416Z</time>
      </trkpt>
      <trkpt lat="44.84752" lon="3.83685">
        <ele>1122.01</ele>
        <time>2025-04-15T14:44:28.880Z</time>
      </trkpt>
      <trkpt lat="44.84778" lon="3.83703">
        <ele>1123.12</ele>
        <time>2025-04-15T14:44:32.349Z</time>
      </trkpt>
      <trkpt lat="44.84805" lon="3.83721">
        <ele>1124.19</ele>
        <time>2025-04-15T14:44:35.822Z</time>
      </trkpt>
      <trkpt lat="44.84831" lon="3.8374">
        <ele>1125.25</ele>
        <time>2025-04-15T14:44:39.300Z</time>
      </trkpt>
      <trkpt lat="44.84857" lon="3.83758">
        <ele>1126.41</ele>
        <time>2025-04-15T14:44:42.783Z</time>
      </trkpt>
      <trkpt lat="44.84883" lon="3.83776">
        <ele>1127.59</ele>
        <time>2025-04-15T14:44:46.270Z</time>
      </trkpt>
      <trkpt lat="44.84909" lon="3.83793">
        <ele>1128.75</ele>
        <time>2025-04-15T14:44:49.762Z</time>
      </trkpt>
      <trkpt lat="44.84935" lon="3.83811">
        <ele>1129.85</ele>
        <time>2025-04-15T14:44:53.258Z</time>
      </trkpt>
      <trkpt lat="44.8496" lon="3.83829">
        <ele>1130.93</ele>
        <time>2025-04-15T14:44:56.759Z</time>
      </trkpt>
      <trkpt lat="44.84986" lon="3.83847">
        <ele>1131.97</ele>
        <time>2025-04-15T14:45:00.265Z</time>
      </trkpt>
      <trkpt lat="44.85012" lon="3.83865">
        <ele>1133.05</ele>
        <time>2025-04-15T14:45:03.775Z</time>
      </trkpt>
      <trkpt lat="44.85014" lon="3.83869">
        <ele>1134.07</ele>
        <time>2025-04-15T14:45:07.286Z</time>
      </trkpt>
      <trkpt lat="44.85042" lon="3.83888">
        <ele>1135.19</ele>
        <time>2025-04-15T14:45:10.802Z</time>
      </trkpt>
      <trkpt lat="44.8507" lon="3.83908">
        <ele>1136.32</ele>
        <time>2025-04-15T14:45:14.323Z</time>
      </trkpt>
      <trkpt lat="44.85098" lon="3.83927">
        <ele>1137.33</ele>
        <time>2025-04-15T14:45:17.849Z</time>
      </trkpt>
      <trkpt lat="44.85126" lon="3.83946">
        <ele>1138.28</ele>
        <time>2025-04-15T14:45:21.380Z</time>
      </trkpt>
      <trkpt lat="44.85153" lon="3.83965">
        <ele>1139.13</ele>
        <time>2025-04-15T14:45:24.916Z</time>
      </trkpt>
      <trkpt lat="44.85181" lon="3.83985">
        <ele>1140</ele>
        <time>2025-04-15T14:45:28.457Z</time>
      </trkpt>
      <trkpt lat="44.85209" lon="3.84004">
        <ele>1140.86</ele>
        <time>2025-04-15T14:45:32.003Z</time>
      </trkpt>
      <trkpt lat="44.85237" lon="3.84023">
        <ele>1141.7</ele>
        <time>2025-04-15T14:45:35.554Z</time>
      </trkpt>
      <trkpt lat="44.85265" lon="3.84042">
        <ele>1142.55</ele>
        <time>2025-04-15T14:45:39.109Z</time>
      </trkpt>
      <trkpt lat="44.85293" lon="3.84061">
        <ele>1143.4</ele>
        <time>2025-04-15T14:45:42.669Z</time>
      </trkpt>
      <trkpt lat="44.85321" lon="3.84081">
        <ele>1144.22</ele>
        <time>2025-04-15T14:45:46.234Z</time>
      </trkpt>
      <trkpt lat="44.85349" lon="3.841">
        <ele>1145.05</ele>
        <time>2025-04-15T14:45:49.804Z</time>
      </trkpt>
      <trkpt lat="44.85377" lon="3.84119">
        <ele>1145.83</ele>
        <time>2025-04-15T14:45:53.379Z</time>
      </trkpt>
      <trkpt lat="44.85404" lon="3.84138">
        <ele>1146.58</ele>
        <time>2025-04-15T14:45:56.959Z</time>
      </trkpt>
      <trkpt lat="44.85432" lon="3.84158">
        <ele>1147.35</ele>
        <time>2025-04-15T14:46:00.544Z</time>
      </trkpt>
      <trkpt lat="44.8546" lon="3.84177">
        <ele>1148.08</ele>
        <time>2025-04-15T14:46:04.134Z</time>
      </trkpt>
      <trkpt lat="44.85488" lon="3.84196">
        <ele>1148.7</ele>
        <time>2025-04-15T14:46:07.729Z</time>
      </trkpt>
      <trkpt lat="44.85516" lon="3.84215">
        <ele>1149.21</ele>
        <time>2025-04-15T14:46:11.329Z</time>
      </trkpt>
      <trkpt lat="44.85544" lon="3.84234">
        <ele>1149.6</ele>
        <time>2025-04-15T14:46:14.934Z</time>
      </trkpt>
      <trkpt lat="44.85572" lon="3.84254">
        <ele>1149.89</ele>
        <time>2025-04-15T14:46:18.544Z</time>
      </trkpt>
      <trkpt lat="44.856" lon="3.84273">
        <ele>1150.08</ele>
        <time>2025-04-15T14:46:22.159Z</time>
      </trkpt>
      <trkpt lat="44.85628" lon="3.84292">
        <ele>1150.29</ele>
        <time>2025-04-15T14:46:25.779Z</time>
      </trkpt>
      <trkpt lat="44.85655" lon="3.84311">
        <ele>1150.54</ele>
        <time>2025-04-15T14:46:29.404Z</time>
      </trkpt>
      <trkpt lat="44.85683" lon="3.84331">
        <ele>1150.68</ele>
        <time>2025-04-15T14:46:33.034Z</time>
      </trkpt>
      <trkpt lat="44.85711" lon="3.8435">
        <ele>1150.71</ele>
        <time>2025-04-15T14:46:36.669Z</time>
      </trkpt>
      <trkpt lat="44.85739" lon="3.84369">
        <ele>1150.69</ele>
        <time>2025-04-15T14:46:40.309Z</time>
      </trkpt>
      <trkpt lat="44.85744" lon="3.84371">
        <ele>1150.6</ele>
        <time>2025-04-15T14:46:43.950Z</time>
      </trkpt>
      <trkpt lat="44.85752" lon="3.84378">
        <ele>1150.45</ele>
        <time>2025-04-15T14:46:47.592Z</time>
      </trkpt>
      <trkpt lat="44.85756" lon="3.8438">
        <ele>1150.24</ele>
        <time>2025-04-15T14:46:51.235Z</time>
      </trkpt>
      <trkpt lat="44.85784" lon="3.84399">
        <ele>1150.02</ele>
        <time>2025-04-15T14:46:54.883Z</time>
      </trkpt>
      <trkpt lat="44.85811" lon="3.84418">
        <ele>1149.76</ele>
        <time>2025-04-15T14:46:58.536Z</time>
      </trkpt>
      <trkpt lat="44.85839" lon="3.84437">
        <ele>1149.31</ele>
        <time>2025-04-15T14:47:02.194Z</time>
      </trkpt>
      <trkpt lat="44.85866" lon="3.84456">
        <ele>1148.84</ele>
        <time>2025-04-15T14:47:05.857Z</time>
      </trkpt>
      <trkpt lat="44.85894" lon="3.84474">
        <ele>1148.33</ele>
        <time>2025-04-15T14:47:09.525Z</time>
      </trkpt>
      <trkpt lat="44.85921" lon="3.84493">
        <ele>1147.74</ele>
        <time>2025-04-15T14:47:13.197Z</time>
      </trkpt>
      <trkpt lat="44.85949" lon="3.84512">
        <ele>1147.13</ele>
        <time>2025-04-15T14:47:16.874Z</time>
      </trkpt>
      <trkpt lat="44.85976" lon="3.84531">
        <ele>1146.51</ele>
        <time>2025-04-15T14:47:20.556Z</time>
      </trkpt>
      <trkpt lat="44.86004" lon="3.8455">
        <ele>1145.78</ele>
        <time>2025-04-15T14:47:24.243Z</time>
      </trkpt>
      <trkpt lat="44.86031" lon="3.84569">
        <ele>1144.92</ele>
        <time>2025-04-15T14:47:27.935Z</time>
      </trkpt>
      <trkpt lat="44.86059" lon="3.84588">
        <ele>1144.07</ele>
        <time>2025-04-15T14:47:31.632Z</time>
      </trkpt>
      <trkpt lat="44.86086" lon="3.84607">
        <ele>1143.24</ele>
        <time>2025-04-15T14:47:35.334Z</time>
      </trkpt>
      <trkpt lat="44.86114" lon="3.84626">
        <ele>1142.39</ele>
        <time>2025-04-15T14:47:39.041Z</time>
      </trkpt>
      <trkpt lat="44.86141" lon="3.84644">
        <ele>1141.48</ele>
        <time>2025-04-15T14:47:42.753Z</time>
      </trkpt>
      <trkpt lat="44.86169" lon="3.84663">
        <ele>1140.55</ele>
        <time>2025-04-15T14:47:46.469Z</time>
      </trkpt>
      <trkpt lat="44.86196" lon="3.84682">
        <ele>1139.6</ele>
        <time>2025-04-15T14:47:50.190Z</time>
      </trkpt>
      <trkpt lat="44.86224" lon="3.84701">
        <ele>1138.68</ele>
        <time>2025-04-15T14:47:53.916Z</time>
      </trkpt>
      <trkpt lat="44.86251" lon="3.8472">
        <ele>1137.78</ele>
        <time>2025-04-15T14:47:57.647Z</time>
      </trkpt>
      <trkpt lat="44.86279" lon="3.84739">
        <ele>1136.86</ele>
        <time>2025-04-15T14:48:01.383Z</time>
      </trkpt>
      <trkpt lat="44.86306" lon="3.84758">
        <ele>1135.89</ele>
        <time>2025-04-15T14:48:05.124Z</time>
      </trkpt>
      <trkpt lat="44.86334" lon="3.84777">
        <ele>1134.86</ele>
        <time>2025-04-15T14:48:08.870Z</time>
      </trkpt>
      <trkpt lat="44.86335" lon="3.84779">
        <ele>1134.05</ele>
        <time>2025-04-15T14:48:12.616Z</time>
      </trkpt>
      <trkpt lat="44.86364" lon="3.84794">
        <ele>1133.18</ele>
        <time>2025-04-15T14:48:16.367Z</time>
      </trkpt>
      <trkpt lat="44.86394" lon="3.84808">
        <ele>1132.43</ele>
        <time>2025-04-15T14:48:20.123Z</time>
      </trkpt>
      <trkpt lat="44.86424" lon="3.84823">
        <ele>1131.87</ele>
        <time>2025-04-15T14:48:23.884Z</time>
      </trkpt>
      <trkpt lat="44.86436" lon="3.84829">
        <ele>1131.27</ele>
        <time>2025-04-15T14:48:27.647Z</time>
      </trkpt>
      <trkpt lat="44.86436" lon="3.84867">
        <ele>1130.7</ele>
        <time>2025-04-15T14:48:31.415Z</time>
      </trkpt>
      <trkpt lat="44.86441" lon="3.84878">
        <ele>1130.22</ele>
        <time>2025-04-15T14:48:35.184Z</time>
      </trkpt>
      <trkpt lat="44.86454" lon="3.84911">
        <ele>1129.78</ele>
        <time>2025-04-15T14:48:38.957Z</time>
      </trkpt>
      <trkpt lat="44.86467" lon="3.84944">
        <ele>1129.51</ele>
        <time>2025-04-15T14:48:42.735Z</time>
      </trkpt>
      <trkpt lat="44.8648" lon="3.84977">
        <ele>1129.28</ele>
        <time>2025-04-15T14:48:46.517Z</time>
      </trkpt>
      <trkpt lat="44.86493" lon="3.8501">
        <ele>1129</ele>
        <time>2025-04-15T14:48:50.303Z</time>
      </trkpt>
      <trkpt lat="44.86505" lon="3.85043">
        <ele>1128.85</ele>
        <time>2025-04-15T14:48:54.094Z</time>
      </trkpt>
      <trkpt lat="44.86524" lon="3.85072">
        <ele>1128.88</ele>
        <time>2025-04-15T14:48:57.889Z</time>
      </trkpt>
      <trkpt lat="44.86543" lon="3.85101">
        <ele>1129.03</ele>
        <time>2025-04-15T14:49:01.688Z</time>
      </trkpt>
      <trkpt lat="44.86562" lon="3.85131">
        <ele>1129.2</ele>
        <time>2025-04-15T14:49:05.492Z</time>
      </trkpt>
      <trkpt lat="44.8658" lon="3.8516">
        <ele>1129.51</ele>
        <time>2025-04-15T14:49:09.300Z</time>
      </trkpt>
      <trkpt lat="44.86599" lon="3.85189">
        <ele>1129.97</ele>
        <time>2025-04-15T14:49:13.113Z</time>
      </trkpt>
      <trkpt lat="44.86618" lon="3.85219">
        <ele>1130.57</ele>
        <time>2025-04-15T14:49:16.930Z</time>
      </trkpt>
      <trkpt lat="44.86637" lon="3.85248">
        <ele>1131.22</ele>
        <time>2025-04-15T14:49:20.752Z</time>
      </trkpt>
      <trkpt lat="44.86656" lon="3.85277">
        <ele>1131.8</ele>
        <time>2025-04-15T14:49:24.578Z</time>
      </trkpt>
      <trkpt lat="44.86664" lon="3.85297">
        <ele>1132.47</ele>
        <time>2025-04-15T14:49:28.407Z</time>
      </trkpt>
      <trkpt lat="44.86673" lon="3.85318">
        <ele>1133.27</ele>
        <time>2025-04-15T14:49:32.239Z</time>
      </trkpt>
      <trkpt lat="44.86683" lon="3.85358">
        <ele>1134.13</ele>
        <time>2025-04-15T14:49:36.076Z</time>
      </trkpt>
      <trkpt lat="44.86692" lon="3.85399">
        <ele>1135</ele>
        <time>2025-04-15T14:49:39.918Z</time>
      </trkpt>
      <trkpt lat="44.86702" lon="3.8544">
        <ele>1135.92</ele>
        <time>2025-04-15T14:49:43.764Z</time>
      </trkpt>
      <trkpt lat="44.86712" lon="3.85481">
        <ele>1136.88</ele>
        <time>2025-04-15T14:49:47.615Z</time>
      </trkpt>
      <trkpt lat="44.86722" lon="3.85522">
        <ele>1137.84</ele>
        <time>2025-04-15T14:49:51.471Z</time>
      </trkpt>
      <trkpt lat="44.86732" lon="3.85563">
        <ele>1138.88</ele>
        <time>2025-04-15T14:49:55.332Z</time>
      </trkpt>
      <trkpt lat="44.86742" lon="3.85604">
        <ele>1139.95</ele>
        <time>2025-04-15T14:49:59.198Z</time>
      </trkpt>
      <trkpt lat="44.86752" lon="3.85644">
        <ele>1140.95</ele>
        <time>2025-04-15T14:50:03.069Z</time>
      </trkpt>
      <trkpt lat="44.86762" lon="3.85685">
        <ele>1141.96</ele>
        <time>2025-04-15T14:50:06.945Z</time>
      </trkpt>
      <trkpt lat="44.86771" lon="3.85725">
        <ele>1143.03</ele>
        <time>2025-04-15T14:50:10.826Z</time>
      </trkpt>
      <trkpt lat="44.86779" lon="3.85747">
        <ele>1144.03</ele>
        <time>2025-04-15T14:50:14.710Z</time>
      </trkpt>
      <trkpt lat="44.86786" lon="3.85768">
        <ele>1145.01</ele>
        <time>2025-04-15T14:50:18.596Z</time>
      </trkpt>
      <trkpt lat="44.86798" lon="3.85786">
        <ele>1145.94</ele>
        <time>2025-04-15T14:50:22.485Z</time>
      </trkpt>
      <trkpt lat="44.8681" lon="3.85805">
        <ele>1146.78</ele>
        <time>2025-04-15T14:50:26.377Z</time>
      </trkpt>
      <trkpt lat="44.86824" lon="3.85821">
        <ele>1147.5</ele>
        <time>2025-04-15T14:50:30.272Z</time>
      </trkpt>
      <trkpt lat="44.86838" lon="3.85837">
        <ele>1148.14</ele>
        <time>2025-04-15T14:50:34.170Z</time>
      </trkpt>
      <trkpt lat="44.86864" lon="3.85856">
        <ele>1148.66</ele>
        <time>2025-04-15T14:50:38.072Z</time>
      </trkpt>
      <trkpt lat="44.86884" lon="3.85865">
        <ele>1149.07</ele>
        <time>2025-04-15T14:50:41.978Z</time>
      </trkpt>
      <trkpt lat="44.86904" lon="3.85875">
        <ele>1149.37</ele>
        <time>2025-04-15T14:50:45.887Z</time>
      </trkpt>
      <trkpt lat="44.86924" lon="3.85884">
        <ele>1149.55</ele>
        <time>2025-04-15T14:50:49.799Z</time>
      </trkpt>
      <trkpt lat="44.86944" lon="3.85893">
        <ele>1149.49</ele>
        <time>2025-04-15T14:50:53.715Z</time>
      </trkpt>
      <trkpt lat="44.86965" lon="3.85901">
        <ele>1149.26</ele>
        <time>2025-04-15T14:50:57.634Z</time>
      </trkpt>
      <trkpt lat="44.86984" lon="3.85916">
        <ele>1148.91</ele>
        <time>2025-04-15T14:51:01.557Z</time>
      </trkpt>
      <trkpt lat="44.87001" lon="3.85944">
        <ele>1148.6</ele>
        <time>2025-04-15T14:51:05.484Z</time>
      </trkpt>
      <trkpt lat="44.87014" lon="3.85979">
        <ele>1148.21</ele>
        <time>2025-04-15T14:51:09.415Z</time>
      </trkpt>
      <trkpt lat="44.87027" lon="3.86013">
        <ele>1147.57</ele>
        <time>2025-04-15T14:51:13.351Z</time>
      </trkpt>
      <trkpt lat="44.8704" lon="3.86047">
        <ele>1146.69</ele>
        <time>2025-04-15T14:51:17.291Z</time>
      </trkpt>
      <trkpt lat="44.8705" lon="3.86086">
        <ele>1145.68</ele>
        <time>2025-04-15T14:51:21.236Z</time>
      </trkpt>
      <trkpt lat="44.87059" lon="3.86122">
        <ele>1144.5</ele>
        <time>2025-04-15T14:51:25.185Z</time>
      </trkpt>
      <trkpt lat="44.8708" lon="3.86148">
        <ele>1143.13</ele>
        <time>2025-04-15T14:51:29.139Z</time>
      </trkpt>
      <trkpt lat="44.87106" lon="3.86163">
        <ele>1141.76</ele>
        <time>2025-04-15T14:51:33.097Z</time>
      </trkpt>
      <trkpt lat="44.87125" lon="3.86163">
        <ele>1140.32</ele>
        <time>2025-04-15T14:51:37.058Z</time>
      </trkpt>
      <trkpt lat="44.87145" lon="3.86154">
        <ele>1138.78</ele>
        <time>2025-04-15T14:51:41.023Z</time>
      </trkpt>
      <trkpt lat="44.87161" lon="3.8615">
        <ele>1137.19</ele>
        <time>2025-04-15T14:51:44.990Z</time>
      </trkpt>
      <trkpt lat="44.87177" lon="3.86146">
        <ele>1135.56</ele>
        <time>2025-04-15T14:51:48.960Z</time>
      </trkpt>
      <trkpt lat="44.87194" lon="3.86139">
        <ele>1133.87</ele>
        <time>2025-04-15T14:51:52.933Z</time>
      </trkpt>
      <trkpt lat="44.87219" lon="3.8612">
        <ele>1132.06</ele>
        <time>2025-04-15T14:51:56.910Z</time>
      </trkpt>
      <trkpt lat="44.87243" lon="3.86101">
        <ele>1130.16</ele>
        <time>2025-04-15T14:52:00.892Z</time>
      </trkpt>
      <trkpt lat="44.87252" lon="3.86099">
        <ele>1128.35</ele>
        <time>2025-04-15T14:52:04.875Z</time>
      </trkpt>
      <trkpt lat="44.8728" lon="3.86114">
        <ele>1126.44</ele>
        <time>2025-04-15T14:52:08.863Z</time>
      </trkpt>
      <trkpt lat="44.87301" lon="3.86138">
        <ele>1124.55</ele>
        <time>2025-04-15T14:52:12.855Z</time>
      </trkpt>
      <trkpt lat="44.87323" lon="3.86163">
        <ele>1122.62</ele>
        <time>2025-04-15T14:52:16.852Z</time>
      </trkpt>
      <trkpt lat="44.87344" lon="3.86187">
        <ele>1120.72</ele>
        <time>2025-04-15T14:52:20.853Z</time>
      </trkpt>
      <trkpt lat="44.87366" lon="3.86212">
        <ele>1118.86</ele>
        <time>2025-04-15T14:52:24.859Z</time>
      </trkpt>
      <trkpt lat="44.87387" lon="3.86236">
        <ele>1117.07</ele>
        <time>2025-04-15T14:52:28.869Z</time>
      </trkpt>
      <trkpt lat="44.87402" lon="3.8626">
        <ele>1115.31</ele>
        <time>2025-04-15T14:52:32.883Z</time>
      </trkpt>
      <trkpt lat="44.87407" lon="3.86282">
        <ele>1113.58</ele>
        <time>2025-04-15T14:52:36.899Z</time>
      </trkpt>
      <trkpt lat="44.87411" lon="3.86305">
        <ele>1111.93</ele>
        <time>2025-04-15T14:52:40.918Z</time>
      </trkpt>
      <trkpt lat="44.87415" lon="3.86339">
        <ele>1110.32</ele>
        <time>2025-04-15T14:52:44.941Z</time>
      </trkpt>
      <trkpt lat="44.87418" lon="3.86372">
        <ele>1108.73</ele>
        <time>2025-04-15T14:52:48.968Z</time>
      </trkpt>
      <trkpt lat="44.87422" lon="3.86406">
        <ele>1107.14</ele>
        <time>2025-04-15T14:52:52.999Z</time>
      </trkpt>
      <trkpt lat="44.87426" lon="3.8644">
        <ele>1105.58</ele>
        <time>2025-04-15T14:52:57.033Z</time>
      </trkpt>
      <trkpt lat="44.87432" lon="3.8647">
        <ele>1104.06</ele>
        <time>2025-04-15T14:53:01.071Z</time>
      </trkpt>
      <trkpt lat="44.87441" lon="3.86487">
        <ele>1102.54</ele>
        <time>2025-04-15T14:53:05.111Z</time>
      </trkpt>
      <trkpt lat="44.87467" lon="3.86498">
        <ele>1101</ele>
        <time>2025-04-15T14:53:09.156Z</time>
      </trkpt>
      <trkpt lat="44.87482" lon="3.86509">
        <ele>1099.52</ele>
        <time>2025-04-15T14:53:13.203Z</time>
      </trkpt>
      <trkpt lat="44.87501" lon="3.86533">
        <ele>1098.03</ele>
        <time>2025-04-15T14:53:17.255Z</time>
      </trkpt>
      <trkpt lat="44.8752" lon="3.86557">
        <ele>1096.59</ele>
        <time>2025-04-15T14:53:21.311Z</time>
      </trkpt>
      <trkpt lat="44.8754" lon="3.86581">
        <ele>1095.2</ele>
        <time>2025-04-15T14:53:25.371Z</time>
      </trkpt>
      <trkpt lat="44.87559" lon="3.86609">
        <ele>1093.86</ele>
        <time>2025-04-15T14:53:29.435Z</time>
      </trkpt>
      <trkpt lat="44.87572" lon="3.86648">
        <ele>1092.54</ele>
        <time>2025-04-15T14:53:33.504Z</time>
      </trkpt>
      <trkpt lat="44.8758" lon="3.86672">
        <ele>1091.21</ele>
        <time>2025-04-15T14:53:37.576Z</time>
      </trkpt>
      <trkpt lat="44.87588" lon="3.86696">
        <ele>1089.89</ele>
        <time>2025-04-15T14:53:41.651Z</time>
      </trkpt>
      <trkpt lat="44.87595" lon="3.86721">
        <ele>1088.56</ele>
        <time>2025-04-15T14:53:45.729Z</time>
      </trkpt>
      <trkpt lat="44.87613" lon="3.86751">
        <ele>1087.2</ele>
        <time>2025-04-15T14:53:49.812Z</time>
      </trkpt>
      <trkpt lat="44.8763" lon="3.86769">
        <ele>1085.93</ele>
        <time>2025-04-15T14:53:53.898Z</time>
      </trkpt>
      <trkpt lat="44.87647" lon="3.86787">
        <ele>1084.7</ele>
        <time>2025-04-15T14:53:57.988Z</time>
      </trkpt>
      <trkpt lat="44.87673" lon="3.86805">
        <ele>1083.55</ele>
        <time>2025-04-15T14:54:02.082Z</time>
      </trkpt>
      <trkpt lat="44.877" lon="3.86823">
        <ele>1082.41</ele>
        <time>2025-04-15T14:54:06.181Z</time>
      </trkpt>
      <trkpt lat="44.87726" lon="3.8684">
        <ele>1081.22</ele>
        <time>2025-04-15T14:54:10.285Z</time>
      </trkpt>
      <trkpt lat="44.87753" lon="3.86858">
        <ele>1080.04</ele>
        <time>2025-04-15T14:54:14.393Z</time>
      </trkpt>
      <trkpt lat="44.87779" lon="3.86875">
        <ele>1078.82</ele>
        <time>2025-04-15T14:54:18.506Z</time>
      </trkpt>
      <trkpt lat="44.87806" lon="3.86893">
        <ele>1077.6</ele>
        <time>2025-04-15T14:54:22.624Z</time>
      </trkpt>
      <trkpt lat="44.87827" lon="3.86898">
        <ele>1076.44</ele>
        <time>2025-04-15T14:54:26.745Z</time>
      </trkpt>
      <trkpt lat="44.87849" lon="3.86903">
        <ele>1075.37</ele>
        <time>2025-04-15T14:54:30.870Z</time>
      </trkpt>
      <trkpt lat="44.87864" lon="3.86914">
        <ele>1074.37</ele>
        <time>2025-04-15T14:54:34.997Z</time>
      </trkpt>
      <trkpt lat="44.87883" lon="3.86944">
        <ele>1073.31</ele>
        <time>2025-04-15T14:54:39.129Z</time>
      </trkpt>
      <trkpt lat="44.87902" lon="3.86974">
        <ele>1072.15</ele>
        <time>2025-04-15T14:54:43.265Z</time>
      </trkpt>
      <trkpt lat="44.87921" lon="3.87004">
        <ele>1071</ele>
        <time>2025-04-15T14:54:47.406Z</time>
      </trkpt>
      <trkpt lat="44.8794" lon="3.87034">
        <ele>1069.87</ele>
        <time>2025-04-15T14:54:51.552Z</time>
      </trkpt>
      <trkpt lat="44.87959" lon="3.87064">
        <ele>1068.69</ele>
        <time>2025-04-15T14:54:55.702Z</time>
      </trkpt>
      <trkpt lat="44.87978" lon="3.87094">
        <ele>1067.51</ele>
        <time>2025-04-15T14:54:59.857Z</time>
      </trkpt>
      <trkpt lat="44.87997" lon="3.87124">
        <ele>1066.39</ele>
        <time>2025-04-15T14:55:04.016Z</time>
      </trkpt>
      <trkpt lat="44.88012" lon="3.87137">
        <ele>1065.3</ele>
        <time>2025-04-15T14:55:08.178Z</time>
      </trkpt>
      <trkpt lat="44.88036" lon="3.87146">
        <ele>1064.12</ele>
        <time>2025-04-15T14:55:12.344Z</time>
      </trkpt>
      <trkpt lat="44.88061" lon="3.87154">
        <ele>1062.91</ele>
        <time>2025-04-15T14:55:16.514Z</time>
      </trkpt>
      <trkpt lat="44.8808" lon="3.87169">
        <ele>1061.72</ele>
        <time>2025-04-15T14:55:20.688Z</time>
      </trkpt>
      <trkpt lat="44.88097" lon="3.87194">
        <ele>1060.54</ele>
        <time>2025-04-15T14:55:24.866Z</time>
      </trkpt>
      <trkpt lat="44.88115" lon="3.87218">
        <ele>1059.4</ele>
        <time>2025-04-15T14:55:29.048Z</time>
      </trkpt>
      <trkpt lat="44.88132" lon="3.87242">
        <ele>1058.22</ele>
        <time>2025-04-15T14:55:33.233Z</time>
      </trkpt>
      <trkpt lat="44.88149" lon="3.87266">
        <ele>1056.96</ele>
        <time>2025-04-15T14:55:37.422Z</time>
      </trkpt>
      <trkpt lat="44.88163" lon="3.87304">
        <ele>1055.61</ele>
        <time>2025-04-15T14:55:41.616Z</time>
      </trkpt>
      <trkpt lat="44.88177" lon="3.87341">
        <ele>1054.19</ele>
        <time>2025-04-15T14:55:45.815Z</time>
      </trkpt>
      <trkpt lat="44.88185" lon="3.87376">
        <ele>1052.76</ele>
        <time>2025-04-15T14:55:50.018Z</time>
      </trkpt>
      <trkpt lat="44.88193" lon="3.87411">
        <ele>1051.37</ele>
        <time>2025-04-15T14:55:54.225Z</time>
      </trkpt>
      <trkpt lat="44.882" lon="3.87446">
        <ele>1050.01</ele>
        <time>2025-04-15T14:55:58.437Z</time>
      </trkpt>
      <trkpt lat="44.88204" lon="3.87477">
        <ele>1048.66</ele>
        <time>2025-04-15T14:56:02.652Z</time>
      </trkpt>
      <trkpt lat="44.88208" lon="3.87508">
        <ele>1047.31</ele>
        <time>2025-04-15T14:56:06.871Z</time>
      </trkpt>
      <trkpt lat="44.88211" lon="3.87538">
        <ele>1045.97</ele>
        <time>2025-04-15T14:56:11.093Z</time>
      </trkpt>
      <trkpt lat="44.8822" lon="3.87558">
        <ele>1044.65</ele>
        <time>2025-04-15T14:56:15.318Z</time>
      </trkpt>
      <trkpt lat="44.88239" lon="3.87579">
        <ele>1043.34</ele>
        <time>2025-04-15T14:56:19.547Z</time>
      </trkpt>
      <trkpt lat="44.88258" lon="3.87601">
        <ele>1042.01</ele>
        <time>2025-04-15T14:56:23.780Z</time>
      </trkpt>
      <trkpt lat="44.88258" lon="3.87601">
        <ele>1040.8</ele>
        <time>2025-04-15T14:56:28.013Z</time>
      </trkpt>
      <trkpt lat="44.88276" lon="3.87616">
        <ele>1039.59</ele>
        <time>2025-04-15T14:56:32.249Z</time>
      </trkpt>
      <trkpt lat="44.88297" lon="3.87641">
        <ele>1038.34</ele>
        <time>2025-04-15T14:56:36.489Z</time>
      </trkpt>
      <trkpt lat="44.8832" lon="3.8767">
        <ele>1037.15</ele>
        <time>2025-04-15T14:56:40.734Z</time>
      </trkpt>
      <trkpt lat="44.88343" lon="3.87699">
        <ele>1035.98</ele>
        <time>2025-04-15T14:56:44.984Z</time>
      </trkpt>
      <trkpt lat="44.88366" lon="3.87727">
        <ele>1034.86</ele>
        <time>2025-04-15T14:56:49.239Z</time>
      </trkpt>
      <trkpt lat="44.88383" lon="3.87754">
        <ele>1033.86</ele>
        <time>2025-04-15T14:56:53.498Z</time>
      </trkpt>
      <trkpt lat="44.88401" lon="3.8778">
        <ele>1032.93</ele>
        <time>2025-04-15T14:56:57.761Z</time>
      </trkpt>
      <trkpt lat="44.88419" lon="3.87806">
        <ele>1032.04</ele>
        <time>2025-04-15T14:57:02.028Z</time>
      </trkpt>
      <trkpt lat="44.88437" lon="3.87832">
        <ele>1031.27</ele>
        <time>2025-04-15T14:57:06.300Z</time>
      </trkpt>
      <trkpt lat="44.88461" lon="3.8785">
        <ele>1030.66</ele>
        <time>2025-04-15T14:57:10.576Z</time>
      </trkpt>
      <trkpt lat="44.88486" lon="3.87867">
        <ele>1030.06</ele>
        <time>2025-04-15T14:57:14.856Z</time>
      </trkpt>
      <trkpt lat="44.88501" lon="3.87882">
        <ele>1029.47</ele>
        <time>2025-04-15T14:57:19.139Z</time>
      </trkpt>
      <trkpt lat="44.88519" lon="3.87917">
        <ele>1028.9</ele>
        <time>2025-04-15T14:57:23.427Z</time>
      </trkpt>
      <trkpt lat="44.88537" lon="3.87953">
        <ele>1028.47</ele>
        <time>2025-04-15T14:57:27.720Z</time>
      </trkpt>
      <trkpt lat="44.88556" lon="3.87979">
        <ele>1028.22</ele>
        <time>2025-04-15T14:57:32.017Z</time>
      </trkpt>
      <trkpt lat="44.88574" lon="3.88006">
        <ele>1028.07</ele>
        <time>2025-04-15T14:57:36.319Z</time>
      </trkpt>
      <trkpt lat="44.88593" lon="3.88014">
        <ele>1027.99</ele>
        <time>2025-04-15T14:57:40.624Z</time>
      </trkpt>
      <trkpt lat="44.88612" lon="3.88021">
        <ele>1027.91</ele>
        <time>2025-04-15T14:57:44.932Z</time>
      </trkpt>
      <trkpt lat="44.88627" lon="3.88035">
        <ele>1027.85</ele>
        <time>2025-04-15T14:57:49.243Z</time>
      </trkpt>
      <trkpt lat="44.88643" lon="3.88049">
        <ele>1027.81</ele>
        <time>2025-04-15T14:57:53.557Z</time>
      </trkpt>
      <trkpt lat="44.88664" lon="3.88053">
        <ele>1027.82</ele>
        <time>2025-04-15T14:57:57.874Z</time>
      </trkpt>
      <trkpt lat="44.88685" lon="3.88058">
        <ele>1027.9</ele>
        <time>2025-04-15T14:58:02.195Z</time>
      </trkpt>
      <trkpt lat="44.88705" lon="3.88068">
        <ele>1028.04</ele>
        <time>2025-04-15T14:58:06.519Z</time>
      </trkpt>
      <trkpt lat="44.88726" lon="3.88088">
        <ele>1028.08</ele>
        <time>2025-04-15T14:58:10.847Z</time>
      </trkpt>
      <trkpt lat="44.88743" lon="3.88114">
        <ele>1028.09</ele>
        <time>2025-04-15T14:58:15.179Z</time>
      </trkpt>
      <trkpt lat="44.88763" lon="3.88118">
        <ele>1028.14</ele>
        <time>2025-04-15T14:58:19.514Z</time>
      </trkpt>
      <trkpt lat="44.88784" lon="3.88099">
        <ele>1028.19</ele>
        <time>2025-04-15T14:58:23.853Z</time>
      </trkpt>
      <trkpt lat="44.88803" lon="3.88081">
        <ele>1028.17</ele>
        <time>2025-04-15T14:58:28.196Z</time>
      </trkpt>
      <trkpt lat="44.8881" lon="3.88077">
        <ele>1028.15</ele>
        <time>2025-04-15T14:58:32.540Z</time>
      </trkpt>
      <trkpt lat="44.88822" lon="3.88046">
        <ele>1028.12</ele>
        <time>2025-04-15T14:58:36.888Z</time>
      </trkpt>
      <trkpt lat="44.88833" lon="3.88015">
        <ele>1028.04</ele>
        <time>2025-04-15T14:58:41.240Z</time>
      </trkpt>
      <trkpt lat="44.88842" lon="3.87991">
        <ele>1027.95</ele>
        <time>2025-04-15T14:58:45.595Z</time>
      </trkpt>
      <trkpt lat="44.88851" lon="3.87962">
        <ele>1027.76</ele>
        <time>2025-04-15T14:58:49.954Z</time>
      </trkpt>
      <trkpt lat="44.88861" lon="3.87932">
        <ele>1027.48</ele>
        <time>2025-04-15T14:58:54.317Z</time>
      </trkpt>
      <trkpt lat="44.8887" lon="3.87903">
        <ele>1027.13</ele>
        <time>2025-04-15T14:58:58.683Z</time>
      </trkpt>
      <trkpt lat="44.88891" lon="3.87905">
        <ele>1026.67</ele>
        <time>2025-04-15T14:59:03.053Z</time>
      </trkpt>
      <trkpt lat="44.88919" lon="3.87899">
        <ele>1026.12</ele>
        <time>2025-04-15T14:59:07.427Z</time>
      </trkpt>
      <trkpt lat="44.88947" lon="3.87892">
        <ele>1025.54</ele>
        <time>2025-04-15T14:59:11.806Z</time>
      </trkpt>
      <trkpt lat="44.88974" lon="3.87885">
        <ele>1024.86</ele>
        <time>2025-04-15T14:59:16.189Z</time>
      </trkpt>
      <trkpt lat="44.89002" lon="3.87879">
        <ele>1024.16</ele>
        <time>2025-04-15T14:59:20.577Z</time>
      </trkpt>
      <trkpt lat="44.8903" lon="3.87872">
        <ele>1023.35</ele>
        <time>2025-04-15T14:59:24.969Z</time>
      </trkpt>
      <trkpt lat="44.89057" lon="3.87865">
        <ele>1022.45</ele>
        <time>2025-04-15T14:59:29.366Z</time>
      </trkpt>
      <trkpt lat="44.89085" lon="3.87859">
        <ele>1021.53</ele>
        <time>2025-04-15T14:59:33.767Z</time>
      </trkpt>
      <trkpt lat="44.89112" lon="3.87852">
        <ele>1020.65</ele>
        <time>2025-04-15T14:59:38.173Z</time>
      </trkpt>
      <trkpt lat="44.8914" lon="3.87845">
        <ele>1019.71</ele>
        <time>2025-04-15T14:59:42.583Z</time>
      </trkpt>
      <trkpt lat="44.89164" lon="3.87843">
        <ele>1018.66</ele>
        <time>2025-04-15T14:59:46.997Z</time>
      </trkpt>
      <trkpt lat="44.89188" lon="3.87841">
        <ele>1017.55</ele>
        <time>2025-04-15T14:59:51.415Z</time>
      </trkpt>
      <trkpt lat="44.89218" lon="3.87838">
        <ele>1016.36</ele>
        <time>2025-04-15T14:59:55.838Z</time>
      </trkpt>
      <trkpt lat="44.89248" lon="3.87836">
        <ele>1015.11</ele>
        <time>2025-04-15T15:00:00.265Z</time>
      </trkpt>
      <trkpt lat="44.89278" lon="3.87833">
        <ele>1013.8</ele>
        <time>2025-04-15T15:00:04.697Z</time>
      </trkpt>
      <trkpt lat="44.89309" lon="3.8783">
        <ele>1012.51</ele>
        <time>2025-04-15T15:00:09.134Z</time>
      </trkpt>
      <trkpt lat="44.89339" lon="3.87827">
        <ele>1011.15</ele>
        <time>2025-04-15T15:00:13.576Z</time>
      </trkpt>
      <trkpt lat="44.89369" lon="3.87824">
        <ele>1009.67</ele>
        <time>2025-04-15T15:00:18.023Z</time>
      </trkpt>
      <trkpt lat="44.894" lon="3.87822">
        <ele>1008.18</ele>
        <time>2025-04-15T15:00:22.475Z</time>
      </trkpt>
      <trkpt lat="44.89431" lon="3.87824">
        <ele>1006.72</ele>
        <time>2025-04-15T15:00:26.932Z</time>
      </trkpt>
      <trkpt lat="44.89462" lon="3.87827">
        <ele>1005.18</ele>
        <time>2025-04-15T15:00:31.394Z</time>
      </trkpt>
      <trkpt lat="44.89493" lon="3.87829">
        <ele>1003.66</ele>
        <time>2025-04-15T15:00:35.861Z</time>
      </trkpt>
      <trkpt lat="44.89524" lon="3.87832">
        <ele>1002.22</ele>
        <time>2025-04-15T15:00:40.333Z</time>
      </trkpt>
      <trkpt lat="44.89555" lon="3.87834">
        <ele>1000.72</ele>
        <time>2025-04-15T15:00:44.810Z</time>
      </trkpt>
      <trkpt lat="44.89587" lon="3.87837">
        <ele>999.13</ele>
        <time>2025-04-15T15:00:49.292Z</time>
      </trkpt>
      <trkpt lat="44.89615" lon="3.8784">
        <ele>997.6</ele>
        <time>2025-04-15T15:00:53.778Z</time>
      </trkpt>
      <trkpt lat="44.89642" lon="3.87844">
        <ele>996.14</ele>
        <time>2025-04-15T15:00:58.269Z</time>
      </trkpt>
      <trkpt lat="44.8967" lon="3.87848">
        <ele>994.73</ele>
        <time>2025-04-15T15:01:02.764Z</time>
      </trkpt>
      <trkpt lat="44.89698" lon="3.87852">
        <ele>993.26</ele>
        <time>2025-04-15T15:01:07.264Z</time>
      </trkpt>
      <trkpt lat="44.89722" lon="3.87856">
        <ele>991.77</ele>
        <time>2025-04-15T15:01:11.767Z</time>
      </trkpt>
      <trkpt lat="44.89744" lon="3.8787">
        <ele>990.28</ele>
        <time>2025-04-15T15:01:16.274Z</time>
      </trkpt>
      <trkpt lat="44.89766" lon="3.87883">
        <ele>988.76</ele>
        <time>2025-04-15T15:01:20.785Z</time>
      </trkpt>
      <trkpt lat="44.89788" lon="3.87897">
        <ele>987.21</ele>
        <time>2025-04-15T15:01:25.300Z</time>
      </trkpt>
      <trkpt lat="44.89816" lon="3.87903">
        <ele>985.6</ele>
        <time>2025-04-15T15:01:29.820Z</time>
      </trkpt>
      <trkpt lat="44.89844" lon="3.87897">
        <ele>984.1</ele>
        <time>2025-04-15T15:01:34.344Z</time>
      </trkpt>
      <trkpt lat="44.89874" lon="3.87884">
        <ele>982.63</ele>
        <time>2025-04-15T15:01:38.873Z</time>
      </trkpt>
      <trkpt lat="44.89881" lon="3.87878">
        <ele>981.28</ele>
        <time>2025-04-15T15:01:43.403Z</time>
      </trkpt>
      <trkpt lat="44.89889" lon="3.87865">
        <ele>979.98</ele>
        <time>2025-04-15T15:01:47.935Z</time>
      </trkpt>
      <trkpt lat="44.89902" lon="3.87835">
        <ele>978.69</ele>
        <time>2025-04-15T15:01:52.471Z</time>
      </trkpt>
      <trkpt lat="44.899" lon="3.87805">
        <ele>977.39</ele>
        <time>2025-04-15T15:01:57.011Z</time>
      </trkpt>
      <trkpt lat="44.89891" lon="3.87779">
        <ele>976.11</ele>
        <time>2025-04-15T15:02:01.554Z</time>
      </trkpt>
      <trkpt lat="44.89873" lon="3.87751">
        <ele>974.97</ele>
        <time>2025-04-15T15:02:06.101Z</time>
      </trkpt>
      <trkpt lat="44.89855" lon="3.87723">
        <ele>973.96</ele>
        <time>2025-04-15T15:02:10.653Z</time>
      </trkpt>
      <trkpt lat="44.89838" lon="3.87692">
        <ele>972.8</ele>
        <time>2025-04-15T15:02:15.209Z</time>
      </trkpt>
      <trkpt lat="44.8982" lon="3.8766">
        <ele>971.59</ele>
        <time>2025-04-15T15:02:19.770Z</time>
      </trkpt>
      <trkpt lat="44.89803" lon="3.87629">
        <ele>970.46</ele>
        <time>2025-04-15T15:02:24.335Z</time>
      </trkpt>
      <trkpt lat="44.89795" lon="3.87596">
        <ele>969.43</ele>
        <time>2025-04-15T15:02:28.904Z</time>
      </trkpt>
      <trkpt lat="44.89793" lon="3.87569">
        <ele>968.67</ele>
        <time>2025-04-15T15:02:33.476Z</time>
      </trkpt>
      <trkpt lat="44.89799" lon="3.87538">
        <ele>968.03</ele>
        <time>2025-04-15T15:02:38.052Z</time>
      </trkpt>
      <trkpt lat="44.89806" lon="3.87508">
        <ele>967.62</ele>
        <time>2025-04-15T15:02:42.631Z</time>
      </trkpt>
      <trkpt lat="44.89821" lon="3.87487">
        <ele>967.34</ele>
        <time>2025-04-15T15:02:47.214Z</time>
      </trkpt>
      <trkpt lat="44.89842" lon="3.87474">
        <ele>967.29</ele>
        <time>2025-04-15T15:02:51.801Z</time>
      </trkpt>
      <trkpt lat="44.89861" lon="3.87472">
        <ele>967.36</ele>
        <time>2025-04-15T15:02:56.391Z</time>
      </trkpt>
      <trkpt lat="44.89881" lon="3.87476">
        <ele>967.46</ele>
        <time>2025-04-15T15:03:00.984Z</time>
      </trkpt>
      <trkpt lat="44.89901" lon="3.87486">
        <ele>967.61</ele>
        <time>2025-04-15T15:03:05.580Z</time>
      </trkpt>
      <trkpt lat="44.89922" lon="3.87496">
        <ele>967.88</ele>
        <time>2025-04-15T15:03:10.180Z</time>
      </trkpt>
      <trkpt lat="44.89943" lon="3.87506">
        <ele>968.25</ele>
        <time>2025-04-15T15:03:14.783Z</time>
      </trkpt>
      <trkpt lat="44.89971" lon="3.87511">
        <ele>968.86</ele>
        <time>2025-04-15T15:03:19.391Z</time>
      </trkpt>
      <trkpt lat="44.89988" lon="3.87508">
        <ele>969.55</ele>
        <time>2025-04-15T15:03:24.002Z</time>
      </trkpt>
      <trkpt lat="44.90001" lon="3.87496">
        <ele>970.31</ele>
        <time>2025-04-15T15:03:28.615Z</time>
      </trkpt>
      <trkpt lat="44.90012" lon="3.87478">
        <ele>971.15</ele>
        <time>2025-04-15T15:03:33.231Z</time>
      </trkpt>
      <trkpt lat="44.90022" lon="3.87441">
        <ele>972.01</ele>
        <time>2025-04-15T15:03:37.851Z</time>
      </trkpt>
      <trkpt lat="44.90032" lon="3.87403">
        <ele>972.88</ele>
        <time>2025-04-15T15:03:42.476Z</time>
      </trkpt>
      <trkpt lat="44.90042" lon="3.87365">
        <ele>973.79</ele>
        <time>2025-04-15T15:03:47.106Z</time>
      </trkpt>
      <trkpt lat="44.90053" lon="3.87327">
        <ele>974.79</ele>
        <time>2025-04-15T15:03:51.740Z</time>
      </trkpt>
      <trkpt lat="44.90063" lon="3.8729">
        <ele>975.89</ele>
        <time>2025-04-15T15:03:56.379Z</time>
      </trkpt>
      <trkpt lat="44.90074" lon="3.87261">
        <ele>976.81</ele>
        <time>2025-04-15T15:04:01.021Z</time>
      </trkpt>
      <trkpt lat="44.90084" lon="3.87232">
        <ele>977.71</ele>
        <time>2025-04-15T15:04:05.667Z</time>
      </trkpt>
      <trkpt lat="44.901" lon="3.87199">
        <ele>978.68</ele>
        <time>2025-04-15T15:04:10.318Z</time>
      </trkpt>
      <trkpt lat="44.90115" lon="3.87166">
        <ele>979.6</ele>
        <time>2025-04-15T15:04:14.973Z</time>
      </trkpt>
      <trkpt lat="44.90131" lon="3.87134">
        <ele>980.51</ele>
        <time>2025-04-15T15:04:19.632Z</time>
      </trkpt>
      <trkpt lat="44.90146" lon="3.87101">
        <ele>981.38</ele>
        <time>2025-04-15T15:04:24.296Z</time>
      </trkpt>
      <trkpt lat="44.90161" lon="3.87069">
        <ele>982.13</ele>
        <time>2025-04-15T15:04:28.964Z</time>
      </trkpt>
      <trkpt lat="44.90177" lon="3.87036">
        <ele>982.89</ele>
        <time>2025-04-15T15:04:33.637Z</time>
      </trkpt>
      <trkpt lat="44.90183" lon="3.87011">
        <ele>983.64</ele>
        <time>2025-04-15T15:04:38.313Z</time>
      </trkpt>
      <trkpt lat="44.9019" lon="3.86985">
        <ele>984.36</ele>
        <time>2025-04-15T15:04:42.992Z</time>
      </trkpt>
      <trkpt lat="44.90192" lon="3.86946">
        <ele>985.02</ele>
        <time>2025-04-15T15:04:47.675Z</time>
      </trkpt>
      <trkpt lat="44.9019" lon="3.86919">
        <ele>985.64</ele>
        <time>2025-04-15T15:04:52.362Z</time>
      </trkpt>
      <trkpt lat="44.90187" lon="3.86893">
        <ele>986.16</ele>
        <time>2025-04-15T15:04:57.052Z</time>
      </trkpt>
      <trkpt lat="44.90192" lon="3.86865">
        <ele>986.61</ele>
        <time>2025-04-15T15:05:01.745Z</time>
      </trkpt>
      <trkpt lat="44.90198" lon="3.8685">
        <ele>986.96</ele>
        <time>2025-04-15T15:05:06.440Z</time>
      </trkpt>
      <trkpt lat="44.90218" lon="3.8683">
        <ele>987.28</ele>
        <time>2025-04-15T15:05:11.139Z</time>
      </trkpt>
      <trkpt lat="44.90246" lon="3.86818">
        <ele>987.43</ele>
        <time>2025-04-15T15:05:15.842Z</time>
      </trkpt>
      <trkpt lat="44.90275" lon="3.86805">
        <ele>987.63</ele>
        <time>2025-04-15T15:05:20.550Z</time>
      </trkpt>
      <trkpt lat="44.9029" lon="3.86805">
        <ele>987.78</ele>
        <time>2025-04-15T15:05:25.261Z</time>
      </trkpt>
      <trkpt lat="44.90315" lon="3.86814">
        <ele>987.82</ele>
        <time>2025-04-15T15:05:29.976Z</time>
      </trkpt>
      <trkpt lat="44.9034" lon="3.86824">
        <ele>987.81</ele>
        <time>2025-04-15T15:05:34.695Z</time>
      </trkpt>
      <trkpt lat="44.90351" lon="3.86835">
        <ele>987.72</ele>
        <time>2025-04-15T15:05:39.416Z</time>
      </trkpt>
      <trkpt lat="44.90368" lon="3.86854">
        <ele>987.58</ele>
        <time>2025-04-15T15:05:44.141Z</time>
      </trkpt>
      <trkpt lat="44.90387" lon="3.86884">
        <ele>987.35</ele>
        <time>2025-04-15T15:05:48.870Z</time>
      </trkpt>
      <trkpt lat="44.90406" lon="3.86914">
        <ele>987.03</ele>
        <time>2025-04-15T15:05:53.604Z</time>
      </trkpt>
      <trkpt lat="44.90426" lon="3.86944">
        <ele>986.7</ele>
        <time>2025-04-15T15:05:58.342Z</time>
      </trkpt>
      <trkpt lat="44.90442" lon="3.86967">
        <ele>986.34</ele>
        <time>2025-04-15T15:06:03.084Z</time>
      </trkpt>
      <trkpt lat="44.90458" lon="3.86989">
        <ele>985.93</ele>
        <time>2025-04-15T15:06:07.830Z</time>
      </trkpt>
      <trkpt lat="44.90472" lon="3.87008">
        <ele>985.5</ele>
        <time>2025-04-15T15:06:12.579Z</time>
      </trkpt>
      <trkpt lat="44.90486" lon="3.87028">
        <ele>985.06</ele>
        <time>2025-04-15T15:06:17.331Z</time>
      </trkpt>
      <trkpt lat="44.90508" lon="3.87051">
        <ele>984.56</ele>
        <time>2025-04-15T15:06:22.087Z</time>
      </trkpt>
      <trkpt lat="44.90531" lon="3.87075">
        <ele>984.07</ele>
        <time>2025-04-15T15:06:26.848Z</time>
      </trkpt>
      <trkpt lat="44.9055" lon="3.87092">
        <ele>983.61</ele>
        <time>2025-04-15T15:06:31.613Z</time>
      </trkpt>
      <trkpt lat="44.90569" lon="3.87109">
        <ele>983.19</ele>
        <time>2025-04-15T15:06:36.381Z</time>
      </trkpt>
      <trkpt lat="44.90589" lon="3.87126">
        <ele>982.78</ele>
        <time>2025-04-15T15:06:41.153Z</time>
      </trkpt>
      <trkpt lat="44.90606" lon="3.87139">
        <ele>982.41</ele>
        <time>2025-04-15T15:06:45.928Z</time>
      </trkpt>
      <trkpt lat="44.90628" lon="3.87151">
        <ele>982.05</ele>
        <time>2025-04-15T15:06:50.707Z</time>
      </trkpt>
      <trkpt lat="44.9065" lon="3.87162">
        <ele>981.63</ele>
        <time>2025-04-15T15:06:55.490Z</time>
      </trkpt>
      <trkpt lat="44.90672" lon="3.87174">
        <ele>981.24</ele>
        <time>2025-04-15T15:07:00.276Z</time>
      </trkpt>
      <trkpt lat="44.90701" lon="3.87185">
        <ele>980.95</ele>
        <time>2025-04-15T15:07:05.067Z</time>
      </trkpt>
      <trkpt lat="44.9073" lon="3.87196">
        <ele>980.71</ele>
        <time>2025-04-15T15:07:09.863Z</time>
      </trkpt>
      <trkpt lat="44.90759" lon="3.87207">
        <ele>980.44</ele>
        <time>2025-04-15T15:07:14.664Z</time>
      </trkpt>
      <trkpt lat="44.90788" lon="3.87219">
        <ele>980.15</ele>
        <time>2025-04-15T15:07:19.470Z</time>
      </trkpt>
      <trkpt lat="44.90815" lon="3.87222">
        <ele>979.93</ele>
        <time>2025-04-15T15:07:24.280Z</time>
      </trkpt>
      <trkpt lat="44.90843" lon="3.87226">
        <ele>979.81</ele>
        <time>2025-04-15T15:07:29.094Z</time>
      </trkpt>
      <trkpt lat="44.9087" lon="3.87229">
        <ele>979.77</ele>
        <time>2025-04-15T15:07:33.913Z</time>
      </trkpt>
      <trkpt lat="44.90894" lon="3.87241">
        <ele>979.61</ele>
        <time>2025-04-15T15:07:38.736Z</time>
      </trkpt>
      <trkpt lat="44.90918" lon="3.87253">
        <ele>979.42</ele>
        <time>2025-04-15T15:07:43.563Z</time>
      </trkpt>
      <trkpt lat="44.90942" lon="3.87265">
        <ele>979.3</ele>
        <time>2025-04-15T15:07:48.394Z</time>
      </trkpt>
      <trkpt lat="44.90966" lon="3.87277">
        <ele>979.29</ele>
        <time>2025-04-15T15:07:53.229Z</time>
      </trkpt>
      <trkpt lat="44.90997" lon="3.87286">
        <ele>979.33</ele>
        <time>2025-04-15T15:07:58.069Z</time>
      </trkpt>
      <trkpt lat="44.91027" lon="3.87295">
        <ele>979.3</ele>
        <time>2025-04-15T15:08:02.914Z</time>
      </trkpt>
      <trkpt lat="44.91058" lon="3.87305">
        <ele>979.27</ele>
        <time>2025-04-15T15:08:07.764Z</time>
      </trkpt>
      <trkpt lat="44.91089" lon="3.87314">
        <ele>979.14</ele>
        <time>2025-04-15T15:08:12.619Z</time>
      </trkpt>
      <trkpt lat="44.91119" lon="3.87324">
        <ele>979.05</ele>
        <time>2025-04-15T15:08:17.479Z</time>
      </trkpt>
      <trkpt lat="44.9115" lon="3.87333">
        <ele>978.92</ele>
        <time>2025-04-15T15:08:22.344Z</time>
      </trkpt>
      <trkpt lat="44.9118" lon="3.87342">
        <ele>978.81</ele>
        <time>2025-04-15T15:08:27.214Z</time>
      </trkpt>
      <trkpt lat="44.91211" lon="3.87352">
        <ele>978.7</ele>
        <time>2025-04-15T15:08:32.089Z</time>
      </trkpt>
      <trkpt lat="44.91241" lon="3.87358">
        <ele>978.6</ele>
        <time>2025-04-15T15:08:36.969Z</time>
      </trkpt>
      <trkpt lat="44.91271" lon="3.87365">
        <ele>978.52</ele>
        <time>2025-04-15T15:08:41.854Z</time>
      </trkpt>
      <trkpt lat="44.91301" lon="3.87371">
        <ele>978.4</ele>
        <time>2025-04-15T15:08:46.744Z</time>
      </trkpt>
      <trkpt lat="44.91331" lon="3.87378">
        <ele>978.29</ele>
        <time>2025-04-15T15:08:51.639Z</time>
      </trkpt>
      <trkpt lat="44.91362" lon="3.87385">
        <ele>978.16</ele>
        <time>2025-04-15T15:08:56.538Z</time>
      </trkpt>
      <trkpt lat="44.91392" lon="3.87393">
        <ele>978.02</ele>
        <time>2025-04-15T15:09:01.442Z</time>
      </trkpt>
      <trkpt lat="44.91423" lon="3.874">
        <ele>977.91</ele>
        <time>2025-04-15T15:09:06.351Z</time>
      </trkpt>
      <trkpt lat="44.91453" lon="3.87408">
        <ele>977.92</ele>
        <time>2025-04-15T15:09:11.265Z</time>
      </trkpt>
      <trkpt lat="44.91473" lon="3.87416">
        <ele>977.91</ele>
        <time>2025-04-15T15:09:16.183Z</time>
      </trkpt>
      <trkpt lat="44.91492" lon="3.87425">
        <ele>977.92</ele>
        <time>2025-04-15T15:09:21.104Z</time>
      </trkpt>
      <trkpt lat="44.91522" lon="3.87435">
        <ele>977.99</ele>
        <time>2025-04-15T15:09:26.030Z</time>
      </trkpt>
      <trkpt lat="44.91553" lon="3.87445">
        <ele>978.15</ele>
        <time>2025-04-15T15:09:30.961Z</time>
      </trkpt>
      <trkpt lat="44.91583" lon="3.87455">
        <ele>978.29</ele>
        <time>2025-04-15T15:09:35.897Z</time>
      </trkpt>
      <trkpt lat="44.91614" lon="3.87465">
        <ele>978.38</ele>
        <time>2025-04-15T15:09:40.838Z</time>
      </trkpt>
      <trkpt lat="44.91644" lon="3.87475">
        <ele>978.64</ele>
        <time>2025-04-15T15:09:45.784Z</time>
      </trkpt>
      <trkpt lat="44.91674" lon="3.87485">
        <ele>978.99</ele>
        <time>2025-04-15T15:09:50.735Z</time>
      </trkpt>
      <trkpt lat="44.91705" lon="3.87495">
        <ele>979.28</ele>
        <time>2025-04-15T15:09:55.691Z</time>
      </trkpt>
      <trkpt lat="44.91735" lon="3.87505">
        <ele>979.66</ele>
        <time>2025-04-15T15:10:00.652Z</time>
      </trkpt>
      <trkpt lat="44.91765" lon="3.87515">
        <ele>980.08</ele>
        <time>2025-04-15T15:10:05.618Z</time>
      </trkpt>
      <trkpt lat="44.91796" lon="3.87525">
        <ele>980.52</ele>
        <time>2025-04-15T15:10:10.589Z</time>
      </trkpt>
      <trkpt lat="44.91826" lon="3.87535">
        <ele>980.98</ele>
        <time>2025-04-15T15:10:15.565Z</time>
      </trkpt>
      <trkpt lat="44.91857" lon="3.87545">
        <ele>981.55</ele>
        <time>2025-04-15T15:10:20.546Z</time>
      </trkpt>
      <trkpt lat="44.91887" lon="3.87555">
        <ele>982.21</ele>
        <time>2025-04-15T15:10:25.532Z</time>
      </trkpt>
      <trkpt lat="44.91918" lon="3.87564">
        <ele>982.88</ele>
        <time>2025-04-15T15:10:30.523Z</time>
      </trkpt>
      <trkpt lat="44.91949" lon="3.87574">
        <ele>983.62</ele>
        <time>2025-04-15T15:10:35.519Z</time>
      </trkpt>
      <trkpt lat="44.91979" lon="3.87584">
        <ele>984.38</ele>
        <time>2025-04-15T15:10:40.520Z</time>
      </trkpt>
      <trkpt lat="44.92007" lon="3.87592">
        <ele>985.16</ele>
        <time>2025-04-15T15:10:45.525Z</time>
      </trkpt>
      <trkpt lat="44.92035" lon="3.87601">
        <ele>985.83</ele>
        <time>2025-04-15T15:10:50.535Z</time>
      </trkpt>
      <trkpt lat="44.92063" lon="3.8761">
        <ele>986.49</ele>
        <time>2025-04-15T15:10:55.550Z</time>
      </trkpt>
      <trkpt lat="44.92091" lon="3.87619">
        <ele>987.06</ele>
        <time>2025-04-15T15:11:00.569Z</time>
      </trkpt>
      <trkpt lat="44.92119" lon="3.87628">
        <ele>987.51</ele>
        <time>2025-04-15T15:11:05.593Z</time>
      </trkpt>
      <trkpt lat="44.92147" lon="3.87637">
        <ele>987.91</ele>
        <time>2025-04-15T15:11:10.621Z</time>
      </trkpt>
      <trkpt lat="44.92165" lon="3.87643">
        <ele>988.22</ele>
        <time>2025-04-15T15:11:15.652Z</time>
      </trkpt>
      <trkpt lat="44.92183" lon="3.87648">
        <ele>988.43</ele>
        <time>2025-04-15T15:11:20.686Z</time>
      </trkpt>
      <trkpt lat="44.92183" lon="3.87648">
        <ele>988.58</ele>
        <time>2025-04-15T15:11:25.720Z</time>
      </trkpt>
      <trkpt lat="44.92213" lon="3.87657">
        <ele>988.52</ele>
        <time>2025-04-15T15:11:30.759Z</time>
      </trkpt>
      <trkpt lat="44.9224" lon="3.8766">
        <ele>988.45</ele>
        <time>2025-04-15T15:11:35.803Z</time>
      </trkpt>
      <trkpt lat="44.92267" lon="3.87664">
        <ele>988.37</ele>
        <time>2025-04-15T15:11:40.851Z</time>
      </trkpt>
      <trkpt lat="44.92295" lon="3.87667">
        <ele>988.27</ele>
        <time>2025-04-15T15:11:45.903Z</time>
      </trkpt>
      <trkpt lat="44.92325" lon="3.87676">
        <ele>987.99</ele>
        <time>2025-04-15T15:11:50.960Z</time>
      </trkpt>
      <trkpt lat="44.92356" lon="3.87685">
        <ele>987.61</ele>
        <time>2025-04-15T15:11:56.022Z</time>
      </trkpt>
      <trkpt lat="44.92386" lon="3.87695">
        <ele>987.13</ele>
        <time>2025-04-15T15:12:01.089Z</time>
      </trkpt>
      <trkpt lat="44.92417" lon="3.87704">
        <ele>986.54</ele>
        <time>2025-04-15T15:12:06.161Z</time>
      </trkpt>
      <trkpt lat="44.92447" lon="3.87707">
        <ele>985.87</ele>
        <time>2025-04-15T15:12:11.238Z</time>
      </trkpt>
      <trkpt lat="44.92478" lon="3.8771">
        <ele>985.22</ele>
        <time>2025-04-15T15:12:16.320Z</time>
      </trkpt>
      <trkpt lat="44.92509" lon="3.87713">
        <ele>984.55</ele>
        <time>2025-04-15T15:12:21.407Z</time>
      </trkpt>
      <trkpt lat="44.92539" lon="3.87717">
        <ele>983.8</ele>
        <time>2025-04-15T15:12:26.499Z</time>
      </trkpt>
      <trkpt lat="44.9257" lon="3.87723">
        <ele>982.97</ele>
        <time>2025-04-15T15:12:31.596Z</time>
      </trkpt>
      <trkpt lat="44.926" lon="3.87729">
        <ele>982.1</ele>
        <time>2025-04-15T15:12:36.698Z</time>
      </trkpt>
      <trkpt lat="44.9263" lon="3.87735">
        <ele>981.26</ele>
        <time>2025-04-15T15:12:41.805Z</time>
      </trkpt>
      <trkpt lat="44.92661" lon="3.87741">
        <ele>980.39</ele>
        <time>2025-04-15T15:12:46.917Z</time>
      </trkpt>
      <trkpt lat="44.92691" lon="3.87747">
        <ele>979.52</ele>
        <time>2025-04-15T15:12:52.033Z</time>
      </trkpt>
      <trkpt lat="44.92721" lon="3.87753">
        <ele>978.64</ele>
        <time>2025-04-15T15:12:57.154Z</time>
      </trkpt>
      <trkpt lat="44.92752" lon="3.87759">
        <ele>977.68</ele>
        <time>2025-04-15T15:13:02.280Z</time>
      </trkpt>
      <trkpt lat="44.92777" lon="3.87762">
        <ele>976.73</ele>
        <time>2025-04-15T15:13:07.410Z</time>
      </trkpt>
      <trkpt lat="44.92803" lon="3.87765">
        <ele>975.79</ele>
        <time>2025-04-15T15:13:12.545Z</time>
      </trkpt>
      <trkpt lat="44.92829" lon="3.87768">
        <ele>974.85</ele>
        <time>2025-04-15T15:13:17.684Z</time>
      </trkpt>
      <trkpt lat="44.92855" lon="3.87771">
        <ele>973.84</ele>
        <time>2025-04-15T15:13:22.827Z</time>
      </trkpt>
      <trkpt lat="44.9288" lon="3.87775">
        <ele>972.8</ele>
        <time>2025-04-15T15:13:27.974Z</time>
      </trkpt>
      <trkpt lat="44.92911" lon="3.87781">
        <ele>971.77</ele>
        <time>2025-04-15T15:13:33.126Z</time>
      </trkpt>
      <trkpt lat="44.92941" lon="3.87788">
        <ele>970.73</ele>
        <time>2025-04-15T15:13:38.283Z</time>
      </trkpt>
      <trkpt lat="44.92972" lon="3.87795">
        <ele>969.71</ele>
        <time>2025-04-15T15:13:43.445Z</time>
      </trkpt>
      <trkpt lat="44.93002" lon="3.87802">
        <ele>968.76</ele>
        <time>2025-04-15T15:13:48.612Z</time>
      </trkpt>
      <trkpt lat="44.93032" lon="3.87808">
        <ele>967.94</ele>
        <time>2025-04-15T15:13:53.784Z</time>
      </trkpt>
      <trkpt lat="44.93063" lon="3.87815">
        <ele>967.12</ele>
        <time>2025-04-15T15:13:58.960Z</time>
      </trkpt>
      <trkpt lat="44.93093" lon="3.87822">
        <ele>966.16</ele>
        <time>2025-04-15T15:14:04.141Z</time>
      </trkpt>
      <trkpt lat="44.93116" lon="3.87824">
        <ele>965.21</ele>
        <time>2025-04-15T15:14:09.326Z</time>
      </trkpt>
      <trkpt lat="44.93139" lon="3.87826">
        <ele>964.31</ele>
        <time>2025-04-15T15:14:14.515Z</time>
      </trkpt>
      <trkpt lat="44.93161" lon="3.87828">
        <ele>963.45</ele>
        <time>2025-04-15T15:14:19.707Z</time>
      </trkpt>
      <trkpt lat="44.93187" lon="3.87823">
        <ele>962.62</ele>
        <time>2025-04-15T15:14:24.904Z</time>
      </trkpt>
      <trkpt lat="44.93213" lon="3.87818">
        <ele>961.9</ele>
        <time>2025-04-15T15:14:30.105Z</time>
      </trkpt>
      <trkpt lat="44.93239" lon="3.87813">
        <ele>961.17</ele>
        <time>2025-04-15T15:14:35.310Z</time>
      </trkpt>
      <trkpt lat="44.9326" lon="3.87808">
        <ele>960.34</ele>
        <time>2025-04-15T15:14:40.518Z</time>
      </trkpt>
      <trkpt lat="44.93282" lon="3.87802">
        <ele>959.53</ele>
        <time>2025-04-15T15:14:45.730Z</time>
      </trkpt>
      <trkpt lat="44.9329" lon="3.87805">
        <ele>958.8</ele>
        <time>2025-04-15T15:14:50.943Z</time>
      </trkpt>
      <trkpt lat="44.93314" lon="3.87809">
        <ele>957.94</ele>
        <time>2025-04-15T15:14:56.160Z</time>
      </trkpt>
      <trkpt lat="44.93341" lon="3.87821">
        <ele>957.16</ele>
        <time>2025-04-15T15:15:01.382Z</time>
      </trkpt>
      <trkpt lat="44.93367" lon="3.87834">
        <ele>956.48</ele>
        <time>2025-04-15T15:15:06.608Z</time>
      </trkpt>
      <trkpt lat="44.93394" lon="3.87846">
        <ele>955.88</ele>
        <time>2025-04-15T15:15:11.839Z</time>
      </trkpt>
      <trkpt lat="44.93421" lon="3.87858">
        <ele>955.27</ele>
        <time>2025-04-15T15:15:17.074Z</time>
      </trkpt>
      <trkpt lat="44.93428" lon="3.87862">
        <ele>954.67</ele>
        <time>2025-04-15T15:15:22.310Z</time>
      </trkpt>
      <trkpt lat="44.93447" lon="3.87873">
        <ele>954.08</ele>
        <time>2025-04-15T15:15:27.550Z</time>
      </trkpt>
      <trkpt lat="44.93466" lon="3.87884">
        <ele>953.48</ele>
        <time>2025-04-15T15:15:32.793Z</time>
      </trkpt>
      <trkpt lat="44.93479" lon="3.87914">
        <ele>952.85</ele>
        <time>2025-04-15T15:15:38.040Z</time>
      </trkpt>
      <trkpt lat="44.93483" lon="3.8794">
        <ele>952.21</ele>
        <time>2025-04-15T15:15:43.290Z</time>
      </trkpt>
      <trkpt lat="44.93483" lon="3.8794">
        <ele>951.62</ele>
        <time>2025-04-15T15:15:48.540Z</time>
      </trkpt>
      <trkpt lat="44.9349" lon="3.87969">
        <ele>950.96</ele>
        <time>2025-04-15T15:15:53.793Z</time>
      </trkpt>
      <trkpt lat="44.93496" lon="3.87998">
        <ele>950.27</ele>
        <time>2025-04-15T15:15:59.050Z</time>
      </trkpt>
      <trkpt lat="44.93495" lon="3.8802">
        <ele>949.57</ele>
        <time>2025-04-15T15:16:04.309Z</time>
      </trkpt>
      <trkpt lat="44.93494" lon="3.88043">
        <ele>948.83</ele>
        <time>2025-04-15T15:16:09.571Z</time>
      </trkpt>
      <trkpt lat="44.93512" lon="3.88057">
        <ele>948.04</ele>
        <time>2025-04-15T15:16:14.836Z</time>
      </trkpt>
      <trkpt lat="44.93531" lon="3.88071">
        <ele>947.19</ele>
        <time>2025-04-15T15:16:20.105Z</time>
      </trkpt>
      <trkpt lat="44.93552" lon="3.88081">
        <ele>946.33</ele>
        <time>2025-04-15T15:16:25.377Z</time>
      </trkpt>
      <trkpt lat="44.93558" lon="3.88081">
        <ele>945.46</ele>
        <time>2025-04-15T15:16:30.650Z</time>
      </trkpt>
      <trkpt lat="44.93584" lon="3.88086">
        <ele>944.52</ele>
        <time>2025-04-15T15:16:35.927Z</time>
      </trkpt>
      <trkpt lat="44.93589" lon="3.88081">
        <ele>943.53</ele>
        <time>2025-04-15T15:16:41.205Z</time>
      </trkpt>
      <trkpt lat="44.93599" lon="3.88075">
        <ele>942.46</ele>
        <time>2025-04-15T15:16:46.485Z</time>
      </trkpt>
      <trkpt lat="44.93608" lon="3.88073">
        <ele>941.3</ele>
        <time>2025-04-15T15:16:51.767Z</time>
      </trkpt>
      <trkpt lat="44.93622" lon="3.88086">
        <ele>940.02</ele>
        <time>2025-04-15T15:16:57.051Z</time>
      </trkpt>
      <trkpt lat="44.93636" lon="3.88099">
        <ele>938.64</ele>
        <time>2025-04-15T15:17:02.338Z</time>
      </trkpt>
      <trkpt lat="44.93656" lon="3.88126">
        <ele>937.1</ele>
        <time>2025-04-15T15:17:07.629Z</time>
      </trkpt>
      <trkpt lat="44.93676" lon="3.88153">
        <ele>935.54</ele>
        <time>2025-04-15T15:17:12.925Z</time>
      </trkpt>
      <trkpt lat="44.93696" lon="3.8818">
        <ele>933.86</ele>
        <time>2025-04-15T15:17:18.225Z</time>
      </trkpt>
      <trkpt lat="44.93711" lon="3.88199">
        <ele>932.18</ele>
        <time>2025-04-15T15:17:23.528Z</time>
      </trkpt>
      <trkpt lat="44.93726" lon="3.88219">
        <ele>930.41</ele>
        <time>2025-04-15T15:17:28.835Z</time>
      </trkpt>
      <trkpt lat="44.93748" lon="3.88249">
        <ele>928.54</ele>
        <time>2025-04-15T15:17:34.147Z</time>
      </trkpt>
      <trkpt lat="44.93771" lon="3.88279">
        <ele>926.57</ele>
        <time>2025-04-15T15:17:39.464Z</time>
      </trkpt>
      <trkpt lat="44.93793" lon="3.8831">
        <ele>924.54</ele>
        <time>2025-04-15T15:17:44.786Z</time>
      </trkpt>
      <trkpt lat="44.93815" lon="3.8834">
        <ele>922.59</ele>
        <time>2025-04-15T15:17:50.113Z</time>
      </trkpt>
      <trkpt lat="44.93838" lon="3.88371">
        <ele>920.6</ele>
        <time>2025-04-15T15:17:55.445Z</time>
      </trkpt>
      <trkpt lat="44.9386" lon="3.88401">
        <ele>918.7</ele>
        <time>2025-04-15T15:18:00.782Z</time>
      </trkpt>
      <trkpt lat="44.93882" lon="3.88431">
        <ele>916.78</ele>
        <time>2025-04-15T15:18:06.124Z</time>
      </trkpt>
      <trkpt lat="44.93899" lon="3.8846">
        <ele>914.88</ele>
        <time>2025-04-15T15:18:11.470Z</time>
      </trkpt>
      <trkpt lat="44.93916" lon="3.88488">
        <ele>912.93</ele>
        <time>2025-04-15T15:18:16.820Z</time>
      </trkpt>
      <trkpt lat="44.93933" lon="3.88517">
        <ele>911.02</ele>
        <time>2025-04-15T15:18:22.174Z</time>
      </trkpt>
      <trkpt lat="44.9395" lon="3.88546">
        <ele>909.09</ele>
        <time>2025-04-15T15:18:27.532Z</time>
      </trkpt>
      <trkpt lat="44.93967" lon="3.88574">
        <ele>907.25</ele>
        <time>2025-04-15T15:18:32.895Z</time>
      </trkpt>
      <trkpt lat="44.93983" lon="3.88603">
        <ele>905.44</ele>
        <time>2025-04-15T15:18:38.262Z</time>
      </trkpt>
      <trkpt lat="44.93998" lon="3.88627">
        <ele>903.68</ele>
        <time>2025-04-15T15:18:43.632Z</time>
      </trkpt>
      <trkpt lat="44.94012" lon="3.88651">
        <ele>901.98</ele>
        <time>2025-04-15T15:18:49.006Z</time>
      </trkpt>
      <trkpt lat="44.94026" lon="3.88676">
        <ele>900.36</ele>
        <time>2025-04-15T15:18:54.384Z</time>
      </trkpt>
      <trkpt lat="44.94041" lon="3.88686">
        <ele>898.82</ele>
        <time>2025-04-15T15:18:59.764Z</time>
      </trkpt>
      <trkpt lat="44.94052" lon="3.88684">
        <ele>897.37</ele>
        <time>2025-04-15T15:19:05.146Z</time>
      </trkpt>
      <trkpt lat="44.94061" lon="3.88678">
        <ele>895.96</ele>
        <time>2025-04-15T15:19:10.530Z</time>
      </trkpt>
      <trkpt lat="44.94071" lon="3.88663">
        <ele>894.52</ele>
        <time>2025-04-15T15:19:15.916Z</time>
      </trkpt>
      <trkpt lat="44.94073" lon="3.88648">
        <ele>893.19</ele>
        <time>2025-04-15T15:19:21.304Z</time>
      </trkpt>
      <trkpt lat="44.94066" lon="3.8862">
        <ele>892.07</ele>
        <time>2025-04-15T15:19:26.695Z</time>
      </trkpt>
      <trkpt lat="44.94058" lon="3.88592">
        <ele>890.95</ele>
        <time>2025-04-15T15:19:32.090Z</time>
      </trkpt>
      <trkpt lat="44.94058" lon="3.88556">
        <ele>889.83</ele>
        <time>2025-04-15T15:19:37.489Z</time>
      </trkpt>
      <trkpt lat="44.94065" lon="3.88515">
        <ele>888.76</ele>
        <time>2025-04-15T15:19:42.892Z</time>
      </trkpt>
      <trkpt lat="44.94072" lon="3.88494">
        <ele>887.45</ele>
        <time>2025-04-15T15:19:48.298Z</time>
      </trkpt>
      <trkpt lat="44.9408" lon="3.88474">
        <ele>886.1</ele>
        <time>2025-04-15T15:19:53.707Z</time>
      </trkpt>
      <trkpt lat="44.94095" lon="3.88444">
        <ele>884.75</ele>
        <time>2025-04-15T15:19:59.120Z</time>
      </trkpt>
      <trkpt lat="44.9411" lon="3.88414">
        <ele>883.41</ele>
        <time>2025-04-15T15:20:04.537Z</time>
      </trkpt>
      <trkpt lat="44.94136" lon="3.88399">
        <ele>881.6</ele>
        <time>2025-04-15T15:20:09.958Z</time>
      </trkpt>
      <trkpt lat="44.94161" lon="3.88384">
        <ele>879.92</ele>
        <time>2025-04-15T15:20:15.384Z</time>
      </trkpt>
      <trkpt lat="44.94172" lon="3.88369">
        <ele>878.53</ele>
        <time>2025-04-15T15:20:20.812Z</time>
      </trkpt>
      <trkpt lat="44.94178" lon="3.88336">
        <ele>877.46</ele>
        <time>2025-04-15T15:20:26.244Z</time>
      </trkpt>
      <trkpt lat="44.94184" lon="3.88303">
        <ele>876.13</ele>
        <time>2025-04-15T15:20:31.680Z</time>
      </trkpt>
      <trkpt lat="44.9419" lon="3.8827">
        <ele>874.44</ele>
        <time>2025-04-15T15:20:37.120Z</time>
      </trkpt>
      <trkpt lat="44.94196" lon="3.88238">
        <ele>872.6</ele>
        <time>2025-04-15T15:20:42.564Z</time>
      </trkpt>
      <trkpt lat="44.94202" lon="3.88219">
        <ele>871.16</ele>
        <time>2025-04-15T15:20:48.010Z</time>
      </trkpt>
      <trkpt lat="44.94211" lon="3.88208">
        <ele>869.74</ele>
        <time>2025-04-15T15:20:53.458Z</time>
      </trkpt>
      <trkpt lat="44.94215" lon="3.88206">
        <ele>868.56</ele>
        <time>2025-04-15T15:20:58.907Z</time>
      </trkpt>
      <trkpt lat="44.94237" lon="3.88206">
        <ele>867.37</ele>
        <time>2025-04-15T15:21:04.359Z</time>
      </trkpt>
      <trkpt lat="44.94247" lon="3.88212">
        <ele>866.52</ele>
        <time>2025-04-15T15:21:09.813Z</time>
      </trkpt>
      <trkpt lat="44.94254" lon="3.88225">
        <ele>865.74</ele>
        <time>2025-04-15T15:21:15.269Z</time>
      </trkpt>
      <trkpt lat="44.9425" lon="3.88266">
        <ele>865.09</ele>
        <time>2025-04-15T15:21:20.729Z</time>
      </trkpt>
      <trkpt lat="44.94247" lon="3.88307">
        <ele>864.43</ele>
        <time>2025-04-15T15:21:26.194Z</time>
      </trkpt>
      <trkpt lat="44.94257" lon="3.88343">
        <ele>863.93</ele>
        <time>2025-04-15T15:21:31.664Z</time>
      </trkpt>
      <trkpt lat="44.94267" lon="3.8838">
        <ele>863.58</ele>
        <time>2025-04-15T15:21:37.138Z</time>
      </trkpt>
      <trkpt lat="44.94271" lon="3.88403">
        <ele>863.41</ele>
        <time>2025-04-15T15:21:42.615Z</time>
      </trkpt>
      <trkpt lat="44.94269" lon="3.88433">
        <ele>863.28</ele>
        <time>2025-04-15T15:21:48.095Z</time>
      </trkpt>
      <trkpt lat="44.94264" lon="3.88459">
        <ele>863.19</ele>
        <time>2025-04-15T15:21:53.578Z</time>
      </trkpt>
      <trkpt lat="44.94248" lon="3.88486">
        <ele>863.1</ele>
        <time>2025-04-15T15:21:59.065Z</time>
      </trkpt>
      <trkpt lat="44.94232" lon="3.88513">
        <ele>863.24</ele>
        <time>2025-04-15T15:22:04.556Z</time>
      </trkpt>
      <trkpt lat="44.9423" lon="3.88523">
        <ele>863.67</ele>
        <time>2025-04-15T15:22:10.048Z</time>
      </trkpt>
      <trkpt lat="44.94232" lon="3.88538">
        <ele>864.27</ele>
        <time>2025-04-15T15:22:15.542Z</time>
      </trkpt>
      <trkpt lat="44.94254" lon="3.88568">
        <ele>865.28</ele>
        <time>2025-04-15T15:22:21.041Z</time>
      </trkpt>
      <trkpt lat="44.94261" lon="3.88589">
        <ele>866.2</ele>
        <time>2025-04-15T15:22:26.543Z</time>
      </trkpt>
      <trkpt lat="44.94269" lon="3.88609">
        <ele>867.27</ele>
        <time>2025-04-15T15:22:32.047Z</time>
      </trkpt>
      <trkpt lat="44.9427" lon="3.88641">
        <ele>868.23</ele>
        <time>2025-04-15T15:22:37.555Z</time>
      </trkpt>
      <trkpt lat="44.94272" lon="3.88674">
        <ele>869.33</ele>
        <time>2025-04-15T15:22:43.067Z</time>
      </trkpt>
      <trkpt lat="44.94273" lon="3.88706">
        <ele>870.49</ele>
        <time>2025-04-15T15:22:48.582Z</time>
      </trkpt>
      <trkpt lat="44.94288" lon="3.88736">
        <ele>872.08</ele>
        <time>2025-04-15T15:22:54.101Z</time>
      </trkpt>
      <trkpt lat="44.94303" lon="3.88766">
        <ele>873.58</ele>
        <time>2025-04-15T15:22:59.625Z</time>
      </trkpt>
      <trkpt lat="44.94318" lon="3.88796">
        <ele>875.17</ele>
        <time>2025-04-15T15:23:05.153Z</time>
      </trkpt>
      <trkpt lat="44.94327" lon="3.88831">
        <ele>876.66</ele>
        <time>2025-04-15T15:23:10.685Z</time>
      </trkpt>
      <trkpt lat="44.94335" lon="3.88867">
        <ele>878.12</ele>
        <time>2025-04-15T15:23:16.221Z</time>
      </trkpt>
      <trkpt lat="44.94344" lon="3.88902">
        <ele>879.74</ele>
        <time>2025-04-15T15:23:21.762Z</time>
      </trkpt>
      <trkpt lat="44.94352" lon="3.88938">
        <ele>881.41</ele>
        <time>2025-04-15T15:23:27.307Z</time>
      </trkpt>
      <trkpt lat="44.94359" lon="3.88953">
        <ele>882.96</ele>
        <time>2025-04-15T15:23:32.854Z</time>
      </trkpt>
      <trkpt lat="44.94365" lon="3.88965">
        <ele>884.44</ele>
        <time>2025-04-15T15:23:38.403Z</time>
      </trkpt>
      <trkpt lat="44.9439" lon="3.88982">
        <ele>886.1</ele>
        <time>2025-04-15T15:23:43.956Z</time>
      </trkpt>
      <trkpt lat="44.94415" lon="3.88998">
        <ele>887.8</ele>
        <time>2025-04-15T15:23:49.513Z</time>
      </trkpt>
      <trkpt lat="44.9444" lon="3.89015">
        <ele>889.38</ele>
        <time>2025-04-15T15:23:55.075Z</time>
      </trkpt>
      <trkpt lat="44.94449" lon="3.89019">
        <ele>890.74</ele>
        <time>2025-04-15T15:24:00.638Z</time>
      </trkpt>
      <trkpt lat="44.94449" lon="3.89019">
        <ele>891.98</ele>
        <time>2025-04-15T15:24:06.201Z</time>
      </trkpt>
      <trkpt lat="44.94466" lon="3.89023">
        <ele>893.2</ele>
        <time>2025-04-15T15:24:11.767Z</time>
      </trkpt>
      <trkpt lat="44.9447" lon="3.89024">
        <ele>894.27</ele>
        <time>2025-04-15T15:24:17.334Z</time>
      </trkpt>
      <trkpt lat="44.94492" lon="3.8903">
        <ele>895.23</ele>
        <time>2025-04-15T15:24:22.904Z</time>
      </trkpt>
      <trkpt lat="44.94522" lon="3.89032">
        <ele>896.17</ele>
        <time>2025-04-15T15:24:28.479Z</time>
      </trkpt>
      <trkpt lat="44.94522" lon="3.89032">
        <ele>896.91</ele>
        <time>2025-04-15T15:24:34.054Z</time>
      </trkpt>
      <trkpt lat="44.94553" lon="3.89034">
        <ele>897.68</ele>
        <time>2025-04-15T15:24:39.634Z</time>
      </trkpt>
      <trkpt lat="44.94584" lon="3.89035">
        <ele>898.24</ele>
        <time>2025-04-15T15:24:45.219Z</time>
      </trkpt>
      <trkpt lat="44.94615" lon="3.89037">
        <ele>898.56</ele>
        <time>2025-04-15T15:24:50.809Z</time>
      </trkpt>
      <trkpt lat="44.94646" lon="3.89038">
        <ele>898.89</ele>
        <time>2025-04-15T15:24:56.404Z</time>
      </trkpt>
      <trkpt lat="44.94677" lon="3.8904">
        <ele>899.13</ele>
        <time>2025-04-15T15:25:02.004Z</time>
      </trkpt>
      <trkpt lat="44.94708" lon="3.89042">
        <ele>899.36</ele>
        <time>2025-04-15T15:25:07.609Z</time>
      </trkpt>
      <trkpt lat="44.9474" lon="3.89043">
        <ele>899.39</ele>
        <time>2025-04-15T15:25:13.219Z</time>
      </trkpt>
      <trkpt lat="44.94771" lon="3.89045">
        <ele>899.26</ele>
        <time>2025-04-15T15:25:18.834Z</time>
      </trkpt>
      <trkpt lat="44.948" lon="3.89045">
        <ele>899.05</ele>
        <time>2025-04-15T15:25:24.454Z</time>
      </trkpt>
      <trkpt lat="44.9483" lon="3.89046">
        <ele>898.88</ele>
        <time>2025-04-15T15:25:30.078Z</time>
      </trkpt>
      <trkpt lat="44.9486" lon="3.89046">
        <ele>898.62</ele>
        <time>2025-04-15T15:25:35.707Z</time>
      </trkpt>
      <trkpt lat="44.94889" lon="3.89046">
        <ele>898.27</ele>
        <time>2025-04-15T15:25:41.341Z</time>
      </trkpt>
      <trkpt lat="44.94919" lon="3.89047">
        <ele>897.81</ele>
        <time>2025-04-15T15:25:46.980Z</time>
      </trkpt>
      <trkpt lat="44.94949" lon="3.89047">
        <ele>897.41</ele>
        <time>2025-04-15T15:25:52.623Z</time>
      </trkpt>
      <trkpt lat="44.9497" lon="3.89041">
        <ele>897.01</ele>
        <time>2025-04-15T15:25:58.270Z</time>
      </trkpt>
      <trkpt lat="44.94996" lon="3.89025">
        <ele>896.52</ele>
        <time>2025-04-15T15:26:03.921Z</time>
      </trkpt>
      <trkpt lat="44.95022" lon="3.8901">
        <ele>896.03</ele>
        <time>2025-04-15T15:26:09.577Z</time>
      </trkpt>
      <trkpt lat="44.95047" lon="3.8899">
        <ele>895.55</ele>
        <time>2025-04-15T15:26:15.237Z</time>
      </trkpt>
      <trkpt lat="44.95071" lon="3.8897">
        <ele>895.15</ele>
        <time>2025-04-15T15:26:20.902Z</time>
      </trkpt>
      <trkpt lat="44.95094" lon="3.88951">
        <ele>894.73</ele>
        <time>2025-04-15T15:26:26.571Z</time>
      </trkpt>
      <trkpt lat="44.95118" lon="3.88932">
        <ele>894.3</ele>
        <time>2025-04-15T15:26:32.245Z</time>
      </trkpt>
      <trkpt lat="44.95141" lon="3.88913">
        <ele>893.82</ele>
        <time>2025-04-15T15:26:37.923Z</time>
      </trkpt>
      <trkpt lat="44.95164" lon="3.88894">
        <ele>893.29</ele>
        <time>2025-04-15T15:26:43.605Z</time>
      </trkpt>
      <trkpt lat="44.95187" lon="3.88875">
        <ele>892.78</ele>
        <time>2025-04-15T15:26:49.291Z</time>
      </trkpt>
      <trkpt lat="44.95211" lon="3.88856">
        <ele>892.23</ele>
        <time>2025-04-15T15:26:54.982Z</time>
      </trkpt>
      <trkpt lat="44.95225" lon="3.88847">
        <ele>891.68</ele>
        <time>2025-04-15T15:27:00.675Z</time>
      </trkpt>
      <trkpt lat="44.95236" lon="3.88841">
        <ele>891.11</ele>
        <time>2025-04-15T15:27:06.370Z</time>
      </trkpt>
      <trkpt lat="44.95236" lon="3.88841">
        <ele>890.49</ele>
        <time>2025-04-15T15:27:12.065Z</time>
      </trkpt>
      <trkpt lat="44.95264" lon="3.88846">
        <ele>889.84</ele>
        <time>2025-04-15T15:27:17.765Z</time>
      </trkpt>
      <trkpt lat="44.95292" lon="3.8885">
        <ele>889.12</ele>
        <time>2025-04-15T15:27:23.469Z</time>
      </trkpt>
      <trkpt lat="44.9532" lon="3.88855">
        <ele>888.36</ele>
        <time>2025-04-15T15:27:29.178Z</time>
      </trkpt>
      <trkpt lat="44.95348" lon="3.88859">
        <ele>887.54</ele>
        <time>2025-04-15T15:27:34.891Z</time>
      </trkpt>
      <trkpt lat="44.95376" lon="3.88864">
        <ele>886.73</ele>
        <time>2025-04-15T15:27:40.609Z</time>
      </trkpt>
      <trkpt lat="44.95404" lon="3.88869">
        <ele>885.88</ele>
        <time>2025-04-15T15:27:46.331Z</time>
      </trkpt>
      <trkpt lat="44.95432" lon="3.88873">
        <ele>885.09</ele>
        <time>2025-04-15T15:27:52.058Z</time>
      </trkpt>
      <trkpt lat="44.95439" lon="3.88875">
        <ele>884.27</ele>
        <time>2025-04-15T15:27:57.786Z</time>
      </trkpt>
      <trkpt lat="44.95457" lon="3.88878">
        <ele>883.41</ele>
        <time>2025-04-15T15:28:03.517Z</time>
      </trkpt>
      <trkpt lat="44.95475" lon="3.88882">
        <ele>882.56</ele>
        <time>2025-04-15T15:28:09.251Z</time>
      </trkpt>
      <trkpt lat="44.95495" lon="3.88887">
        <ele>881.73</ele>
        <time>2025-04-15T15:28:14.988Z</time>
      </trkpt>
      <trkpt lat="44.95516" lon="3.88892">
        <ele>880.92</ele>
        <time>2025-04-15T15:28:20.728Z</time>
      </trkpt>
      <trkpt lat="44.95537" lon="3.88897">
        <ele>880.11</ele>
        <time>2025-04-15T15:28:26.472Z</time>
      </trkpt>
      <trkpt lat="44.95557" lon="3.88898">
        <ele>879.32</ele>
        <time>2025-04-15T15:28:32.219Z</time>
      </trkpt>
      <trkpt lat="44.95578" lon="3.88899">
        <ele>878.52</ele>
        <time>2025-04-15T15:28:37.969Z</time>
      </trkpt>
      <trkpt lat="44.95606" lon="3.88884">
        <ele>877.73</ele>
        <time>2025-04-15T15:28:43.724Z</time>
      </trkpt>
      <trkpt lat="44.95635" lon="3.88868">
        <ele>876.99</ele>
        <time>2025-04-15T15:28:49.484Z</time>
      </trkpt>
      <trkpt lat="44.95663" lon="3.88853">
        <ele>876.18</ele>
        <time>2025-04-15T15:28:55.249Z</time>
      </trkpt>
      <trkpt lat="44.95692" lon="3.88837">
        <ele>875.34</ele>
        <time>2025-04-15T15:29:01.019Z</time>
      </trkpt>
      <trkpt lat="44.95721" lon="3.88822">
        <ele>874.48</ele>
        <time>2025-04-15T15:29:06.794Z</time>
      </trkpt>
      <trkpt lat="44.95749" lon="3.88807">
        <ele>873.74</ele>
        <time>2025-04-15T15:29:12.574Z</time>
      </trkpt>
      <trkpt lat="44.95765" lon="3.888">
        <ele>873.08</ele>
        <time>2025-04-15T15:29:18.356Z</time>
      </trkpt>
      <trkpt lat="44.95781" lon="3.88794">
        <ele>872.52</ele>
        <time>2025-04-15T15:29:24.141Z</time>
      </trkpt>
      <trkpt lat="44.95796" lon="3.88798">
        <ele>872.01</ele>
        <time>2025-04-15T15:29:29.928Z</time>
      </trkpt>
      <trkpt lat="44.95822" lon="3.88806">
        <ele>871.56</ele>
        <time>2025-04-15T15:29:35.720Z</time>
      </trkpt>
      <trkpt lat="44.95848" lon="3.88813">
        <ele>871.14</ele>
        <time>2025-04-15T15:29:41.516Z</time>
      </trkpt>
      <trkpt lat="44.95875" lon="3.88821">
        <ele>870.78</ele>
        <time>2025-04-15T15:29:47.316Z</time>
      </trkpt>
      <trkpt lat="44.95901" lon="3.88829">
        <ele>870.41</ele>
        <time>2025-04-15T15:29:53.121Z</time>
      </trkpt>
      <trkpt lat="44.95927" lon="3.88837">
        <ele>870.16</ele>
        <time>2025-04-15T15:29:58.930Z</time>
      </trkpt>
      <trkpt lat="44.95948" lon="3.8883">
        <ele>869.97</ele>
        <time>2025-04-15T15:30:04.742Z</time>
      </trkpt>
      <trkpt lat="44.95969" lon="3.88824">
        <ele>869.82</ele>
        <time>2025-04-15T15:30:10.558Z</time>
      </trkpt>
      <trkpt lat="44.9599" lon="3.88817">
        <ele>869.61</ele>
        <time>2025-04-15T15:30:16.377Z</time>
      </trkpt>
      <trkpt lat="44.96018" lon="3.88811">
        <ele>869.5</ele>
        <time>2025-04-15T15:30:22.201Z</time>
      </trkpt>
      <trkpt lat="44.9604" lon="3.8881">
        <ele>869.41</ele>
        <time>2025-04-15T15:30:28.028Z</time>
      </trkpt>
      <trkpt lat="44.96062" lon="3.88809">
        <ele>869.34</ele>
        <time>2025-04-15T15:30:33.859Z</time>
      </trkpt>
      <trkpt lat="44.96084" lon="3.88809">
        <ele>869.3</ele>
        <time>2025-04-15T15:30:39.693Z</time>
      </trkpt>
      <trkpt lat="44.96095" lon="3.8881">
        <ele>869.24</ele>
        <time>2025-04-15T15:30:45.529Z</time>
      </trkpt>
      <trkpt lat="44.96121" lon="3.88814">
        <ele>869.18</ele>
        <time>2025-04-15T15:30:51.369Z</time>
      </trkpt>
      <trkpt lat="44.96148" lon="3.88818">
        <ele>869.01</ele>
        <time>2025-04-15T15:30:57.213Z</time>
      </trkpt>
      <trkpt lat="44.96174" lon="3.88822">
        <ele>868.95</ele>
        <time>2025-04-15T15:31:03.062Z</time>
      </trkpt>
      <trkpt lat="44.96193" lon="3.88812">
        <ele>868.96</ele>
        <time>2025-04-15T15:31:08.914Z</time>
      </trkpt>
      <trkpt lat="44.96213" lon="3.88802">
        <ele>868.92</ele>
        <time>2025-04-15T15:31:14.769Z</time>
      </trkpt>
      <trkpt lat="44.96237" lon="3.88784">
        <ele>868.76</ele>
        <time>2025-04-15T15:31:20.629Z</time>
      </trkpt>
      <trkpt lat="44.96262" lon="3.88766">
        <ele>868.47</ele>
        <time>2025-04-15T15:31:26.493Z</time>
      </trkpt>
      <trkpt lat="44.96293" lon="3.88764">
        <ele>868.22</ele>
        <time>2025-04-15T15:31:32.362Z</time>
      </trkpt>
      <trkpt lat="44.96324" lon="3.88763">
        <ele>867.99</ele>
        <time>2025-04-15T15:31:38.236Z</time>
      </trkpt>
      <trkpt lat="44.96354" lon="3.88762">
        <ele>867.63</ele>
        <time>2025-04-15T15:31:44.115Z</time>
      </trkpt>
      <trkpt lat="44.96385" lon="3.88759">
        <ele>867.18</ele>
        <time>2025-04-15T15:31:49.999Z</time>
      </trkpt>
      <trkpt lat="44.96416" lon="3.88756">
        <ele>866.67</ele>
        <time>2025-04-15T15:31:55.888Z</time>
      </trkpt>
      <trkpt lat="44.96447" lon="3.88753">
        <ele>866.11</ele>
        <time>2025-04-15T15:32:01.782Z</time>
      </trkpt>
      <trkpt lat="44.96472" lon="3.88751">
        <ele>865.55</ele>
        <time>2025-04-15T15:32:07.680Z</time>
      </trkpt>
      <trkpt lat="44.96498" lon="3.8875">
        <ele>864.93</ele>
        <time>2025-04-15T15:32:13.582Z</time>
      </trkpt>
      <trkpt lat="44.96524" lon="3.88748">
        <ele>864.26</ele>
        <time>2025-04-15T15:32:19.488Z</time>
      </trkpt>
      <trkpt lat="44.9655" lon="3.88747">
        <ele>863.47</ele>
        <time>2025-04-15T15:32:25.398Z</time>
      </trkpt>
      <trkpt lat="44.96576" lon="3.88744">
        <ele>862.65</ele>
        <time>2025-04-15T15:32:31.313Z</time>
      </trkpt>
      <trkpt lat="44.96603" lon="3.88742">
        <ele>861.81</ele>
        <time>2025-04-15T15:32:37.232Z</time>
      </trkpt>
      <trkpt lat="44.96629" lon="3.8874">
        <ele>860.92</ele>
        <time>2025-04-15T15:32:43.155Z</time>
      </trkpt>
      <trkpt lat="44.96656" lon="3.88738">
        <ele>860.02</ele>
        <time>2025-04-15T15:32:49.082Z</time>
      </trkpt>
      <trkpt lat="44.96683" lon="3.88736">
        <ele>859.11</ele>
        <time>2025-04-15T15:32:55.014Z</time>
      </trkpt>
      <trkpt lat="44.9671" lon="3.88751">
        <ele>858.2</ele>
        <time>2025-04-15T15:33:00.950Z</time>
      </trkpt>
      <trkpt lat="44.96736" lon="3.88766">
        <ele>857.29</ele>
        <time>2025-04-15T15:33:06.891Z</time>
      </trkpt>
      <trkpt lat="44.96756" lon="3.88772">
        <ele>856.44</ele>
        <time>2025-04-15T15:33:12.835Z</time>
      </trkpt>
      <trkpt lat="44.96764" lon="3.88772">
        <ele>855.64</ele>
        <time>2025-04-15T15:33:18.780Z</time>
      </trkpt>
      <trkpt lat="44.9678" lon="3.88764">
        <ele>854.86</ele>
        <time>2025-04-15T15:33:24.728Z</time>
      </trkpt>
      <trkpt lat="44.96796" lon="3.88755">
        <ele>854.08</ele>
        <time>2025-04-15T15:33:30.679Z</time>
      </trkpt>
      <trkpt lat="44.96816" lon="3.88749">
        <ele>853.32</ele>
        <time>2025-04-15T15:33:36.633Z</time>
      </trkpt>
      <trkpt lat="44.96835" lon="3.88742">
        <ele>852.56</ele>
        <time>2025-04-15T15:33:42.590Z</time>
      </trkpt>
      <trkpt lat="44.96829" lon="3.88779">
        <ele>851.77</ele>
        <time>2025-04-15T15:33:48.552Z</time>
      </trkpt>
      <trkpt lat="44.96822" lon="3.88792">
        <ele>851.02</ele>
        <time>2025-04-15T15:33:54.515Z</time>
      </trkpt>
      <trkpt lat="44.968" lon="3.88805">
        <ele>850.3</ele>
        <time>2025-04-15T15:34:00.482Z</time>
      </trkpt>
      <trkpt lat="44.96778" lon="3.88818">
        <ele>849.58</ele>
        <time>2025-04-15T15:34:06.453Z</time>
      </trkpt>
      <trkpt lat="44.96756" lon="3.88832">
        <ele>848.81</ele>
        <time>2025-04-15T15:34:12.428Z</time>
      </trkpt>
      <trkpt lat="44.96734" lon="3.88845">
        <ele>848.07</ele>
        <time>2025-04-15T15:34:18.407Z</time>
      </trkpt>
      <trkpt lat="44.96713" lon="3.88871">
        <ele>847.15</ele>
        <time>2025-04-15T15:34:24.390Z</time>
      </trkpt>
      <trkpt lat="44.96691" lon="3.88897">
        <ele>846.09</ele>
        <time>2025-04-15T15:34:30.378Z</time>
      </trkpt>
      <trkpt lat="44.96667" lon="3.8892">
        <ele>845.09</ele>
        <time>2025-04-15T15:34:36.370Z</time>
      </trkpt>
      <trkpt lat="44.96643" lon="3.88944">
        <ele>844.04</ele>
        <time>2025-04-15T15:34:42.367Z</time>
      </trkpt>
      <trkpt lat="44.96618" lon="3.88968">
        <ele>843</ele>
        <time>2025-04-15T15:34:48.369Z</time>
      </trkpt>
      <trkpt lat="44.96597" lon="3.88995">
        <ele>841.82</ele>
        <time>2025-04-15T15:34:54.376Z</time>
      </trkpt>
      <trkpt lat="44.96614" lon="3.88991">
        <ele>840.6</ele>
        <time>2025-04-15T15:35:00.385Z</time>
      </trkpt>
      <trkpt lat="44.96628" lon="3.88979">
        <ele>839.35</ele>
        <time>2025-04-15T15:35:06.397Z</time>
      </trkpt>
      <trkpt lat="44.96642" lon="3.88968">
        <ele>838.08</ele>
        <time>2025-04-15T15:35:12.412Z</time>
      </trkpt>
      <trkpt lat="44.96669" lon="3.8895">
        <ele>836.59</ele>
        <time>2025-04-15T15:35:18.431Z</time>
      </trkpt>
      <trkpt lat="44.96695" lon="3.88933">
        <ele>835.18</ele>
        <time>2025-04-15T15:35:24.455Z</time>
      </trkpt>
      <trkpt lat="44.96722" lon="3.88916">
        <ele>833.7</ele>
        <time>2025-04-15T15:35:30.484Z</time>
      </trkpt>
      <trkpt lat="44.96748" lon="3.88899">
        <ele>832.16</ele>
        <time>2025-04-15T15:35:36.517Z</time>
      </trkpt>
      <trkpt lat="44.96775" lon="3.88882">
        <ele>830.61</ele>
        <time>2025-04-15T15:35:42.555Z</time>
      </trkpt>
      <trkpt lat="44.96804" lon="3.88877">
        <ele>828.78</ele>
        <time>2025-04-15T15:35:48.598Z</time>
      </trkpt>
      <trkpt lat="44.96833" lon="3.88873">
        <ele>827.07</ele>
        <time>2025-04-15T15:35:54.645Z</time>
      </trkpt>
      <trkpt lat="44.96862" lon="3.88867">
        <ele>825.3</ele>
        <time>2025-04-15T15:36:00.697Z</time>
      </trkpt>
      <trkpt lat="44.96891" lon="3.8886">
        <ele>823.49</ele>
        <time>2025-04-15T15:36:06.754Z</time>
      </trkpt>
      <trkpt lat="44.9691" lon="3.8886">
        <ele>821.63</ele>
        <time>2025-04-15T15:36:12.814Z</time>
      </trkpt>
      <trkpt lat="44.96934" lon="3.88862">
        <ele>819.62</ele>
        <time>2025-04-15T15:36:18.878Z</time>
      </trkpt>
      <trkpt lat="44.96957" lon="3.88865">
        <ele>817.79</ele>
        <time>2025-04-15T15:36:24.945Z</time>
      </trkpt>
      <trkpt lat="44.96981" lon="3.88867">
        <ele>815.98</ele>
        <time>2025-04-15T15:36:31.016Z</time>
      </trkpt>
      <trkpt lat="44.97005" lon="3.88869">
        <ele>814.18</ele>
        <time>2025-04-15T15:36:37.091Z</time>
      </trkpt>
      <trkpt lat="44.97029" lon="3.88875">
        <ele>812.44</ele>
        <time>2025-04-15T15:36:43.170Z</time>
      </trkpt>
      <trkpt lat="44.97054" lon="3.88882">
        <ele>810.8</ele>
        <time>2025-04-15T15:36:49.253Z</time>
      </trkpt>
      <trkpt lat="44.97083" lon="3.88891">
        <ele>809.1</ele>
        <time>2025-04-15T15:36:55.341Z</time>
      </trkpt>
      <trkpt lat="44.97111" lon="3.889">
        <ele>807.3</ele>
        <time>2025-04-15T15:37:01.433Z</time>
      </trkpt>
      <trkpt lat="44.9714" lon="3.8891">
        <ele>805.5</ele>
        <time>2025-04-15T15:37:07.530Z</time>
      </trkpt>
      <trkpt lat="44.9714" lon="3.8891">
        <ele>804.02</ele>
        <time>2025-04-15T15:37:13.627Z</time>
      </trkpt>
      <trkpt lat="44.97163" lon="3.88912">
        <ele>802.43</ele>
        <time>2025-04-15T15:37:19.728Z</time>
      </trkpt>
      <trkpt lat="44.97183" lon="3.88903">
        <ele>801.04</ele>
        <time>2025-04-15T15:37:25.832Z</time>
      </trkpt>
      <trkpt lat="44.97198" lon="3.88884">
        <ele>799.62</ele>
        <time>2025-04-15T15:37:31.939Z</time>
      </trkpt>
      <trkpt lat="44.97202" lon="3.88869">
        <ele>798.33</ele>
        <time>2025-04-15T15:37:38.048Z</time>
      </trkpt>
      <trkpt lat="44.972" lon="3.88839">
        <ele>797.07</ele>
        <time>2025-04-15T15:37:44.161Z</time>
      </trkpt>
      <trkpt lat="44.97188" lon="3.88803">
        <ele>795.77</ele>
        <time>2025-04-15T15:37:50.278Z</time>
      </trkpt>
      <trkpt lat="44.97176" lon="3.88768">
        <ele>794.63</ele>
        <time>2025-04-15T15:37:56.399Z</time>
      </trkpt>
      <trkpt lat="44.97174" lon="3.88747">
        <ele>793.51</ele>
        <time>2025-04-15T15:38:02.523Z</time>
      </trkpt>
      <trkpt lat="44.97178" lon="3.88736">
        <ele>792.23</ele>
        <time>2025-04-15T15:38:08.648Z</time>
      </trkpt>
      <trkpt lat="44.97196" lon="3.88721">
        <ele>790.83</ele>
        <time>2025-04-15T15:38:14.777Z</time>
      </trkpt>
      <trkpt lat="44.97215" lon="3.88713">
        <ele>789.38</ele>
        <time>2025-04-15T15:38:20.909Z</time>
      </trkpt>
      <trkpt lat="44.97234" lon="3.88706">
        <ele>788.01</ele>
        <time>2025-04-15T15:38:27.044Z</time>
      </trkpt>
      <trkpt lat="44.97261" lon="3.88704">
        <ele>786.65</ele>
        <time>2025-04-15T15:38:33.183Z</time>
      </trkpt>
      <trkpt lat="44.97287" lon="3.88701">
        <ele>785.24</ele>
        <time>2025-04-15T15:38:39.326Z</time>
      </trkpt>
      <trkpt lat="44.97314" lon="3.88699">
        <ele>783.83</ele>
        <time>2025-04-15T15:38:45.474Z</time>
      </trkpt>
      <trkpt lat="44.9734" lon="3.88697">
        <ele>782.27</ele>
        <time>2025-04-15T15:38:51.626Z</time>
      </trkpt>
      <trkpt lat="44.97367" lon="3.88695">
        <ele>780.79</ele>
        <time>2025-04-15T15:38:57.782Z</time>
      </trkpt>
      <trkpt lat="44.97396" lon="3.88686">
        <ele>779.33</ele>
        <time>2025-04-15T15:39:03.943Z</time>
      </trkpt>
      <trkpt lat="44.97425" lon="3.88677">
        <ele>777.66</ele>
        <time>2025-04-15T15:39:10.109Z</time>
      </trkpt>
      <trkpt lat="44.97454" lon="3.88668">
        <ele>776.07</ele>
        <time>2025-04-15T15:39:16.280Z</time>
      </trkpt>
      <trkpt lat="44.97483" lon="3.88659">
        <ele>774.73</ele>
        <time>2025-04-15T15:39:22.455Z</time>
      </trkpt>
      <trkpt lat="44.97505" lon="3.88653">
        <ele>773.31</ele>
        <time>2025-04-15T15:39:28.634Z</time>
      </trkpt>
      <trkpt lat="44.97526" lon="3.88646">
        <ele>771.77</ele>
        <time>2025-04-15T15:39:34.816Z</time>
      </trkpt>
      <trkpt lat="44.97547" lon="3.88639">
        <ele>770.04</ele>
        <time>2025-04-15T15:39:41.002Z</time>
      </trkpt>
      <trkpt lat="44.97569" lon="3.88629">
        <ele>768.14</ele>
        <time>2025-04-15T15:39:47.191Z</time>
      </trkpt>
      <trkpt lat="44.97586" lon="3.88614">
        <ele>766.5</ele>
        <time>2025-04-15T15:39:53.384Z</time>
      </trkpt>
      <trkpt lat="44.97606" lon="3.88593">
        <ele>764.78</ele>
        <time>2025-04-15T15:39:59.581Z</time>
      </trkpt>
      <trkpt lat="44.97626" lon="3.88573">
        <ele>762.97</ele>
        <time>2025-04-15T15:40:05.782Z</time>
      </trkpt>
      <trkpt lat="44.97646" lon="3.88552">
        <ele>761.1</ele>
        <time>2025-04-15T15:40:11.986Z</time>
      </trkpt>
      <trkpt lat="44.97665" lon="3.88532">
        <ele>759.17</ele>
        <time>2025-04-15T15:40:18.194Z</time>
      </trkpt>
      <trkpt lat="44.97683" lon="3.88521">
        <ele>757.2</ele>
        <time>2025-04-15T15:40:24.405Z</time>
      </trkpt>
      <trkpt lat="44.977" lon="3.88517">
        <ele>755.18</ele>
        <time>2025-04-15T15:40:30.619Z</time>
      </trkpt>
      <trkpt lat="44.97731" lon="3.88518">
        <ele>753.07</ele>
        <time>2025-04-15T15:40:36.838Z</time>
      </trkpt>
      <trkpt lat="44.97761" lon="3.88518">
        <ele>751.09</ele>
        <time>2025-04-15T15:40:43.062Z</time>
      </trkpt>
      <trkpt lat="44.97792" lon="3.88519">
        <ele>749.16</ele>
        <time>2025-04-15T15:40:49.291Z</time>
      </trkpt>
      <trkpt lat="44.9782" lon="3.88524">
        <ele>747.15</ele>
        <time>2025-04-15T15:40:55.524Z</time>
      </trkpt>
      <trkpt lat="44.97847" lon="3.88528">
        <ele>745.17</ele>
        <time>2025-04-15T15:41:01.762Z</time>
      </trkpt>
      <trkpt lat="44.97875" lon="3.88533">
        <ele>743.34</ele>
        <time>2025-04-15T15:41:08.004Z</time>
      </trkpt>
      <trkpt lat="44.97902" lon="3.88537">
        <ele>741.45</ele>
        <time>2025-04-15T15:41:14.251Z</time>
      </trkpt>
      <trkpt lat="44.9793" lon="3.88542">
        <ele>739.5</ele>
        <time>2025-04-15T15:41:20.502Z</time>
      </trkpt>
      <trkpt lat="44.97957" lon="3.88547">
        <ele>737.6</ele>
        <time>2025-04-15T15:41:26.758Z</time>
      </trkpt>
      <trkpt lat="44.97985" lon="3.88551">
        <ele>735.58</ele>
        <time>2025-04-15T15:41:33.018Z</time>
      </trkpt>
      <trkpt lat="44.98011" lon="3.88545">
        <ele>733.73</ele>
        <time>2025-04-15T15:41:39.282Z</time>
      </trkpt>
      <trkpt lat="44.98026" lon="3.88536">
        <ele>732.01</ele>
        <time>2025-04-15T15:41:45.549Z</time>
      </trkpt>
      <trkpt lat="44.98039" lon="3.88515">
        <ele>730.34</ele>
        <time>2025-04-15T15:41:51.819Z</time>
      </trkpt>
      <trkpt lat="44.98045" lon="3.88493">
        <ele>728.75</ele>
        <time>2025-04-15T15:41:58.092Z</time>
      </trkpt>
      <trkpt lat="44.98045" lon="3.88471">
        <ele>727.18</ele>
        <time>2025-04-15T15:42:04.367Z</time>
      </trkpt>
      <trkpt lat="44.98045" lon="3.88448">
        <ele>725.59</ele>
        <time>2025-04-15T15:42:10.645Z</time>
      </trkpt>
      <trkpt lat="44.98041" lon="3.88415">
        <ele>724.16</ele>
        <time>2025-04-15T15:42:16.927Z</time>
      </trkpt>
      <trkpt lat="44.98037" lon="3.88382">
        <ele>722.65</ele>
        <time>2025-04-15T15:42:23.213Z</time>
      </trkpt>
      <trkpt lat="44.98044" lon="3.88346">
        <ele>720.92</ele>
        <time>2025-04-15T15:42:29.503Z</time>
      </trkpt>
      <trkpt lat="44.98052" lon="3.88311">
        <ele>719.35</ele>
        <time>2025-04-15T15:42:35.797Z</time>
      </trkpt>
      <trkpt lat="44.98055" lon="3.88287">
        <ele>717.87</ele>
        <time>2025-04-15T15:42:42.094Z</time>
      </trkpt>
      <trkpt lat="44.98058" lon="3.88264">
        <ele>716.36</ele>
        <time>2025-04-15T15:42:48.393Z</time>
      </trkpt>
      <trkpt lat="44.98063" lon="3.8823">
        <ele>714.87</ele>
        <time>2025-04-15T15:42:54.696Z</time>
      </trkpt>
      <trkpt lat="44.98068" lon="3.88196">
        <ele>713.43</ele>
        <time>2025-04-15T15:43:01.003Z</time>
      </trkpt>
      <trkpt lat="44.98073" lon="3.88162">
        <ele>712.06</ele>
        <time>2025-04-15T15:43:07.314Z</time>
      </trkpt>
      <trkpt lat="44.98077" lon="3.88129">
        <ele>710.6</ele>
        <time>2025-04-15T15:43:13.629Z</time>
      </trkpt>
      <trkpt lat="44.9809" lon="3.88092">
        <ele>708.91</ele>
        <time>2025-04-15T15:43:19.949Z</time>
      </trkpt>
      <trkpt lat="44.9811" lon="3.88073">
        <ele>707.53</ele>
        <time>2025-04-15T15:43:26.272Z</time>
      </trkpt>
      <trkpt lat="44.98135" lon="3.88066">
        <ele>706.33</ele>
        <time>2025-04-15T15:43:32.600Z</time>
      </trkpt>
      <trkpt lat="44.98155" lon="3.88064">
        <ele>705.18</ele>
        <time>2025-04-15T15:43:38.931Z</time>
      </trkpt>
      <trkpt lat="44.98174" lon="3.88068">
        <ele>704.09</ele>
        <time>2025-04-15T15:43:45.265Z</time>
      </trkpt>
      <trkpt lat="44.98193" lon="3.88079">
        <ele>703.13</ele>
        <time>2025-04-15T15:43:51.602Z</time>
      </trkpt>
      <trkpt lat="44.98193" lon="3.88079">
        <ele>702.23</ele>
        <time>2025-04-15T15:43:57.939Z</time>
      </trkpt>
      <trkpt lat="44.98208" lon="3.88101">
        <ele>701.38</ele>
        <time>2025-04-15T15:44:04.280Z</time>
      </trkpt>
      <trkpt lat="44.98215" lon="3.88131">
        <ele>700.54</ele>
        <time>2025-04-15T15:44:10.624Z</time>
      </trkpt>
      <trkpt lat="44.98218" lon="3.88167">
        <ele>699.76</ele>
        <time>2025-04-15T15:44:16.972Z</time>
      </trkpt>
      <trkpt lat="44.98222" lon="3.88204">
        <ele>699.09</ele>
        <time>2025-04-15T15:44:23.325Z</time>
      </trkpt>
      <trkpt lat="44.98226" lon="3.8824">
        <ele>698.48</ele>
        <time>2025-04-15T15:44:29.682Z</time>
      </trkpt>
      <trkpt lat="44.98234" lon="3.88274">
        <ele>697.93</ele>
        <time>2025-04-15T15:44:36.043Z</time>
      </trkpt>
      <trkpt lat="44.98243" lon="3.88308">
        <ele>697.39</ele>
        <time>2025-04-15T15:44:42.408Z</time>
      </trkpt>
      <trkpt lat="44.98251" lon="3.88341">
        <ele>696.89</ele>
        <time>2025-04-15T15:44:48.777Z</time>
      </trkpt>
      <trkpt lat="44.98273" lon="3.88365">
        <ele>696.62</ele>
        <time>2025-04-15T15:44:55.150Z</time>
      </trkpt>
      <trkpt lat="44.98298" lon="3.88376">
        <ele>696.56</ele>
        <time>2025-04-15T15:45:01.528Z</time>
      </trkpt>
      <trkpt lat="44.98324" lon="3.88387">
        <ele>696.54</ele>
        <time>2025-04-15T15:45:07.910Z</time>
      </trkpt>
      <trkpt lat="44.9835" lon="3.88399">
        <ele>696.43</ele>
        <time>2025-04-15T15:45:14.296Z</time>
      </trkpt>
      <trkpt lat="44.98376" lon="3.8841">
        <ele>696.26</ele>
        <time>2025-04-15T15:45:20.687Z</time>
      </trkpt>
      <trkpt lat="44.98401" lon="3.88422">
        <ele>696.07</ele>
        <time>2025-04-15T15:45:27.082Z</time>
      </trkpt>
      <trkpt lat="44.98427" lon="3.88433">
        <ele>696.08</ele>
        <time>2025-04-15T15:45:33.481Z</time>
      </trkpt>
      <trkpt lat="44.98444" lon="3.88435">
        <ele>696.19</ele>
        <time>2025-04-15T15:45:39.883Z</time>
      </trkpt>
      <trkpt lat="44.98451" lon="3.88444">
        <ele>696.18</ele>
        <time>2025-04-15T15:45:46.286Z</time>
      </trkpt>
      <trkpt lat="44.98479" lon="3.88446">
        <ele>696.37</ele>
        <time>2025-04-15T15:45:52.694Z</time>
      </trkpt>
      <trkpt lat="44.98494" lon="3.88442">
        <ele>696.52</ele>
        <time>2025-04-15T15:45:59.104Z</time>
      </trkpt>
      <trkpt lat="44.98522" lon="3.88435">
        <ele>696.67</ele>
        <time>2025-04-15T15:46:05.519Z</time>
      </trkpt>
      <trkpt lat="44.9855" lon="3.88429">
        <ele>696.72</ele>
        <time>2025-04-15T15:46:11.938Z</time>
      </trkpt>
      <trkpt lat="44.98576" lon="3.88417">
        <ele>696.71</ele>
        <time>2025-04-15T15:46:18.362Z</time>
      </trkpt>
      <trkpt lat="44.98602" lon="3.88405">
        <ele>696.61</ele>
        <time>2025-04-15T15:46:24.790Z</time>
      </trkpt>
      <trkpt lat="44.98629" lon="3.88392">
        <ele>696.36</ele>
        <time>2025-04-15T15:46:31.223Z</time>
      </trkpt>
      <trkpt lat="44.98653" lon="3.88385">
        <ele>695.97</ele>
        <time>2025-04-15T15:46:37.660Z</time>
      </trkpt>
      <trkpt lat="44.98678" lon="3.88377">
        <ele>695.65</ele>
        <time>2025-04-15T15:46:44.101Z</time>
      </trkpt>
      <trkpt lat="44.98702" lon="3.88369">
        <ele>695.37</ele>
        <time>2025-04-15T15:46:50.546Z</time>
      </trkpt>
      <trkpt lat="44.9872" lon="3.88358">
        <ele>695.15</ele>
        <time>2025-04-15T15:46:56.994Z</time>
      </trkpt>
      <trkpt lat="44.98738" lon="3.88347">
        <ele>694.96</ele>
        <time>2025-04-15T15:47:03.445Z</time>
      </trkpt>
      <trkpt lat="44.98754" lon="3.88333">
        <ele>694.85</ele>
        <time>2025-04-15T15:47:09.899Z</time>
      </trkpt>
      <trkpt lat="44.98771" lon="3.8832">
        <ele>694.93</ele>
        <time>2025-04-15T15:47:16.356Z</time>
      </trkpt>
      <trkpt lat="44.98787" lon="3.88292">
        <ele>695.01</ele>
        <time>2025-04-15T15:47:22.817Z</time>
      </trkpt>
      <trkpt lat="44.98794" lon="3.88281">
        <ele>694.94</ele>
        <time>2025-04-15T15:47:29.280Z</time>
      </trkpt>
      <trkpt lat="44.98813" lon="3.88266">
        <ele>694.76</ele>
        <time>2025-04-15T15:47:35.746Z</time>
      </trkpt>
      <trkpt lat="44.98826" lon="3.88262">
        <ele>694.66</ele>
        <time>2025-04-15T15:47:42.214Z</time>
      </trkpt>
      <trkpt lat="44.98851" lon="3.88268">
        <ele>694.54</ele>
        <time>2025-04-15T15:47:48.687Z</time>
      </trkpt>
      <trkpt lat="44.98876" lon="3.88274">
        <ele>694.57</ele>
        <time>2025-04-15T15:47:55.164Z</time>
      </trkpt>
      <trkpt lat="44.98901" lon="3.88281">
        <ele>694.65</ele>
        <time>2025-04-15T15:48:01.645Z</time>
      </trkpt>
      <trkpt lat="44.98925" lon="3.88285">
        <ele>694.83</ele>
        <time>2025-04-15T15:48:08.129Z</time>
      </trkpt>
      <trkpt lat="44.98944" lon="3.88285">
        <ele>695.14</ele>
        <time>2025-04-15T15:48:14.617Z</time>
      </trkpt>
      <trkpt lat="44.98964" lon="3.88285">
        <ele>695.55</ele>
        <time>2025-04-15T15:48:21.108Z</time>
      </trkpt>
      <trkpt lat="44.98987" lon="3.88278">
        <ele>696.15</ele>
        <time>2025-04-15T15:48:27.603Z</time>
      </trkpt>
      <trkpt lat="44.99011" lon="3.8827">
        <ele>696.87</ele>
        <time>2025-04-15T15:48:34.101Z</time>
      </trkpt>
      <trkpt lat="44.99034" lon="3.88265">
        <ele>697.73</ele>
        <time>2025-04-15T15:48:40.603Z</time>
      </trkpt>
      <trkpt lat="44.99058" lon="3.88259">
        <ele>698.65</ele>
        <time>2025-04-15T15:48:47.109Z</time>
      </trkpt>
      <trkpt lat="44.99074" lon="3.88262">
        <ele>699.56</ele>
        <time>2025-04-15T15:48:53.618Z</time>
      </trkpt>
      <trkpt lat="44.9909" lon="3.88264">
        <ele>700.63</ele>
        <time>2025-04-15T15:49:00.129Z</time>
      </trkpt>
      <trkpt lat="44.99103" lon="3.88272">
        <ele>701.67</ele>
        <time>2025-04-15T15:49:06.643Z</time>
      </trkpt>
      <trkpt lat="44.99116" lon="3.88283">
        <ele>702.76</ele>
        <time>2025-04-15T15:49:13.159Z</time>
      </trkpt>
      <trkpt lat="44.99136" lon="3.88307">
        <ele>703.92</ele>
        <time>2025-04-15T15:49:19.679Z</time>
      </trkpt>
      <trkpt lat="44.99156" lon="3.88332">
        <ele>705.21</ele>
        <time>2025-04-15T15:49:26.203Z</time>
      </trkpt>
      <trkpt lat="44.99176" lon="3.88356">
        <ele>706.6</ele>
        <time>2025-04-15T15:49:32.732Z</time>
      </trkpt>
      <trkpt lat="44.99193" lon="3.88367">
        <ele>708.16</ele>
        <time>2025-04-15T15:49:39.264Z</time>
      </trkpt>
      <trkpt lat="44.9921" lon="3.88377">
        <ele>709.74</ele>
        <time>2025-04-15T15:49:45.799Z</time>
      </trkpt>
      <trkpt lat="44.99238" lon="3.88396">
        <ele>711.23</ele>
        <time>2025-04-15T15:49:52.338Z</time>
      </trkpt>
      <trkpt lat="44.99265" lon="3.88415">
        <ele>712.8</ele>
        <time>2025-04-15T15:49:58.882Z</time>
      </trkpt>
      <trkpt lat="44.99292" lon="3.88434">
        <ele>714.42</ele>
        <time>2025-04-15T15:50:05.431Z</time>
      </trkpt>
      <trkpt lat="44.99319" lon="3.88453">
        <ele>715.96</ele>
        <time>2025-04-15T15:50:11.985Z</time>
      </trkpt>
      <trkpt lat="44.99346" lon="3.88472">
        <ele>717.58</ele>
        <time>2025-04-15T15:50:18.544Z</time>
      </trkpt>
      <trkpt lat="44.99373" lon="3.88491">
        <ele>719.24</ele>
        <time>2025-04-15T15:50:25.108Z</time>
      </trkpt>
      <trkpt lat="44.99386" lon="3.88507">
        <ele>720.91</ele>
        <time>2025-04-15T15:50:31.674Z</time>
      </trkpt>
      <trkpt lat="44.99399" lon="3.88523">
        <ele>722.66</ele>
        <time>2025-04-15T15:50:38.243Z</time>
      </trkpt>
      <trkpt lat="44.99415" lon="3.8855">
        <ele>724.38</ele>
        <time>2025-04-15T15:50:44.816Z</time>
      </trkpt>
      <trkpt lat="44.99431" lon="3.88576">
        <ele>726.12</ele>
        <time>2025-04-15T15:50:51.393Z</time>
      </trkpt>
      <trkpt lat="44.99446" lon="3.88603">
        <ele>727.92</ele>
        <time>2025-04-15T15:50:57.974Z</time>
      </trkpt>
      <trkpt lat="44.9947" lon="3.88629">
        <ele>729.84</ele>
        <time>2025-04-15T15:51:04.560Z</time>
      </trkpt>
      <trkpt lat="44.99481" lon="3.88635">
        <ele>731.74</ele>
        <time>2025-04-15T15:51:11.148Z</time>
      </trkpt>
      <trkpt lat="44.995" lon="3.88637">
        <ele>733.81</ele>
        <time>2025-04-15T15:51:17.739Z</time>
      </trkpt>
      <trkpt lat="44.99519" lon="3.88639">
        <ele>735.88</ele>
        <time>2025-04-15T15:51:24.333Z</time>
      </trkpt>
      <trkpt lat="44.99541" lon="3.88652">
        <ele>737.85</ele>
        <time>2025-04-15T15:51:30.931Z</time>
      </trkpt>
      <trkpt lat="44.99562" lon="3.88665">
        <ele>739.72</ele>
        <time>2025-04-15T15:51:37.532Z</time>
      </trkpt>
      <trkpt lat="44.99577" lon="3.88669">
        <ele>741.53</ele>
        <time>2025-04-15T15:51:44.136Z</time>
      </trkpt>
      <trkpt lat="44.9959" lon="3.88669">
        <ele>743.29</ele>
        <time>2025-04-15T15:51:50.742Z</time>
      </trkpt>
      <trkpt lat="44.99605" lon="3.88661">
        <ele>745.04</ele>
        <time>2025-04-15T15:51:57.350Z</time>
      </trkpt>
      <trkpt lat="44.9962" lon="3.88639">
        <ele>746.86</ele>
        <time>2025-04-15T15:52:03.962Z</time>
      </trkpt>
      <trkpt lat="44.99635" lon="3.88616">
        <ele>748.52</ele>
        <time>2025-04-15T15:52:10.577Z</time>
      </trkpt>
      <trkpt lat="44.9965" lon="3.88594">
        <ele>750.12</ele>
        <time>2025-04-15T15:52:17.196Z</time>
      </trkpt>
      <trkpt lat="44.99678" lon="3.88574">
        <ele>751.46</ele>
        <time>2025-04-15T15:52:23.820Z</time>
      </trkpt>
      <trkpt lat="44.99706" lon="3.88553">
        <ele>752.83</ele>
        <time>2025-04-15T15:52:30.449Z</time>
      </trkpt>
      <trkpt lat="44.99719" lon="3.88536">
        <ele>754.22</ele>
        <time>2025-04-15T15:52:37.081Z</time>
      </trkpt>
      <trkpt lat="44.99732" lon="3.88519">
        <ele>755.48</ele>
        <time>2025-04-15T15:52:43.716Z</time>
      </trkpt>
      <trkpt lat="44.99754" lon="3.88504">
        <ele>756.65</ele>
        <time>2025-04-15T15:52:50.355Z</time>
      </trkpt>
      <trkpt lat="44.99777" lon="3.88489">
        <ele>757.94</ele>
        <time>2025-04-15T15:52:56.998Z</time>
      </trkpt>
      <trkpt lat="44.99793" lon="3.88485">
        <ele>759.1</ele>
        <time>2025-04-15T15:53:03.643Z</time>
      </trkpt>
      <trkpt lat="44.99809" lon="3.8848">
        <ele>760.16</ele>
        <time>2025-04-15T15:53:10.291Z</time>
      </trkpt>
      <trkpt lat="44.99832" lon="3.8848">
        <ele>761.07</ele>
        <time>2025-04-15T15:53:16.942Z</time>
      </trkpt>
      <trkpt lat="44.99854" lon="3.8848">
        <ele>761.93</ele>
        <time>2025-04-15T15:53:23.597Z</time>
      </trkpt>
      <trkpt lat="44.99882" lon="3.88474">
        <ele>762.86</ele>
        <time>2025-04-15T15:53:30.257Z</time>
      </trkpt>
      <trkpt lat="44.99906" lon="3.88457">
        <ele>763.72</ele>
        <time>2025-04-15T15:53:36.921Z</time>
      </trkpt>
      <trkpt lat="44.9992" lon="3.88428">
        <ele>764.54</ele>
        <time>2025-04-15T15:53:43.589Z</time>
      </trkpt>
      <trkpt lat="44.99934" lon="3.884">
        <ele>765.25</ele>
        <time>2025-04-15T15:53:50.261Z</time>
      </trkpt>
      <trkpt lat="44.99949" lon="3.88371">
        <ele>765.89</ele>
        <time>2025-04-15T15:53:56.937Z</time>
      </trkpt>
      <trkpt lat="44.9997" lon="3.88339">
        <ele>766.2</ele>
        <time>2025-04-15T15:54:03.618Z</time>
      </trkpt>
      <trkpt lat="44.99983" lon="3.88326">
        <ele>766.37</ele>
        <time>2025-04-15T15:54:10.301Z</time>
      </trkpt>
      <trkpt lat="44.99996" lon="3.88313">
        <ele>766.52</ele>
        <time>2025-04-15T15:54:16.987Z</time>
      </trkpt>
      <trkpt lat="45.00012" lon="3.88306">
        <ele>766.5</ele>
        <time>2025-04-15T15:54:23.675Z</time>
      </trkpt>
      <trkpt lat="45.00028" lon="3.88298">
        <ele>766.36</ele>
        <time>2025-04-15T15:54:30.366Z</time>
      </trkpt>
      <trkpt lat="45.00056" lon="3.88294">
        <ele>766.54</ele>
        <time>2025-04-15T15:54:37.062Z</time>
      </trkpt>
      <trkpt lat="45.00079" lon="3.883">
        <ele>766.54</ele>
        <time>2025-04-15T15:54:43.762Z</time>
      </trkpt>
      <trkpt lat="45.00079" lon="3.883">
        <ele>766.51</ele>
        <time>2025-04-15T15:54:50.462Z</time>
      </trkpt>
      <trkpt lat="45.00099" lon="3.8832">
        <ele>766.34</ele>
        <time>2025-04-15T15:54:57.165Z</time>
      </trkpt>
      <trkpt lat="45.00118" lon="3.88339">
        <ele>766.21</ele>
        <time>2025-04-15T15:55:03.872Z</time>
      </trkpt>
      <trkpt lat="45.00135" lon="3.88347">
        <ele>766.21</ele>
        <time>2025-04-15T15:55:10.582Z</time>
      </trkpt>
      <trkpt lat="45.00162" lon="3.88353">
        <ele>766.34</ele>
        <time>2025-04-15T15:55:17.296Z</time>
      </trkpt>
      <trkpt lat="45.00189" lon="3.88358">
        <ele>766.46</ele>
        <time>2025-04-15T15:55:24.015Z</time>
      </trkpt>
      <trkpt lat="45.00209" lon="3.88367">
        <ele>766.48</ele>
        <time>2025-04-15T15:55:30.737Z</time>
      </trkpt>
      <trkpt lat="45.00229" lon="3.88377">
        <ele>766.61</ele>
        <time>2025-04-15T15:55:37.462Z</time>
      </trkpt>
      <trkpt lat="45.00249" lon="3.88386">
        <ele>766.78</ele>
        <time>2025-04-15T15:55:44.191Z</time>
      </trkpt>
      <trkpt lat="45.00258" lon="3.88392">
        <ele>766.88</ele>
        <time>2025-04-15T15:55:50.921Z</time>
      </trkpt>
      <trkpt lat="45.00266" lon="3.88405">
        <ele>766.97</ele>
        <time>2025-04-15T15:55:57.653Z</time>
      </trkpt>
      <trkpt lat="45.00279" lon="3.88442">
        <ele>766.94</ele>
        <time>2025-04-15T15:56:04.390Z</time>
      </trkpt>
      <trkpt lat="45.00292" lon="3.88478">
        <ele>766.99</ele>
        <time>2025-04-15T15:56:11.132Z</time>
      </trkpt>
      <trkpt lat="45.00309" lon="3.88493">
        <ele>767.52</ele>
        <time>2025-04-15T15:56:17.877Z</time>
      </trkpt>
      <trkpt lat="45.00333" lon="3.88502">
        <ele>768.22</ele>
        <time>2025-04-15T15:56:24.626Z</time>
      </trkpt>
      <trkpt lat="45.00358" lon="3.88511">
        <ele>768.92</ele>
        <time>2025-04-15T15:56:31.379Z</time>
      </trkpt>
      <trkpt lat="45.00382" lon="3.8852">
        <ele>769.66</ele>
        <time>2025-04-15T15:56:38.136Z</time>
      </trkpt>
      <trkpt lat="45.00407" lon="3.88529">
        <ele>770.49</ele>
        <time>2025-04-15T15:56:44.897Z</time>
      </trkpt>
      <trkpt lat="45.00431" lon="3.88538">
        <ele>771.43</ele>
        <time>2025-04-15T15:56:51.662Z</time>
      </trkpt>
      <trkpt lat="45.00431" lon="3.88538">
        <ele>772.64</ele>
        <time>2025-04-15T15:56:58.427Z</time>
      </trkpt>
      <trkpt lat="45.00461" lon="3.88546">
        <ele>774.15</ele>
        <time>2025-04-15T15:57:05.197Z</time>
      </trkpt>
      <trkpt lat="45.0049" lon="3.88554">
        <ele>775.83</ele>
        <time>2025-04-15T15:57:11.972Z</time>
      </trkpt>
      <trkpt lat="45.00519" lon="3.88562">
        <ele>777.51</ele>
        <time>2025-04-15T15:57:18.751Z</time>
      </trkpt>
      <trkpt lat="45.00549" lon="3.88573">
        <ele>779.25</ele>
        <time>2025-04-15T15:57:25.535Z</time>
      </trkpt>
      <trkpt lat="45.00568" lon="3.88586">
        <ele>780.81</ele>
        <time>2025-04-15T15:57:32.323Z</time>
      </trkpt>
      <trkpt lat="45.00586" lon="3.88598">
        <ele>782.42</ele>
        <time>2025-04-15T15:57:39.114Z</time>
      </trkpt>
      <trkpt lat="45.00608" lon="3.88601">
        <ele>784.31</ele>
        <time>2025-04-15T15:57:45.908Z</time>
      </trkpt>
      <trkpt lat="45.0063" lon="3.88603">
        <ele>786.2</ele>
        <time>2025-04-15T15:57:52.706Z</time>
      </trkpt>
      <trkpt lat="45.00652" lon="3.88605">
        <ele>787.97</ele>
        <time>2025-04-15T15:57:59.508Z</time>
      </trkpt>
      <trkpt lat="45.00667" lon="3.8862">
        <ele>789.52</ele>
        <time>2025-04-15T15:58:06.313Z</time>
      </trkpt>
      <trkpt lat="45.00682" lon="3.88635">
        <ele>790.95</ele>
        <time>2025-04-15T15:58:13.120Z</time>
      </trkpt>
      <trkpt lat="45.00702" lon="3.88669">
        <ele>791.97</ele>
        <time>2025-04-15T15:58:19.932Z</time>
      </trkpt>
      <trkpt lat="45.00719" lon="3.88705">
        <ele>792.62</ele>
        <time>2025-04-15T15:58:26.749Z</time>
      </trkpt>
      <trkpt lat="45.00736" lon="3.88741">
        <ele>793.56</ele>
        <time>2025-04-15T15:58:33.571Z</time>
      </trkpt>
      <trkpt lat="45.00753" lon="3.88777">
        <ele>794.71</ele>
        <time>2025-04-15T15:58:40.398Z</time>
      </trkpt>
      <trkpt lat="45.0077" lon="3.88813">
        <ele>795.63</ele>
        <time>2025-04-15T15:58:47.230Z</time>
      </trkpt>
      <trkpt lat="45.00781" lon="3.88852">
        <ele>796.45</ele>
        <time>2025-04-15T15:58:54.067Z</time>
      </trkpt>
      <trkpt lat="45.00783" lon="3.88875">
        <ele>796.9</ele>
        <time>2025-04-15T15:59:00.907Z</time>
      </trkpt>
      <trkpt lat="45.00779" lon="3.88895">
        <ele>797.05</ele>
        <time>2025-04-15T15:59:07.749Z</time>
      </trkpt>
      <trkpt lat="45.0077" lon="3.88918">
        <ele>797.01</ele>
        <time>2025-04-15T15:59:14.594Z</time>
      </trkpt>
      <trkpt lat="45.00762" lon="3.88942">
        <ele>797.17</ele>
        <time>2025-04-15T15:59:21.442Z</time>
      </trkpt>
      <trkpt lat="45.00764" lon="3.88965">
        <ele>797.59</ele>
        <time>2025-04-15T15:59:28.293Z</time>
      </trkpt>
      <trkpt lat="45.00775" lon="3.88991">
        <ele>798.06</ele>
        <time>2025-04-15T15:59:35.147Z</time>
      </trkpt>
      <trkpt lat="45.0079" lon="3.89016">
        <ele>798.53</ele>
        <time>2025-04-15T15:59:42.005Z</time>
      </trkpt>
      <trkpt lat="45.00806" lon="3.8904">
        <ele>799</ele>
        <time>2025-04-15T15:59:48.866Z</time>
      </trkpt>
      <trkpt lat="45.00822" lon="3.89064">
        <ele>799.37</ele>
        <time>2025-04-15T15:59:55.731Z</time>
      </trkpt>
      <trkpt lat="45.00836" lon="3.89093">
        <ele>799.83</ele>
        <time>2025-04-15T16:00:02.600Z</time>
      </trkpt>
      <trkpt lat="45.00851" lon="3.89122">
        <ele>800.03</ele>
        <time>2025-04-15T16:00:09.473Z</time>
      </trkpt>
      <trkpt lat="45.00861" lon="3.89141">
        <ele>800.03</ele>
        <time>2025-04-15T16:00:16.349Z</time>
      </trkpt>
      <trkpt lat="45.00876" lon="3.8918">
        <ele>800.15</ele>
        <time>2025-04-15T16:00:23.230Z</time>
      </trkpt>
      <trkpt lat="45.00881" lon="3.89217">
        <ele>800.14</ele>
        <time>2025-04-15T16:00:30.115Z</time>
      </trkpt>
      <trkpt lat="45.00886" lon="3.89253">
        <ele>800.16</ele>
        <time>2025-04-15T16:00:37.004Z</time>
      </trkpt>
      <trkpt lat="45.00893" lon="3.89281">
        <ele>800.38</ele>
        <time>2025-04-15T16:00:43.897Z</time>
      </trkpt>
      <trkpt lat="45.00907" lon="3.89304">
        <ele>800.89</ele>
        <time>2025-04-15T16:00:50.793Z</time>
      </trkpt>
      <trkpt lat="45.00921" lon="3.89327">
        <ele>801.34</ele>
        <time>2025-04-15T16:00:57.693Z</time>
      </trkpt>
      <trkpt lat="45.00936" lon="3.8935">
        <ele>801.85</ele>
        <time>2025-04-15T16:01:04.596Z</time>
      </trkpt>
      <trkpt lat="45.00936" lon="3.8935">
        <ele>802.24</ele>
        <time>2025-04-15T16:01:11.499Z</time>
      </trkpt>
      <trkpt lat="45.00946" lon="3.89367">
        <ele>802.83</ele>
        <time>2025-04-15T16:01:18.405Z</time>
      </trkpt>
      <trkpt lat="45.00957" lon="3.89384">
        <ele>803.29</ele>
        <time>2025-04-15T16:01:25.313Z</time>
      </trkpt>
      <trkpt lat="45.0097" lon="3.89418">
        <ele>803.58</ele>
        <time>2025-04-15T16:01:32.226Z</time>
      </trkpt>
      <trkpt lat="45.00985" lon="3.89455">
        <ele>803.8</ele>
        <time>2025-04-15T16:01:39.143Z</time>
      </trkpt>
      <trkpt lat="45.01" lon="3.89491">
        <ele>803.64</ele>
        <time>2025-04-15T16:01:46.065Z</time>
      </trkpt>
      <trkpt lat="45.01012" lon="3.89518">
        <ele>803.65</ele>
        <time>2025-04-15T16:01:52.991Z</time>
      </trkpt>
      <trkpt lat="45.01024" lon="3.89545">
        <ele>803.68</ele>
        <time>2025-04-15T16:01:59.920Z</time>
      </trkpt>
      <trkpt lat="45.01041" lon="3.89573">
        <ele>803.74</ele>
        <time>2025-04-15T16:02:06.854Z</time>
      </trkpt>
      <trkpt lat="45.01057" lon="3.89597">
        <ele>803.63</ele>
        <time>2025-04-15T16:02:13.791Z</time>
      </trkpt>
      <trkpt lat="45.01073" lon="3.89622">
        <ele>803.41</ele>
        <time>2025-04-15T16:02:20.732Z</time>
      </trkpt>
      <trkpt lat="45.01091" lon="3.89635">
        <ele>803.28</ele>
        <time>2025-04-15T16:02:27.676Z</time>
      </trkpt>
      <trkpt lat="45.01109" lon="3.89648">
        <ele>803.03</ele>
        <time>2025-04-15T16:02:34.624Z</time>
      </trkpt>
      <trkpt lat="45.0112" lon="3.89652">
        <ele>802.83</ele>
        <time>2025-04-15T16:02:41.574Z</time>
      </trkpt>
      <trkpt lat="45.01133" lon="3.89661">
        <ele>802.61</ele>
        <time>2025-04-15T16:02:48.526Z</time>
      </trkpt>
      <trkpt lat="45.01146" lon="3.89684">
        <ele>802.35</ele>
        <time>2025-04-15T16:02:55.481Z</time>
      </trkpt>
      <trkpt lat="45.01157" lon="3.89676">
        <ele>802.32</ele>
        <time>2025-04-15T16:03:02.438Z</time>
      </trkpt>
      <trkpt lat="45.01182" lon="3.89665">
        <ele>802.33</ele>
        <time>2025-04-15T16:03:09.399Z</time>
      </trkpt>
      <trkpt lat="45.012" lon="3.89663">
        <ele>802.06</ele>
        <time>2025-04-15T16:03:16.363Z</time>
      </trkpt>
      <trkpt lat="45.01217" lon="3.89661">
        <ele>801.84</ele>
        <time>2025-04-15T16:03:23.330Z</time>
      </trkpt>
      <trkpt lat="45.01239" lon="3.89657">
        <ele>801.78</ele>
        <time>2025-04-15T16:03:30.301Z</time>
      </trkpt>
      <trkpt lat="45.01261" lon="3.89653">
        <ele>801.98</ele>
        <time>2025-04-15T16:03:37.275Z</time>
      </trkpt>
      <trkpt lat="45.01283" lon="3.8965">
        <ele>802.36</ele>
        <time>2025-04-15T16:03:44.253Z</time>
      </trkpt>
      <trkpt lat="45.01269" lon="3.89613">
        <ele>803.29</ele>
        <time>2025-04-15T16:03:51.235Z</time>
      </trkpt>
      <trkpt lat="45.01255" lon="3.89577">
        <ele>804.1</ele>
        <time>2025-04-15T16:03:58.222Z</time>
      </trkpt>
      <trkpt lat="45.01251" lon="3.89577">
        <ele>804.35</ele>
        <time>2025-04-15T16:04:05.210Z</time>
      </trkpt>
      <trkpt lat="45.01224" lon="3.89598">
        <ele>804.52</ele>
        <time>2025-04-15T16:04:12.203Z</time>
      </trkpt>
    </trkseg>
  </trk>
</gpx>